[[{"header":{"parameterUnit":"m.s-1","parameterCategory":1,"la1":30.6,"la2":29.2853,"lo1":-89.7004,"lo2":-87.6739,"dy":0.0162,"dx":0.0183,"nx":112,"ny":82,"refTime":"2023-06-10T18:00:00:Z","depth":0,"parameterNumber":2,"parameterNumberName":"U-component_of_WINDS"},"data":[0.0,0.0,0.0,0.0,0.0,0.0,0.0,0.0,0.0,0.0,0.0,0.0,0.0,0.0,0.0,0.0,0.0,0.0,0.0,0.0,0.0,0.0,0.0,0.0,0.0,0.0,0.0,0.0,0.0,0.0,0.0,0.0,0.0,0.0,0.0,0.0,0.0,0.0,0.0,0.0,0.0,0.0,0.0,0.0,0.0,0.0,0.0,0.0,0.0,0.0,0.0,0.0,0.0,0.0,0.0,0.0,0.0,0.0,0.0,0.0,0.0,0.0,0.0,0.0,0.0,0.0,0.0,0.0,0.0,0.0,0.0,0.0,0.0,0.0,0.0,0.0,0.0,0.0,0.0,0.0,0.0,0.0,0.0,0.0,0.0,0.0,0.0,0.0,0.0,0.0,-4.8663,-4.9894,-5.0607,-5.0956,-5.1065,-5.091,-5.0838,-5.0917,0.0,0.0,0.0,0.0,0.0,0.0,0.0,0.0,0.0,0.0,0.0,0.0,0.0,0.0,0.0,0.0,0.0,0.0,0.0,0.0,0.0,0.0,0.0,0.0,0.0,0.0,0.0,0.0,0.0,0.0,0.0,0.0,0.0,0.0,0.0,0.0,0.0,0.0,0.0,0.0,0.0,0.0,0.0,0.0,0.0,0.0,0.0,0.0,0.0,0.0,0.0,0.0,0.0,0.0,0.0,0.0,0.0,0.0,0.0,0.0,0.0,0.0,0.0,0.0,0.0,0.0,0.0,0.0,0.0,0.0,0.0,0.0,0.0,0.0,0.0,0.0,0.0,0.0,0.0,0.0,0.0,0.0,0.0,0.0,0.0,0.0,0.0,0.0,0.0,0.0,0.0,0.0,0.0,0.0,0.0,0.0,0.0,0.0,0.0,0.0,0.0,0.0,0.0,0.0,-4.8822,-5.0489,-5.1231,-5.1801,-5.2198,-5.1387,-5.0995,-5.1439,0.0,0.0,0.0,0.0,0.0,0.0,0.0,0.0,0.0,0.0,0.0,0.0,0.0,0.0,0.0,0.0,0.0,0.0,0.0,0.0,0.0,0.0,0.0,0.0,0.0,0.0,0.0,0.0,0.0,0.0,0.0,0.0,0.0,0.0,0.0,0.0,0.0,0.0,0.0,0.0,0.0,0.0,0.0,0.0,0.0,0.0,0.0,0.0,0.0,0.0,0.0,0.0,0.0,0.0,0.0,0.0,0.0,0.0,0.0,0.0,0.0,0.0,0.0,0.0,0.0,0.0,0.0,0.0,0.0,0.0,0.0,0.0,0.0,0.0,0.0,0.0,0.0,0.0,0.0,0.0,0.0,0.0,0.0,0.0,0.0,0.0,0.0,0.0,0.0,0.0,0.0,0.0,0.0,0.0,0.0,0.0,0.0,0.0,0.0,0.0,0.0,0.0,0.0,-4.9814,-5.0805,-5.1316,-5.2468,-5.3052,-5.2588,-5.1758,-5.1335,-5.157,-5.1596,0.0,0.0,0.0,0.0,0.0,0.0,0.0,0.0,0.0,0.0,0.0,0.0,0.0,0.0,0.0,0.0,0.0,0.0,0.0,0.0,0.0,0.0,0.0,0.0,0.0,0.0,0.0,0.0,0.0,0.0,0.0,0.0,0.0,0.0,0.0,0.0,0.0,0.0,0.0,0.0,0.0,0.0,0.0,0.0,0.0,0.0,0.0,0.0,0.0,0.0,0.0,0.0,0.0,0.0,0.0,0.0,0.0,0.0,0.0,0.0,0.0,0.0,0.0,0.0,0.0,0.0,0.0,0.0,0.0,0.0,0.0,0.0,0.0,0.0,0.0,0.0,0.0,0.0,0.0,0.0,0.0,0.0,0.0,0.0,0.0,0.0,0.0,0.0,0.0,0.0,0.0,0.0,0.0,0.0,0.0,0.0,0.0,0.0,0.0,0.0,0.0,0.0,-5.1292,-5.2372,-5.1674,-5.3158,-5.3665,-5.2473,-5.1866,-5.1596,-5.1596,-5.1596,0.0,0.0,0.0,0.0,0.0,0.0,0.0,0.0,0.0,0.0,0.0,0.0,0.0,0.0,0.0,0.0,0.0,0.0,0.0,0.0,0.0,0.0,0.0,0.0,0.0,0.0,0.0,0.0,0.0,0.0,0.0,0.0,0.0,0.0,0.0,0.0,0.0,0.0,0.0,0.0,0.0,0.0,0.0,0.0,0.0,0.0,0.0,0.0,0.0,0.0,0.0,0.0,0.0,0.0,0.0,0.0,0.0,0.0,0.0,0.0,0.0,0.0,0.0,0.0,0.0,0.0,0.0,0.0,0.0,0.0,0.0,0.0,0.0,0.0,0.0,0.0,0.0,0.0,0.0,0.0,0.0,0.0,0.0,0.0,0.0,0.0,0.0,0.0,0.0,0.0,0.0,0.0,0.0,0.0,0.0,0.0,0.0,0.0,0.0,0.0,0.0,0.0,-5.1442,-5.2176,-5.1014,-5.25,-5.3093,-5.1767,-5.1632,-5.1596,-5.1596,-5.1596,0.0,0.0,0.0,0.0,0.0,0.0,0.0,0.0,0.0,0.0,0.0,0.0,0.0,0.0,0.0,0.0,0.0,0.0,0.0,0.0,0.0,0.0,0.0,0.0,0.0,0.0,0.0,0.0,0.0,0.0,0.0,0.0,0.0,0.0,0.0,0.0,0.0,0.0,0.0,0.0,0.0,0.0,0.0,0.0,0.0,0.0,0.0,0.0,0.0,0.0,0.0,0.0,0.0,0.0,0.0,0.0,0.0,0.0,0.0,0.0,0.0,0.0,0.0,0.0,0.0,0.0,0.0,0.0,0.0,0.0,0.0,0.0,0.0,0.0,0.0,0.0,0.0,0.0,0.0,0.0,0.0,0.0,0.0,0.0,0.0,0.0,0.0,0.0,0.0,0.0,0.0,0.0,0.0,0.0,0.0,0.0,0.0,0.0,0.0,0.0,0.0,0.0,-5.173,-5.2598,-5.2493,-5.3072,-5.3329,-5.2842,-5.2068,-5.1596,-5.1596,0.0,0.0,0.0,0.0,0.0,0.0,0.0,0.0,0.0,0.0,0.0,0.0,0.0,0.0,0.0,0.0,0.0,0.0,0.0,0.0,0.0,0.0,0.0,0.0,0.0,0.0,0.0,0.0,0.0,0.0,0.0,0.0,0.0,0.0,0.0,0.0,0.0,0.0,0.0,0.0,0.0,0.0,0.0,0.0,0.0,0.0,0.0,0.0,0.0,0.0,0.0,0.0,0.0,0.0,0.0,0.0,0.0,0.0,0.0,0.0,0.0,0.0,0.0,0.0,0.0,0.0,0.0,0.0,0.0,0.0,0.0,0.0,0.0,0.0,0.0,0.0,0.0,0.0,0.0,0.0,0.0,0.0,0.0,0.0,0.0,0.0,0.0,0.0,0.0,0.0,0.0,0.0,0.0,0.0,0.0,0.0,0.0,0.0,0.0,0.0,0.0,0.0,-5.0995,-5.1793,-5.2473,-5.2849,-5.2903,-5.2903,-5.2903,-5.2068,-5.1596,-5.1596,0.0,0.0,0.0,0.0,0.0,0.0,0.0,0.0,0.0,0.0,0.0,0.0,0.0,0.0,0.0,0.0,0.0,0.0,0.0,0.0,0.0,0.0,0.0,0.0,0.0,0.0,0.0,0.0,0.0,0.0,0.0,0.0,0.0,0.0,0.0,0.0,0.0,0.0,0.0,0.0,0.0,0.0,0.0,0.0,0.0,0.0,0.0,0.0,0.0,0.0,0.0,0.0,0.0,0.0,0.0,0.0,0.0,0.0,0.0,0.0,0.0,0.0,0.0,0.0,0.0,0.0,0.0,0.0,0.0,0.0,0.0,0.0,0.0,0.0,0.0,0.0,0.0,0.0,0.0,0.0,0.0,0.0,0.0,0.0,0.0,0.0,0.0,0.0,0.0,0.0,0.0,0.0,0.0,0.0,0.0,0.0,0.0,0.0,0.0,0.0,0.0,0.0,-5.1596,-5.1596,-5.1596,-5.1596,-5.1596,-5.1596,-5.1596,-5.1596,-5.1596,0.0,0.0,0.0,0.0,0.0,0.0,0.0,0.0,0.0,0.0,0.0,0.0,0.0,0.0,0.0,0.0,0.0,0.0,0.0,0.0,0.0,0.0,0.0,0.0,0.0,0.0,0.0,0.0,0.0,0.0,0.0,0.0,0.0,0.0,0.0,0.0,0.0,0.0,0.0,0.0,0.0,0.0,0.0,0.0,0.0,0.0,0.0,0.0,0.0,0.0,0.0,0.0,0.0,0.0,0.0,0.0,0.0,0.0,0.0,0.0,0.0,0.0,0.0,0.0,0.0,0.0,0.0,0.0,0.0,0.0,0.0,0.0,0.0,0.0,0.0,0.0,0.0,0.0,0.0,0.0,0.0,0.0,0.0,0.0,0.0,0.0,0.0,0.0,0.0,0.0,0.0,0.0,0.0,0.0,0.0,0.0,0.0,0.0,0.0,0.0,0.0,0.0,0.0,-5.1596,-5.1596,-5.1596,-5.1596,-5.1596,-5.1596,-5.1596,-5.1596,-5.1596,-5.1596,0.0,0.0,0.0,0.0,0.0,0.0,0.0,0.0,0.0,0.0,0.0,0.0,0.0,0.0,0.0,0.0,0.0,0.0,0.0,0.0,0.0,0.0,0.0,0.0,0.0,0.0,0.0,0.0,0.0,0.0,0.0,0.0,0.0,0.0,0.0,0.0,0.0,0.0,0.0,0.0,0.0,0.0,0.0,0.0,0.0,0.0,0.0,0.0,0.0,0.0,0.0,0.0,0.0,0.0,0.0,0.0,0.0,0.0,0.0,0.0,0.0,0.0,0.0,0.0,0.0,0.0,0.0,0.0,0.0,0.0,0.0,0.0,0.0,0.0,0.0,0.0,0.0,0.0,0.0,0.0,0.0,0.0,0.0,0.0,0.0,0.0,0.0,0.0,0.0,0.0,0.0,0.0,0.0,0.0,0.0,0.0,0.0,0.0,0.0,0.0,0.0,0.0,-5.1596,-5.1596,-5.1596,-5.1596,-5.1596,-5.1596,-5.1596,-5.1596,-5.1596,-5.1596,0.0,0.0,0.0,0.0,0.0,0.0,0.0,0.0,0.0,0.0,0.0,0.0,0.0,0.0,0.0,0.0,0.0,0.0,0.0,0.0,0.0,0.0,0.0,0.0,0.0,0.0,0.0,0.0,0.0,0.0,0.0,0.0,0.0,0.0,0.0,0.0,0.0,0.0,0.0,0.0,0.0,0.0,0.0,0.0,0.0,0.0,0.0,0.0,0.0,0.0,0.0,0.0,0.0,0.0,0.0,0.0,0.0,0.0,0.0,0.0,0.0,0.0,0.0,0.0,0.0,0.0,0.0,0.0,0.0,0.0,0.0,0.0,0.0,0.0,0.0,0.0,0.0,0.0,0.0,0.0,0.0,0.0,0.0,0.0,0.0,0.0,0.0,0.0,0.0,0.0,0.0,0.0,0.0,0.0,0.0,0.0,0.0,0.0,0.0,0.0,0.0,0.0,-5.1596,-5.1596,-5.1596,-5.1596,-5.1596,-5.1596,-5.1596,-5.1596,-5.1596,-5.1596,0.0,0.0,0.0,0.0,0.0,0.0,0.0,0.0,0.0,0.0,0.0,0.0,0.0,0.0,0.0,0.0,0.0,0.0,0.0,0.0,0.0,0.0,0.0,0.0,0.0,0.0,0.0,0.0,0.0,0.0,0.0,0.0,0.0,0.0,0.0,0.0,0.0,0.0,0.0,0.0,0.0,0.0,0.0,0.0,0.0,0.0,0.0,0.0,0.0,0.0,0.0,0.0,0.0,0.0,0.0,0.0,0.0,0.0,0.0,0.0,-5.4006,-5.3713,0.0,0.0,0.0,0.0,0.0,0.0,0.0,0.0,0.0,0.0,0.0,0.0,0.0,0.0,0.0,0.0,0.0,0.0,0.0,0.0,0.0,0.0,0.0,0.0,0.0,0.0,0.0,0.0,0.0,0.0,0.0,0.0,0.0,0.0,0.0,0.0,0.0,0.0,0.0,0.0,-5.1596,-5.1596,-5.1596,-5.1596,-5.1596,-5.1596,-5.1596,-5.1596,-5.1596,-5.1596,-5.1596,0.0,0.0,0.0,0.0,0.0,0.0,0.0,0.0,0.0,0.0,0.0,0.0,0.0,0.0,0.0,0.0,0.0,0.0,0.0,0.0,0.0,0.0,0.0,0.0,0.0,0.0,0.0,0.0,0.0,0.0,0.0,0.0,0.0,0.0,0.0,0.0,0.0,0.0,0.0,0.0,0.0,0.0,0.0,0.0,0.0,0.0,0.0,0.0,0.0,0.0,0.0,0.0,0.0,0.0,0.0,0.0,0.0,0.0,0.0,-5.3531,-5.332,0.0,0.0,0.0,0.0,0.0,0.0,0.0,0.0,0.0,0.0,0.0,0.0,0.0,0.0,0.0,0.0,0.0,0.0,0.0,0.0,0.0,0.0,0.0,0.0,0.0,0.0,0.0,0.0,0.0,0.0,0.0,0.0,0.0,0.0,0.0,0.0,0.0,0.0,0.0,0.0,-5.1596,-5.1596,-5.1596,-5.1596,-5.1596,-5.1596,-5.1596,-5.1596,-5.1596,-5.1596,-5.1596,0.0,0.0,0.0,0.0,0.0,0.0,0.0,0.0,0.0,0.0,0.0,0.0,0.0,0.0,0.0,0.0,0.0,0.0,0.0,0.0,0.0,0.0,0.0,0.0,0.0,0.0,0.0,0.0,0.0,0.0,0.0,0.0,0.0,0.0,0.0,0.0,0.0,0.0,0.0,0.0,0.0,0.0,0.0,0.0,0.0,0.0,0.0,0.0,0.0,0.0,0.0,0.0,0.0,-5.2918,-5.3174,-5.2268,-5.2827,-5.347,-5.3999,-5.3116,-5.3049,-5.3592,-5.3592,0.0,0.0,0.0,0.0,0.0,0.0,0.0,0.0,0.0,0.0,0.0,0.0,0.0,0.0,0.0,0.0,0.0,0.0,0.0,0.0,0.0,0.0,-5.1596,-5.1596,-5.1596,-5.1596,-5.1596,0.0,0.0,0.0,0.0,0.0,0.0,0.0,0.0,0.0,0.0,0.0,-5.1596,-5.1596,-5.1596,-5.1596,-5.1596,-5.1596,-5.1596,-5.1596,-5.1596,-5.1596,-5.1596,-5.1596,0.0,0.0,0.0,0.0,0.0,0.0,0.0,0.0,0.0,0.0,0.0,0.0,0.0,0.0,0.0,0.0,0.0,0.0,0.0,0.0,0.0,0.0,0.0,0.0,0.0,0.0,0.0,0.0,0.0,0.0,0.0,0.0,-4.8669,-4.8669,0.0,0.0,0.0,0.0,0.0,0.0,0.0,0.0,0.0,0.0,0.0,0.0,0.0,-5.0795,-5.1648,-5.0684,-5.0208,-5.0235,-5.0459,-5.0486,-5.0372,-5.0971,-5.1571,-5.2198,-5.2538,0.0,-5.3592,-5.3592,0.0,0.0,0.0,0.0,0.0,0.0,0.0,0.0,0.0,0.0,0.0,0.0,0.0,0.0,0.0,0.0,0.0,0.0,0.0,0.0,0.0,0.0,-5.1596,-5.1596,-5.1596,-5.1596,-5.1596,-5.1596,-5.1596,-5.1596,-5.1596,-5.1596,0.0,0.0,0.0,0.0,0.0,0.0,-5.1596,-5.1596,-5.1596,-5.1596,-5.1596,-5.1596,-5.1596,-5.1596,-5.1596,-5.1596,-5.1596,-5.1596,-5.1596,-5.1596,0.0,0.0,0.0,0.0,0.0,0.0,0.0,0.0,0.0,0.0,0.0,0.0,0.0,0.0,0.0,0.0,0.0,0.0,0.0,0.0,0.0,0.0,0.0,0.0,0.0,0.0,0.0,0.0,0.0,-4.8611,-4.8172,-4.8172,-4.8172,-4.8257,0.0,0.0,0.0,0.0,0.0,0.0,0.0,0.0,0.0,-5.1293,-5.1072,-5.0906,-5.074,-5.0264,-5.001,-5.001,-5.0335,-5.0525,-5.0525,-5.115,-5.1747,-5.2343,-5.2615,-5.3049,-5.3592,-5.3592,-5.3592,-5.3592,0.0,0.0,0.0,0.0,-5.2465,-5.2245,-5.1783,-5.1596,-5.1596,-5.1596,0.0,0.0,0.0,0.0,0.0,0.0,0.0,-5.1596,-5.1596,-5.1596,-5.1596,-5.1596,-5.1596,-5.1596,-5.1596,-5.1596,-5.1596,-5.1596,-5.1596,-5.1596,-5.1596,-5.1596,0.0,0.0,0.0,-5.1596,-5.1596,-5.1596,-5.1596,-5.1596,-5.1596,-5.1596,-5.1596,-5.1596,-5.1596,-5.1596,-5.1596,-5.1596,-5.1596,-5.1596,-5.1596,0.0,0.0,0.0,0.0,0.0,0.0,0.0,0.0,0.0,0.0,0.0,0.0,0.0,0.0,0.0,0.0,0.0,0.0,0.0,0.0,0.0,0.0,0.0,0.0,0.0,0.0,0.0,0.0,-4.9103,-4.8172,-4.8172,-4.8315,-4.8431,0.0,0.0,0.0,0.0,0.0,0.0,-4.9727,-5.0684,-5.0906,-5.001,-5.0795,-5.0851,-5.001,-5.001,-5.0091,-5.0254,-5.0688,-5.0987,-5.115,-5.1774,-5.2289,-5.2723,-5.2859,-5.3185,-5.3592,-5.3592,-5.3592,-5.3592,-5.3592,-5.347,-5.3193,-5.2861,-5.2553,-5.2183,-5.1846,-5.1659,-5.1596,-5.1596,-5.1596,-5.1596,-5.1596,0.0,0.0,0.0,0.0,-5.1596,-5.1596,-5.1596,-5.1596,-5.1596,-5.1596,-5.1596,-5.1596,-5.1596,-5.1596,-5.1596,-5.1596,-5.1596,-5.1596,-5.1596,0.0,-5.1596,-5.1596,-5.1596,-5.1596,-5.1596,-5.1596,-5.1596,-5.1596,-5.1596,-5.1596,-5.1596,-5.1596,-5.1596,-5.1596,-5.1596,-5.1596,-5.1596,-5.1596,-5.1596,0.0,0.0,0.0,0.0,0.0,0.0,0.0,0.0,0.0,0.0,0.0,0.0,0.0,0.0,0.0,0.0,0.0,0.0,0.0,0.0,0.0,0.0,0.0,0.0,0.0,0.0,0.0,0.0,0.0,-4.8172,-4.8489,0.0,0.0,0.0,0.0,-4.9556,-4.9897,-5.0066,-4.9953,-5.0066,-5.0066,-5.001,-5.0066,-5.0066,-5.001,-5.001,-5.0308,-5.0851,-5.0878,-5.1204,-5.1801,-5.2398,-5.2696,-5.275,-5.332,-5.3565,-5.3592,-5.3592,-5.3592,-5.3592,-5.3592,-5.3592,-5.3531,-5.3193,-5.2861,-5.2527,-5.2183,-5.1872,-5.1596,-5.1596,-5.1596,-5.1596,-5.1596,-5.1596,0.0,0.0,-5.1596,-5.1596,-5.1596,-5.1596,-5.1596,-5.1596,-5.1596,-5.1596,-5.1596,-5.1596,-5.1596,-5.1596,-5.1596,-5.1596,-5.1596,0.0,-5.1596,-5.1596,-5.1596,-5.1596,-5.1596,-5.1596,-5.1596,-5.1596,-5.1596,-5.1596,-5.1596,-5.1596,-5.1596,-5.1596,-5.1596,-5.1596,-5.1596,-5.1596,-5.1596,-5.1596,-5.1596,0.0,0.0,0.0,0.0,0.0,0.0,0.0,0.0,0.0,0.0,0.0,0.0,0.0,0.0,0.0,0.0,0.0,0.0,0.0,0.0,0.0,0.0,0.0,0.0,0.0,0.0,0.0,0.0,-4.8172,-4.8315,0.0,-4.8895,-4.9125,-4.9469,-4.984,-4.9953,-5.001,-5.001,-5.001,-5.001,-5.001,-5.001,-5.001,-5.001,-5.001,-5.0308,-5.0905,-5.1312,-5.1828,-5.2425,-5.3022,-5.3293,-5.3293,-5.351,-5.3592,-5.3592,-5.3592,-5.3592,-5.3592,-5.3592,-5.3592,-5.3531,-5.2983,-5.2738,-5.2527,-5.197,-5.1721,-5.1596,-5.1596,-5.1596,-5.1596,-5.1596,-5.1596,-5.1596,-5.1596,-5.1596,-5.1596,-5.1596,-5.1596,-5.1596,-5.1596,-5.1596,-5.1596,-5.1596,-5.1596,-5.1596,-5.1596,-5.1596,-5.1596,-5.1596,-5.1596,-5.1596,-5.1596,-5.1596,-5.1596,-5.1596,-5.1596,-5.1596,-5.1596,-5.1596,-5.1596,-5.1596,-5.1596,-5.1596,-5.1596,-5.1596,-5.1596,-5.1596,-5.1596,-5.1596,-5.1596,-5.1596,-5.1596,0.0,0.0,0.0,0.0,0.0,0.0,0.0,0.0,0.0,0.0,0.0,0.0,0.0,0.0,0.0,0.0,0.0,0.0,0.0,0.0,0.0,0.0,0.0,0.0,0.0,-4.8957,-4.8172,-4.8172,-4.8726,-4.9072,-4.9125,-4.9613,-4.9983,-5.001,-5.001,-5.001,-5.001,-5.001,-5.001,-5.001,-5.001,-5.001,-5.001,-5.02,-5.0607,-5.1231,-5.1828,-5.2452,-5.3022,-5.3429,-5.3592,-5.3592,-5.3592,-5.3592,-5.3592,-5.3592,-5.3592,-5.3592,-5.3592,-5.3592,-5.3531,-5.3105,-5.2773,-5.2465,-5.1846,-5.1596,-5.1596,-5.1596,-5.1596,-5.1596,-5.1596,-5.1596,-5.1596,-5.1596,-5.1596,-5.1596,-5.1596,-5.1596,-5.1596,-5.1596,-5.1596,-5.1596,-5.1596,-5.1596,-5.1596,-5.1596,-5.1596,-5.1596,-5.1596,-5.1596,-5.1596,-5.1596,-5.1596,-5.1596,-5.1596,-5.1596,-5.1596,-5.1596,-5.1596,-5.1596,-5.1596,-5.1596,-5.1596,-5.1596,-5.1596,-5.1596,-5.1596,-5.1596,-5.1596,-5.1596,-5.1596,-5.1596,-5.1596,0.0,0.0,0.0,0.0,0.0,0.0,0.0,0.0,0.0,0.0,0.0,0.0,0.0,0.0,0.0,0.0,0.0,0.0,0.0,0.0,0.0,0.0,0.0,-4.9958,-4.8957,-4.823,-4.823,-4.9702,-5.0322,-4.924,-5.0684,-5.121,-5.0123,-5.001,-5.0066,-5.0066,-5.001,-5.001,-5.0123,-5.0066,-5.001,-5.0093,-5.0607,-5.1231,-5.1882,-5.2452,-5.3022,-5.3592,-5.3592,-5.3592,-5.3592,-5.3592,-5.3592,-5.3592,-5.3592,-5.3592,-5.3592,-5.3592,-5.3592,-5.3592,-5.3592,-5.3166,-5.2465,-5.1846,-5.1596,-5.1596,-5.1596,-5.1596,-5.1596,-5.1596,-5.1596,-5.1596,-5.1596,-5.1596,-5.1596,-5.1596,-5.1596,-5.1596,-5.1596,-5.1596,-5.1596,-5.1596,-5.1596,-5.1596,-5.1596,-5.1596,-5.1596,-5.1596,-5.1596,-5.1596,-5.1596,-5.1596,0.0,-5.1596,-5.1596,-5.1596,-5.1596,-5.1596,-5.1596,-5.1596,-5.1596,-5.1596,-5.1596,-5.1596,-5.1596,-5.1596,-5.1596,-5.1596,-5.1596,-5.1596,-5.1596,-5.1596,0.0,0.0,0.0,0.0,0.0,0.0,0.0,0.0,0.0,0.0,0.0,0.0,0.0,0.0,0.0,0.0,0.0,0.0,0.0,0.0,0.0,-5.0219,-5.0072,-5.1071,-4.9445,-4.8579,-4.9673,-4.9472,-4.9328,-4.9469,-5.0628,-5.1017,-5.0066,-5.074,-5.121,-5.121,-5.0432,-5.0767,-5.2405,-5.0851,-5.0595,-5.185,-5.1254,-5.1421,-5.2479,-5.2642,-5.3022,-5.3592,-5.3592,-5.3592,-5.3592,-5.3592,-5.3592,-5.3592,-5.3592,-5.3592,-5.3592,-5.3592,-5.3592,-5.3592,-5.3349,-5.2799,-5.2183,-5.1721,-5.1596,-5.1596,-5.1596,-5.1596,-5.1596,-5.1596,-5.1596,-5.1596,-5.1596,-5.1596,-5.1596,-5.1596,-5.1596,-5.1596,-5.1596,-5.1596,-5.1596,-5.1596,-5.1596,-5.1596,-5.1596,-5.1596,-5.1596,-5.1596,-5.1596,-5.1596,-5.1596,-5.1596,-5.1596,-5.1596,-5.1596,-5.1596,-5.1596,-5.1596,-5.1596,-5.1596,-5.1596,-5.1596,-5.1596,-5.1596,-5.1596,-5.1596,-5.1596,-5.1596,-5.1596,-5.1596,-5.1596,0.0,0.0,0.0,0.0,0.0,0.0,0.0,0.0,0.0,0.0,0.0,0.0,0.0,0.0,0.0,0.0,0.0,0.0,0.0,0.0,0.0,0.0,-4.9872,-5.0501,-5.0572,-4.9407,-4.9007,-5.0238,-4.9899,-4.9956,-5.0879,-5.1702,-5.1974,-5.1457,-5.2028,-5.2377,-5.2377,-5.1757,-5.2028,-5.3361,-5.2136,-5.2066,-5.3345,-5.2938,-5.3246,-5.4224,-5.3979,-5.3988,-5.4318,-5.3833,-5.3592,-5.3592,-5.3592,-5.3592,-5.3592,-5.3592,-5.3592,-5.3592,0.0,0.0,0.0,0.0,-5.2553,-5.2059,-5.1721,-5.1596,-5.1596,-5.1596,-5.1596,-5.1596,-5.1596,-5.1596,-5.1596,-5.1596,-5.1596,-5.1596,-5.1596,-5.1596,-5.1596,-5.1596,-5.1596,-5.1596,-5.1596,-5.1805,-5.1962,-5.1962,-5.2171,0.0,-5.2354,-5.1936,-5.1596,-5.1596,-5.1596,-5.1596,-5.1596,-5.1596,-5.1596,-5.1596,-5.1596,-5.1596,-5.1596,-5.1596,0.0,0.0,0.0,-5.1596,-5.1596,-5.1596,0.0,0.0,0.0,-5.1596,-5.1596,-5.1596,0.0,0.0,-5.1439,-5.1413,0.0,0.0,0.0,0.0,0.0,0.0,0.0,0.0,0.0,0.0,0.0,0.0,0.0,0.0,0.0,0.0,-5.0096,-5.1001,-4.9419,-4.9337,-4.9693,-5.0463,-5.0823,-5.1537,-5.2828,-5.3332,-5.3518,-5.3413,-5.3518,-5.3571,-5.3571,-5.3466,0.0,0.0,0.0,-5.3873,-5.4672,-5.5151,-5.5736,-5.6374,-5.5708,-5.5442,-5.5558,-5.4318,-5.3833,-5.3833,-5.3833,-5.3713,-5.3592,-5.3592,-5.3592,-5.3592,-5.3531,-5.3531,-5.347,-5.2773,-5.2368,-5.2059,-5.1721,0.0,0.0,-5.1596,-5.1596,-5.1596,-5.1596,-5.1596,-5.1596,-5.1596,-5.1648,-5.1701,-5.1701,-5.1753,-5.1805,-5.1805,-5.1805,-5.1805,-5.1805,-5.2223,-5.2589,-5.2589,-5.3034,-5.34,-5.34,-5.2511,-5.1805,-5.1805,-5.1805,-5.1805,-5.1805,-5.1805,-5.1805,-5.1805,-5.1805,0.0,-5.1805,-5.1727,-5.1701,-5.1701,-5.1622,-5.1596,-5.1596,-5.1596,-5.1596,-5.1596,-5.1596,-5.1596,-5.1596,-5.1596,-5.1596,-5.1596,-5.1596,-5.1596,0.0,0.0,0.0,0.0,0.0,0.0,0.0,0.0,0.0,0.0,0.0,0.0,0.0,0.0,0.0,-4.8517,-5.0295,-5.1522,-4.9904,-5.1043,-5.2086,-5.2048,-5.2348,-5.2722,-5.3227,-5.4193,-5.4399,-5.3466,-5.4245,-5.4756,-5.4756,-5.3883,-5.4245,-5.6066,-5.4849,-5.4967,-5.6459,-5.6255,-5.6459,-5.7013,-5.5907,0.0,-5.6792,-5.5616,-5.506,-5.506,-5.506,-5.4497,-5.3592,-5.3592,-5.3592,-5.3592,-5.3288,-5.3193,-5.3132,-5.243,-5.2183,-5.2059,-5.1721,-5.1596,-5.1596,-5.1596,-5.1596,-5.1596,-5.1596,-5.1596,0.0,-5.1596,-5.1936,-5.2328,-5.2328,-5.2694,-5.3034,-5.3034,-5.3034,-5.3034,-5.3034,-5.3138,-5.3217,-5.3217,-5.3321,-5.34,-5.34,-5.3191,-5.3034,-5.3034,-5.3034,-5.3034,-5.3034,-5.3034,-5.3034,-5.3034,-5.3034,-5.3034,-5.3034,-5.2616,-5.2328,-5.2328,-5.1858,-5.1596,-5.1596,-5.1596,-5.1596,-5.1596,-5.1596,-5.1596,-5.1596,-5.1596,-5.1596,-5.1596,-5.1596,-5.1596,0.0,0.0,0.0,0.0,0.0,0.0,0.0,0.0,0.0,0.0,0.0,-4.9853,-5.0035,0.0,-4.9779,-4.8647,-5.0138,-5.1137,-5.042,-5.2252,-5.3638,-5.3402,-5.3093,-5.3512,-5.4988,-5.5089,-5.5089,-5.5089,-5.562,-5.5967,-5.5967,-5.5722,-5.6104,-5.7254,-5.6869,-5.7196,-5.8407,-5.8189,-5.8351,-5.9009,-5.7775,-5.7552,-5.8051,-5.6849,-5.6308,-5.6308,-5.6308,-5.5964,-5.5353,-5.5067,-5.4798,-5.4453,-5.4117,-5.352,-5.2799,-5.2492,-5.2121,-5.1836,-5.1999,-5.204,-5.2093,-5.2406,-5.2485,-5.2485,-5.2485,-5.2485,-5.2485,-5.2485,-5.272,-5.2955,-5.2955,-5.3164,-5.34,-5.34,-5.34,-5.34,-5.34,-5.3609,-5.3792,-5.3792,-5.4053,-5.4262,-5.4262,-5.4262,-5.4053,-5.3478,-5.34,-5.34,-5.34,-5.34,-5.34,-5.34,-5.34,-5.34,-5.34,-5.3112,-5.2955,-5.2955,-5.238,-5.204,-5.204,-5.1753,-5.1596,-5.1596,-5.1596,-5.1596,-5.1596,-5.1596,-5.1596,-5.1596,-5.1596,-5.1596,0.0,0.0,0.0,0.0,0.0,0.0,0.0,-5.022,-4.9883,-5.0728,-4.9484,-4.8596,-4.9415,-4.9042,-4.8795,-4.9246,-5.0306,-5.1199,-5.1428,-5.3419,-5.4799,-5.4595,-5.398,-5.442,-5.6585,-5.5967,-5.5819,-5.6713,-5.6933,-5.6994,-5.6994,-5.7641,-5.7962,-5.7962,-5.8608,-5.9224,-5.9778,-5.9932,-6.027,-6.0794,-5.9576,-5.9117,-5.9332,-5.8225,-5.7727,-5.7727,-5.7619,-5.7565,-5.7537,-5.7078,-5.6577,-5.6101,-5.5792,-5.4697,-5.3278,-5.2997,-5.2437,-5.2014,-5.2511,-5.2668,-5.2746,-5.3243,-5.34,-5.34,-5.34,-5.34,-5.34,-5.34,-5.3478,-5.3556,-5.3556,-5.3635,-5.3739,-5.3739,-5.3739,-5.3739,-5.3739,-5.4079,-5.4367,-5.4367,-5.4759,-5.5099,-5.5099,-5.5099,-5.4785,-5.387,-5.3739,-5.3739,-5.3739,-5.3739,-5.3739,-5.3739,-5.3739,-5.3687,-5.3556,-5.3556,-5.3504,-5.34,-5.2929,-5.2668,-5.2668,-5.2093,-5.1779,-5.1779,-5.1648,-5.1596,-5.1596,-5.1596,-5.1596,-5.1596,-5.1596,-5.1596,-5.0057,-5.0662,-5.1058,-5.1182,-5.1229,-5.0964,0.0,-4.9659,-4.9611,-4.9757,-4.9562,-4.9464,-4.9562,-5.0268,-5.0714,-5.0481,-5.1807,-5.3128,-5.3724,-5.4999,-5.5838,-5.58,-5.5948,-5.6244,-5.6761,-5.6713,-5.6664,-5.681,-5.7364,-5.7703,-5.7703,-5.83,-5.867,-5.867,-5.9316,-5.9716,-5.9778,-6.0393,-6.0732,-6.0794,-5.9576,-5.9546,-6.0586,-5.9934,-5.9682,-5.9657,-5.9154,-5.9015,-5.8958,-5.89,-5.8871,-5.8754,-5.8459,-5.7334,-5.5703,-5.4287,-5.3512,-5.3217,-5.3269,-5.3295,-5.3295,-5.3373,-5.34,-5.34,-5.34,-5.34,-5.34,-5.34,-5.3739,-5.4105,-5.4105,-5.4497,-5.4916,-5.4916,-5.4916,-5.4916,-5.4916,-5.4968,-5.4994,-5.4994,-5.5046,-5.5099,-5.5099,-5.5099,-5.5072,-5.4942,-5.4916,-5.4916,-5.4916,-5.4916,-5.4916,-5.4916,-5.4916,-5.4707,-5.4158,-5.4105,-5.3896,-5.3426,-5.3347,-5.3295,-5.3295,-5.272,-5.2406,-5.2406,-5.1858,-5.1596,-5.1596,-5.1596,-5.1596,-5.1596,-5.1596,-5.1596,-5.0757,-5.1041,-5.1229,-5.1229,-5.1229,-5.1058,-5.0603,-5.0076,-4.9757,-5.0412,-4.9562,-4.9042,-5.0316,-5.0174,-5.0365,-5.1876,-5.2526,-5.3305,-5.457,-5.535,-5.583,-5.5979,-5.6225,-5.6519,-5.6761,-5.681,-5.6964,-5.7364,-5.7672,-5.798,-5.8331,-5.9008,-5.9378,-5.9378,-6.0024,-6.0363,-6.0363,-6.0671,-6.1009,-6.1379,-6.0874,-6.1088,-6.1994,-6.1729,-6.1636,-6.1612,-6.1418,-6.1108,-6.0755,-6.0755,-6.0558,-6.0206,-5.9967,-5.8795,-5.7079,-5.5545,-5.4347,-5.3452,-5.3766,-5.387,-5.3922,-5.4288,-5.4393,-5.4393,-5.4393,-5.4393,-5.4393,-5.4393,-5.455,-5.4733,-5.4733,-5.4916,-5.5099,-5.5099,-5.5099,-5.5099,-5.5099,-5.5099,-5.5099,-5.5099,-5.5099,-5.5099,-5.5099,-5.5099,-5.5099,-5.5099,-5.5099,-5.5099,-5.5099,-5.5099,-5.5099,-5.5099,-5.5099,-5.4994,-5.4759,-5.4733,-5.4628,-5.4393,-5.4053,-5.387,-5.387,-5.3321,-5.3008,-5.3008,-5.2772,-5.2459,-5.2119,-5.2119,-5.1936,-5.1596,-5.1596,-5.1596,-5.1088,-5.1229,-5.1229,-5.1229,-5.1229,-5.1229,-5.1229,-5.0632,-5.0268,-5.1011,-4.995,-4.9337,-5.0917,-5.0506,-5.0622,-5.286,-5.3118,-5.3567,-5.4988,-5.5481,-5.578,-5.5979,-5.6323,-5.6629,-5.7038,-5.7087,-5.7303,-5.7795,-5.8165,-5.8547,-5.9039,-5.9686,-6.0086,-6.0086,-6.0547,-6.0886,-6.1071,-6.1071,-6.1409,-6.2086,-6.2086,-6.2333,-6.2825,-6.301,-6.3195,-6.3379,-6.3379,-6.3134,-6.2751,-6.2751,-6.248,-6.2027,-6.1673,-6.0537,-5.8924,-5.7746,-5.579,-5.3922,-5.4314,-5.4445,-5.4524,-5.4968,-5.5099,-5.5099,-5.5099,-5.5099,-5.5099,-5.5099,-5.5099,-5.5099,-5.5099,-5.5099,-5.5099,-5.5099,-5.5099,-5.5099,-5.5099,-5.5099,-5.5099,-5.5099,-5.5099,-5.5099,-5.5099,-5.5099,-5.5099,-5.5099,-5.5099,-5.5099,-5.5099,-5.5099,-5.5099,-5.5099,-5.5099,-5.5099,-5.5099,-5.5099,-5.5099,-5.5099,-5.468,-5.4445,-5.4445,-5.3922,-5.3609,-5.3609,-5.3478,-5.3191,-5.2746,-5.2746,-5.2511,-5.2093,-5.2093,-5.2093,-5.1135,-5.1229,-5.1229,-5.1229,-5.1229,-5.1229,-5.1229,-5.1182,-5.1182,-5.1182,-5.1152,-5.1105,-5.1182,-5.169,-5.2348,-5.3084,-5.3773,-5.4381,-5.5089,-5.5631,-5.5979,-5.5979,-5.647,-5.7087,-5.7734,-5.7795,-5.7795,-5.7826,-5.8978,-5.9747,-5.9747,-6.0393,-6.0763,-6.0763,-6.0794,-6.1101,-6.1779,-6.1779,-6.2117,-6.2794,-6.2794,-6.2794,-6.2825,-6.3502,-6.418,-6.4826,-6.4826,-6.4857,-6.4802,-6.4802,-6.4802,-6.4721,-6.4162,-6.3047,-6.1821,-6.1139,-5.8411,-5.5046,-5.5072,-5.5072,-5.5072,-5.5099,-5.5099,-5.5099,-5.5099,-5.5099,-5.5099,-5.5099,-5.5099,-5.5099,-5.5099,-5.5099,-5.5099,-5.5099,-5.5099,-5.5099,-5.5099,-5.5099,-5.5099,-5.5099,-5.5099,-5.5099,-5.5099,-5.5099,-5.5099,-5.5099,-5.5099,-5.5099,-5.5099,-5.5099,-5.5099,-5.5099,-5.5099,-5.5099,-5.5099,-5.5099,-5.5099,-5.5099,-5.5072,-5.5072,-5.5072,-5.4497,-5.4184,-5.4184,-5.3661,-5.34,-5.3373,-5.3373,-5.3347,-5.3347,-5.3347,-5.3347,-5.1182,-5.1229,-5.1229,-5.1229,-5.1229,-5.1229,-5.1229,-5.1229,-5.1229,-5.1229,-5.1558,-5.1858,-5.1858,-5.2785,-5.3593,-5.3832,-5.4431,-5.499,-5.5401,-5.578,-5.6077,-5.6225,-5.6966,-5.758,-5.7795,-5.7826,-5.8146,-5.9039,-5.9532,-5.9993,-6.0424,-6.0671,-6.0794,-6.0794,-6.1225,-6.1563,-6.1809,-6.224,-6.2825,-6.3502,-6.3964,-6.418,-6.421,-6.4426,-6.4672,-6.4888,-6.4888,-6.4888,-6.4888,-6.4888,-6.4777,-6.4524,-6.4162,-6.3047,-6.1615,-6.1257,-5.965,-5.777,-5.777,-5.777,-5.777,-5.777,-5.7157,-5.6405,-5.6405,-5.5776,-5.5099,-5.5099,-5.5099,-5.5099,-5.5099,-5.5099,-5.5099,-5.5099,-5.5099,-5.5099,-5.5099,-5.5099,-5.5099,-5.5099,-5.5099,-5.5099,-5.5099,-5.5099,-5.5099,-5.5099,-5.5099,-5.5099,-5.5099,-5.5099,-5.5099,-5.5099,-5.5099,-5.5099,-5.5099,-5.5099,-5.5099,-5.5099,-5.5099,-5.5099,-5.5099,-5.4916,-5.4811,-5.4811,-5.4628,-5.4341,-5.3922,-5.3922,-5.3739,-5.34,-5.34,-5.34,-5.1229,-5.1229,-5.1229,-5.1229,-5.1229,-5.1229,-5.1229,-5.1229,-5.1229,-5.1229,-5.1738,-5.2187,-5.2187,-5.3294,-5.4221,-5.4221,-5.486,-5.5381,-5.5581,-5.5929,-5.6317,-5.6708,-5.7353,-5.8011,-5.8504,-5.8485,-5.8854,-5.9716,-6.0024,-6.0332,-6.0763,-6.0794,-6.0917,-6.1163,-6.1594,-6.2025,-6.2517,-6.2948,-6.3533,-6.421,-6.4672,-6.4888,-6.4888,-6.4888,-6.4888,-6.4888,-6.4888,-6.4888,-6.4888,-6.4888,-6.4691,-6.4382,-6.4075,-6.3249,-6.2204,-6.1939,-6.1257,-6.0323,-5.8877,-5.8376,-5.8313,-5.7834,-5.7092,-5.6405,-5.6405,-5.5776,-5.5099,-5.5099,-5.5099,-5.5099,-5.5099,-5.5099,-5.5099,-5.5099,-5.5099,-5.5099,-5.5099,-5.5099,-5.5099,-5.5099,-5.5099,-5.5099,-5.5099,-5.5099,-5.5099,-5.5099,-5.5099,-5.5099,-5.5099,-5.5099,-5.5099,-5.5099,-5.5099,-5.5099,-5.5099,-5.5099,-5.5099,-5.5099,-5.5099,-5.5099,-5.5099,-5.5099,-5.5099,-5.5099,-5.5099,-5.4916,-5.4524,-5.4524,-5.4341,-5.4001,-5.4001,-5.4001,-5.1229,-5.1229,-5.1229,-5.1229,-5.1229,-5.1229,-5.1229,-5.1229,-5.1229,-5.1229,-5.1768,-5.2247,-5.2247,-5.3354,-5.4251,-5.4251,-5.504,-5.5581,-5.5631,-5.6108,-5.6696,-5.7339,-5.774,-5.8362,-5.9655,-5.9809,-5.9839,-5.9839,-6.0424,-6.0794,-6.0794,-6.0824,-6.1132,-6.1779,-6.1871,-6.2517,-6.381,-6.3872,-6.4241,-6.4888,-6.4888,-6.4888,-6.4888,-6.4888,-6.4888,-6.4888,-6.4888,-6.4888,-6.4888,-6.4888,-6.4691,-6.4326,-6.4075,-6.3823,-6.3481,-6.3194,-6.3079,-6.2555,-5.8655,-5.7322,-5.7221,-5.5908,-5.5472,-5.5405,-5.5405,-5.5339,-5.5299,-5.5299,-5.5299,-5.5299,-5.5232,-5.5232,-5.5165,-5.5099,-5.5099,-5.5099,-5.5099,-5.5099,-5.5099,-5.5099,-5.5099,-5.5099,-5.5099,-5.5099,-5.5099,-5.5099,-5.5099,-5.5099,-5.5099,-5.5099,-5.5099,-5.5099,-5.5099,-5.5099,-5.5099,-5.5099,-5.5099,-5.5099,-5.5099,-5.5099,-5.5099,-5.5099,-5.5099,-5.5099,-5.5099,-5.5099,-5.5099,-5.5099,-5.5099,-5.5099,-5.5099,-5.5099,-5.1229,-5.1229,-5.1229,-5.1229,-5.1229,-5.1229,-5.1229,-5.1229,-5.1229,-5.1229,-5.2127,-5.2935,-5.2935,-5.4042,-5.494,-5.494,-5.531,-5.5681,-5.588,-5.6602,-5.7266,-5.7648,-5.867,-5.9408,-5.9747,-6.024,-6.0547,-6.0547,-6.0701,-6.0794,-6.0794,-6.1286,-6.1625,-6.1809,-6.2794,-6.3472,-6.3841,-6.4364,-6.4703,-6.4888,-6.4888,-6.4888,-6.4888,-6.4888,-6.4888,-6.4888,-6.4888,-6.4888,-6.4888,-6.4888,-6.461,-6.4106,-6.4049,-6.3652,-6.3194,-6.3137,-6.3079,-6.2817,-6.0776,-6.0716,-6.1524,-6.1137,-6.0413,-5.9588,-5.9588,-5.8905,-5.8088,-5.8088,-5.8088,-5.7834,-5.6834,-5.6601,-5.634,-5.5365,-5.5099,-5.5099,-5.5099,-5.5099,-5.5099,-5.5099,-5.5099,-5.5099,-5.5099,-5.5099,-5.5099,-5.5099,-5.5099,-5.5099,-5.5099,-5.5099,-5.5099,-5.5099,-5.5099,-5.5099,-5.5099,-5.5099,-5.5099,-5.5099,-5.5099,-5.5099,-5.5099,-5.5099,-5.5099,-5.5099,-5.5099,-5.5099,-5.5099,-5.5099,-5.5099,-5.5099,-5.5099,-5.5099,-5.1229,-5.1229,-5.1229,-5.1229,-5.1229,-5.1229,-5.1229,-5.1229,-5.1289,-5.1588,-5.2456,-5.3264,-5.3563,-5.4491,-5.5229,-5.533,-5.5581,-5.588,-5.6127,-5.7002,-5.7721,-5.8177,-5.9131,-5.9901,-6.0209,-6.0578,-6.0794,-6.0794,-6.0794,-6.0917,-6.1225,-6.1594,-6.2086,-6.2671,-6.3441,-6.3964,-6.4303,-6.4703,-6.4888,-6.4888,-6.4888,-6.4888,-6.4888,-6.4888,-6.4888,-6.4888,-6.4888,-6.4888,-6.4888,-6.4888,-6.4554,-6.3993,-6.3993,-6.3652,-6.3079,-6.3079,-6.3079,-6.3021,-6.2263,-6.2468,-6.2905,-6.1762,-6.0837,-6.0202,-6.0202,-5.9683,-5.9127,-5.9127,-5.9127,-5.894,-5.8186,-5.7961,-5.777,-5.7028,-5.6834,-5.6834,-5.6834,-5.6834,-5.6834,-5.6834,-5.6405,-5.6144,-5.6769,-5.5908,-5.5299,-5.5908,-5.5472,-5.5099,-5.5099,-5.5099,-5.5099,-5.5099,-5.5099,-5.5099,-5.5099,-5.5099,-5.5099,-5.5099,-5.5099,-5.5099,-5.5099,-5.5099,-5.5099,-5.5099,-5.5099,-5.5099,-5.5099,-5.5099,-5.5099,-5.5099,-5.5099,-5.5099,-5.1229,-5.1229,-5.1229,-5.1229,-5.1229,-5.1229,-5.1229,-5.1229,-5.1409,-5.2067,-5.2725,-5.3384,-5.4072,-5.481,-5.533,-5.5531,-5.583,-5.6127,-5.6323,-5.7261,-5.8165,-5.8701,-5.947,-6.0147,-6.0732,-6.0794,-6.0794,-6.0794,-6.0886,-6.1194,-6.1779,-6.1902,-6.2579,-6.3933,-6.3964,-6.4272,-6.4888,-6.4888,-6.4888,-6.4888,-6.4888,-6.4888,-6.4888,-6.4888,-6.4888,-6.4888,-6.4888,-6.4888,-6.4888,-6.4888,-6.4554,-6.3993,-6.3993,-6.3652,-6.3079,-6.3079,-6.3079,-6.3079,-6.3079,-6.3079,-6.2701,-6.0384,-5.9622,-5.9622,-5.9622,-5.9622,-5.9622,-5.9622,-5.9622,-5.956,-5.9375,-5.9375,-5.9313,-5.9127,-5.9127,-5.9127,-5.9127,-5.9127,-5.9127,-5.9127,-5.8151,-5.7706,-5.8877,-5.7157,-5.6039,-5.7221,-5.6405,-5.567,-5.567,-5.5299,-5.5099,-5.5099,-5.5099,-5.5099,-5.5099,-5.5099,-5.5099,-5.5099,-5.5099,-5.5099,-5.5099,-5.5099,-5.5099,-5.5099,-5.5099,-5.5099,-5.5099,-5.5099,-5.5099,-5.5099,-5.5099,-5.5099,-5.1229,-5.1229,-5.1229,-5.1229,-5.1229,-5.1229,-5.1229,-5.1229,-5.1409,-5.2067,-5.2725,-5.3384,-5.4072,-5.493,-5.5481,-5.528,-5.588,-5.6274,-5.6077,-5.7542,-5.8639,-5.8762,-5.987,-6.0671,-6.0794,-6.0794,-6.0794,-6.0794,-6.1317,-6.1686,-6.1809,-6.2333,-6.3287,-6.4672,-6.4703,-6.4764,-6.4888,-6.4888,-6.4888,-6.4888,-6.4888,-6.4888,-6.4888,-6.4888,-6.4888,-6.4888,-6.4888,-6.4888,-6.4888,-6.4888,-6.4554,-6.3993,-6.3993,-6.3652,-6.3079,-6.3079,-6.3079,-6.3079,-6.3079,-6.3079,-6.3021,-6.2585,-6.238,-6.238,-6.238,-6.238,-6.238,-6.238,-6.238,-6.2145,-6.1017,-6.0776,-6.0445,-5.9375,-5.9127,-5.9127,-5.9127,-5.9127,-5.9127,-5.9127,-5.8877,-5.8815,-5.9064,-5.869,-5.8502,-5.869,-5.8564,-5.8376,-5.8376,-5.6471,-5.5099,-5.5099,-5.5099,-5.5099,-5.5099,-5.5099,-5.5099,-5.5099,-5.5099,-5.5099,-5.5099,-5.5099,-5.5099,-5.5099,-5.5099,-5.5099,-5.5099,-5.5099,-5.5099,-5.5099,-5.5099,-5.5099,-5.1229,-5.1229,-5.1229,-5.1229,-5.1229,-5.1229,-5.1229,-5.1498,-5.1917,-5.2576,-5.3234,-5.3972,-5.478,-5.532,-5.5631,-5.578,-5.6176,-5.6543,-5.688,-5.7997,-5.8916,-5.9255,-6.0178,-6.0794,-6.0794,-6.0794,-6.0948,-6.1286,-6.1625,-6.1963,-6.2302,-6.3318,-6.421,-6.4888,-6.4888,-6.4888,-6.4888,-6.4888,-6.4888,-6.4888,-6.4888,-6.4888,-6.4888,-6.4888,-6.4888,-6.4888,-6.4888,-6.4888,-6.4888,-6.4691,-6.4356,-6.3993,-6.3823,-6.3481,-6.3079,-6.3079,-6.3079,-6.3079,-6.3079,-6.3079,-6.3079,-6.3079,-6.3079,-6.3019,-6.266,-6.281,-6.3019,-6.266,-6.281,-6.2963,-6.2321,-6.2145,-6.1969,-6.1316,-6.1197,-6.1197,-6.1197,-6.1197,-6.1197,-6.1197,-6.0627,-6.0384,-6.1077,-5.999,-5.9313,-6.0018,-5.956,-5.9127,-5.9127,-5.7961,-5.7221,-5.7221,-5.7221,-5.7221,-5.7221,-5.6536,-5.617,-5.617,-5.5472,-5.5099,-5.5099,-5.5099,-5.5099,-5.5099,-5.5099,-5.5099,-5.5099,-5.5099,-5.5099,-5.5099,-5.5099,-5.5099,-5.1229,-5.1229,-5.1259,-5.1379,-5.1439,-5.1468,-5.1618,-5.2037,-5.2606,-5.3264,-5.3832,-5.45,-5.541,-5.5631,-5.583,-5.6274,-5.6421,-5.6733,-5.7586,-5.8362,-5.9039,-5.9716,-6.0393,-6.0794,-6.0794,-6.0794,-6.1071,-6.1748,-6.2086,-6.2487,-6.301,-6.421,-6.4888,-6.4888,-6.4888,-6.4888,-6.4888,-6.4888,-6.4888,-6.4888,-6.4888,-6.4888,-6.4888,-6.4888,-6.4888,-6.4888,-6.4888,-6.4832,-6.4777,-6.4524,-6.4188,-6.388,-6.3595,-6.3367,-6.3079,-6.3079,-6.3079,-6.3079,-6.3079,-6.3079,-6.3079,-6.3079,-6.3079,-6.2989,-6.245,-6.266,-6.2959,-6.245,-6.266,-6.3079,-6.3079,-6.3079,-6.3079,-6.3079,-6.3079,-6.3079,-6.3079,-6.3079,-6.3079,-6.3079,-6.2263,-6.1821,-6.2905,-6.1376,-6.0323,-6.1405,-6.0627,-5.9929,-5.9929,-5.9929,-5.9929,-5.9929,-5.9436,-5.9127,-5.9127,-5.7897,-5.7092,-5.7092,-5.5842,-5.5099,-5.5099,-5.5099,-5.5099,-5.5099,-5.5099,-5.5099,-5.5099,-5.5099,-5.5099,-5.5099,-5.5099,-5.5099,-5.1229,-5.1229,-5.1379,-5.1947,-5.2127,-5.2276,-5.2875,-5.3054,-5.3294,-5.3982,-5.4162,-5.45,-5.541,-5.578,-5.5979,-5.6028,-5.647,-5.691,-5.7389,-5.8212,-5.9039,-5.9716,-6.0393,-6.0794,-6.0794,-6.0794,-6.1071,-6.1748,-6.2948,-6.3656,-6.3718,-6.4487,-6.4888,-6.4888,-6.4888,-6.4888,-6.4888,-6.4888,-6.4888,-6.4888,-6.4888,-6.4888,-6.4888,-6.4888,-6.4888,-6.4888,-6.4888,-6.4721,-6.4437,-6.4382,-6.4075,-6.3538,-6.3538,-6.3367,-6.3079,-6.3079,-6.3079,-6.3079,-6.3079,-6.3079,-6.3079,-6.3079,-6.3079,-6.3079,-6.3019,-6.3019,-6.3079,-6.3019,-6.3019,-6.3079,-6.3079,-6.3079,-6.3079,-6.3079,-6.3079,-6.3079,-6.3079,-6.3079,-6.3079,-6.3079,-6.3021,-6.2963,-6.3079,-6.2875,-6.2759,-6.2875,-6.2817,-6.2759,-6.2759,-6.2759,-6.2759,-6.2759,-6.0566,-5.9127,-5.9127,-5.7897,-5.7092,-5.7092,-5.5842,-5.5099,-5.5099,-5.5099,-5.5099,-5.5099,-5.5099,-5.5099,-5.5099,-5.5099,-5.5099,-5.5099,-5.5099,-5.5099,-5.1708,-5.1798,-5.1977,-5.2636,-5.2785,-5.2845,-5.3114,-5.3503,-5.3892,-5.4162,-5.4521,-5.503,-5.572,-5.5929,-5.6127,-5.6421,-5.6664,-5.7131,-5.8139,-5.8558,-5.9193,-6.027,-6.064,-6.0794,-6.0794,-6.0794,-6.1255,-6.2333,-6.3687,-6.4457,-6.4457,-6.4734,-6.4888,-6.4888,-6.4888,-6.4888,-6.4888,-6.4888,-6.4888,-6.4888,-6.4888,-6.4888,-6.4888,-6.4888,-6.4777,-6.4579,-6.4579,-6.4412,-6.4132,-6.3963,-6.3736,-6.3481,-6.3309,-6.3194,-6.3079,-6.3079,-6.3079,-6.3079,-6.3079,-6.3079,-6.3079,-6.3079,-6.3079,-6.2989,-6.26,-6.275,-6.2989,-6.26,-6.278,-6.3079,-6.3079,-6.3079,-6.3079,-6.3079,-6.3079,-6.3079,-6.3079,-6.3079,-6.3079,-6.3079,-6.3079,-6.3079,-6.3079,-6.3079,-6.3079,-6.3079,-6.3079,-6.3079,-6.3079,-6.3079,-6.3079,-6.3079,-6.2145,-6.1495,-6.1495,-6.0262,-5.9527,-5.9527,-5.8277,-5.7515,-5.7515,-5.7515,-5.7515,-5.7515,-5.7515,-5.7515,-5.7515,-5.6704,-5.6275,-5.6275,-5.5472,-5.5099,-5.2366,-5.2486,-5.2665,-5.3324,-5.3503,-5.3533,-5.3743,-5.4162,-5.4491,-5.4491,-5.493,-5.5431,-5.5929,-5.6077,-5.6274,0.0,-5.681,-5.7272,-5.8577,-5.8793,-5.9285,-6.064,-6.0794,-6.0794,-6.0794,-6.1163,-6.1779,-6.2733,-6.4118,-6.4888,-6.4888,-6.4888,-6.4888,-6.4888,-6.4888,-6.4888,-6.4888,-6.4888,-6.4888,-6.4888,-6.4888,-6.4888,-6.4888,-6.4888,-6.4777,-6.4524,-6.4437,-6.4244,-6.3993,-6.3652,-6.3481,-6.3367,-6.3194,-6.3079,-6.3079,-6.3079,-6.3079,-6.3079,-6.3079,-6.3079,-6.3079,-6.3079,-6.3079,-6.2989,-6.254,-6.272,-6.2989,-6.251,-6.272,-6.3079,-6.3079,-6.3079,-6.3079,-6.3079,-6.3079,-6.3079,-6.3079,-6.3079,-6.3079,-6.3079,-6.3079,-6.3079,-6.3079,-6.3079,-6.3079,-6.3079,-6.3079,-6.3079,-6.3079,-6.3079,-6.3079,-6.3079,-6.3079,-6.3079,-6.3079,-6.191,-6.1106,-6.1106,-5.9834,-5.9127,-5.9127,-5.9127,-5.9127,-5.9127,-5.9127,-5.9127,-5.9127,-5.777,-5.7092,-5.7092,-5.571,-5.5099,-5.3174,-5.3174,-5.3324,-5.4012,-5.4192,-5.4371,-5.5029,-5.5179,-5.5179,-5.5179,-5.5431,-5.5681,-5.5929,-5.6225,-5.647,-5.6761,-5.681,-5.7272,-5.8577,-5.8793,-5.9285,-6.064,-6.0794,-6.0794,-6.0794,-6.2025,-6.2794,-6.2825,-6.4118,-6.4888,-6.4888,-6.4888,-6.4888,-6.4888,-6.4888,-6.4888,-6.4888,-6.4888,-6.4888,-6.4888,-6.4888,-6.4888,-6.4888,-6.4888,-6.4888,-6.4888,-6.4524,-6.4244,-6.3993,-6.3652,-6.3367,-6.3079,-6.3079,-6.3079,-6.3079,-6.3079,-6.3079,-6.3079,-6.3079,-6.3079,-6.3079,-6.3079,-6.3079,-6.3079,-6.3079,-6.3079,-6.3079,-6.3079,-6.3079,-6.3079,-6.3079,-6.3079,-6.3079,-6.3079,-6.3079,-6.3079,-6.3079,-6.3079,-6.3079,-6.3079,-6.3079,-6.3079,-6.3079,-6.3079,-6.3079,-6.3079,-6.3079,-6.3079,-6.3079,-6.3079,-6.3079,-6.3079,-6.3079,-6.3079,-6.3079,-6.191,-6.1106,-6.1106,-5.9834,-5.9127,-5.9127,-5.9127,-5.9127,-5.9127,-5.9127,-5.9127,-5.9127,-5.777,-5.7092,-5.7092,-5.571,-5.5099,-5.3743,-5.3892,-5.4042,-5.473,-5.488,-5.494,-5.5149,-5.5179,-5.5229,-5.5431,-5.5531,-5.5731,-5.6176,-5.6323,-5.647,-5.6761,-5.721,-5.7795,-5.867,-5.9193,-5.9809,-6.0701,-6.0794,-6.0794,-6.0794,-6.2025,-6.2825,-6.2825,-6.4118,-6.4888,-6.4888,-6.4888,-6.4888,-6.4888,-6.4888,-6.4888,-6.4888,-6.4888,-6.4888,-6.4888,-6.4888,-6.4888,-6.4888,-6.4888,-6.4777,-6.4524,-6.4244,-6.3963,-6.3652,-6.3367,-6.3194,-6.3079,-6.3079,-6.3079,-6.3079,-6.3079,-6.3079,-6.3079,-6.3079,-6.3079,-6.3079,-6.3079,-6.3079,-6.3079,-6.3079,-6.3079,-6.3079,-6.3079,-6.3079,-6.3079,-6.3079,-6.3079,-6.3079,-6.3079,-6.3079,-6.3079,-6.3079,-6.3079,-6.3079,-6.3079,-6.3079,-6.3079,-6.3079,-6.3079,-6.3079,-6.3079,-6.3079,-6.3079,-6.3079,-6.3079,-6.3079,-6.3079,-6.3079,-6.3079,-6.3079,-6.2701,-6.2468,-6.2468,-6.2057,-6.1821,-6.1821,-6.1821,-6.1821,-6.1821,-6.1821,-6.1821,-6.1821,-6.0505,-5.9341,-5.8439,-5.8024,-5.7834,0.0,-5.4581,-5.467,-5.5089,-5.5179,-5.5179,-5.5179,-5.5179,0.0,0.0,0.0,-5.583,-5.6176,-5.6421,-5.6616,-5.6761,-5.7364,-5.7993,-5.8701,-5.9378,-6.0055,-6.0732,-6.0794,-6.0794,-6.0794,-6.2025,-6.2825,-6.2825,-6.4118,-6.4888,-6.4888,-6.4888,-6.4888,-6.4888,-6.4888,-6.4888,-6.4888,-6.4888,-6.4888,-6.4888,-6.4888,-6.4888,-6.4888,-6.4888,-6.4721,-6.4382,-6.4132,-6.3823,0.0,-6.3194,-6.3079,-6.3079,-6.3079,-6.3079,-6.3079,-6.3079,-6.3079,-6.3079,-6.3079,-6.3079,-6.3079,-6.3079,-6.3079,-6.3079,-6.3079,-6.3079,-6.3079,-6.3079,-6.3079,-6.3079,-6.3079,-6.3079,-6.3079,-6.3079,-6.3079,-6.3079,-6.3079,-6.3079,-6.3079,-6.3079,-6.3079,-6.3079,-6.3079,-6.3079,-6.3079,-6.3079,-6.3079,-6.3079,-6.3079,-6.3079,-6.3079,-6.3079,-6.3079,-6.3079,-6.3079,-6.3079,-6.3079,-6.3079,-6.3079,-6.3079,-6.3079,-6.3079,-6.3079,-6.3079,-6.3079,-6.3079,-6.3079,-6.1762,-6.0384,-5.9127,-5.9127,-5.8924,0.0,-5.5179,-5.5179,-5.5179,-5.5179,-5.5179,-5.5179,0.0,0.0,0.0,0.0,0.0,-5.6028,-5.647,-5.684,-5.6871,-5.7457,-5.8134,-5.8762,-5.9439,-6.0086,-6.0732,-6.0794,-6.0794,-6.0794,-6.2025,-6.2825,-6.2825,-6.4118,-6.4888,-6.4888,-6.4888,-6.4888,-6.4888,-6.4888,-6.4888,-6.4888,-6.4888,-6.4888,-6.4888,-6.4888,-6.4832,-6.4832,-6.4832,-6.4666,-6.4326,-6.4075,-6.3823,-6.3481,-6.3194,-6.3079,-6.3079,-6.3079,-6.3079,-6.3079,-6.3079,-6.3079,-6.3079,-6.3079,-6.3079,-6.3079,-6.3079,-6.3079,-6.3079,-6.3079,-6.3079,-6.3079,-6.3079,-6.3079,-6.3079,-6.3079,-6.3079,-6.3079,-6.3079,-6.3079,-6.3079,-6.3079,-6.3079,-6.3079,-6.3079,-6.3079,-6.3079,-6.3079,-6.3079,-6.3079,-6.3079,-6.3079,-6.3079,-6.3079,-6.3079,-6.3079,-6.3079,-6.3079,-6.3079,-6.3079,-6.3079,-6.3079,-6.3079,-6.3079,-6.3079,-6.3079,-6.3079,-6.3079,-6.3079,-6.3019,-6.3019,-6.3019,-6.1733,-6.0451,-5.9233,-5.9233,-5.8951,-5.5179,0.0,-5.5179,-5.5179,-5.5179,-5.5179,0.0,0.0,0.0,0.0,0.0,0.0,0.0,-5.6713,-5.6994,-5.7487,-5.8165,-5.8793,-5.947,-6.0116,-6.0609,-6.0794,-6.0794,-6.0794,-6.0794,-6.2025,-6.2825,-6.2825,-6.4118,-6.4888,-6.4888,-6.4888,-6.4888,-6.4888,-6.4888,-6.4888,-6.4888,-6.4888,-6.4888,-6.4888,-6.4635,-6.4524,-6.4524,-6.4331,-6.4162,-6.4075,-6.3766,-6.3595,-6.3481,-6.3194,-6.3079,-6.3079,-6.3079,-6.3079,-6.3079,-6.3079,-6.3079,-6.3079,-6.3079,-6.3079,-6.3079,-6.3079,-6.3079,-6.3079,-6.3079,-6.3079,-6.3079,-6.3079,-6.3079,-6.3079,-6.3079,-6.3079,-6.3079,-6.3079,-6.3079,-6.3079,-6.3079,-6.3079,-6.3079,-6.3079,-6.3079,-6.3079,-6.3079,-6.3079,-6.3079,-6.3079,-6.3079,-6.3079,-6.3079,-6.3079,-6.3079,-6.3079,-6.3079,-6.3079,-6.3079,-6.3079,-6.3079,-6.3079,-6.3079,-6.3079,-6.3079,-6.3079,-6.3079,-6.3079,-6.26,-6.2331,-6.2331,-6.1508,-6.0956,-6.067,-6.067,-6.0581,-5.482,-5.497,-5.5119,-5.482,-5.497,-5.517,-5.497,0.0,0.0,0.0,0.0,0.0,0.0,-5.6616,-5.6879,-5.7654,-5.8232,-5.9031,-6.0116,-6.0578,-6.0794,-6.0794,-6.0794,-6.0794,-6.0794,-6.1748,-6.2487,-6.2794,-6.381,-6.4549,-6.4888,-6.4888,-6.4888,-6.4888,-6.4777,-6.4777,-6.4888,-6.4777,-6.4635,-6.4635,-6.4356,-6.4244,-6.4188,-6.4106,-6.3936,-6.3766,-6.3595,-6.3424,-6.3309,-6.3137,-6.3079,-6.3079,-6.3079,-6.3079,-6.3079,-6.3079,-6.3079,-6.3079,-6.3079,-6.3079,-6.3079,-6.3079,-6.3079,-6.3079,-6.3079,-6.3079,-6.3079,-6.3079,-6.3079,-6.3079,-6.3079,-6.3079,-6.3079,-6.3079,-6.3079,-6.3079,-6.3079,-6.3079,-6.3079,-6.3079,-6.3079,-6.3079,-6.3079,-6.3079,-6.3079,-6.3079,-6.3079,-6.3079,-6.3079,-6.3079,-6.2959,-6.266,-6.263,-6.251,-6.2211,-6.2181,-6.2421,-6.3049,-6.278,-6.263,-6.263,-6.2331,-6.2181,-6.2181,-6.1822,-6.1642,-6.1642,-6.1283,-6.1104,-6.1104,-6.1104,-6.0954,-5.4371,-5.461,-5.491,-5.4341,-5.464,-5.496,-5.4759,0.0,0.0,0.0,0.0,0.0,0.0,-5.6513,-5.6886,-5.7759,-5.8377,-5.9246,-6.0588,-6.0794,-6.0794,-6.0794,-6.0794,-6.0794,-6.0794,-6.1409,-6.2056,-6.261,-6.3287,-6.3933,-6.4549,-6.458,-6.458,-6.4525,-6.4273,-6.4218,-6.447,-6.4376,-6.4326,-6.4356,-6.4075,-6.3936,-6.3936,-6.388,-6.3709,-6.3424,-6.3424,-6.3309,-6.3079,-6.3079,-6.3079,-6.3079,-6.3079,-6.3079,-6.3079,-6.3079,-6.3079,-6.3079,-6.3079,-6.3079,-6.3079,-6.3079,-6.3079,-6.3079,-6.3079,-6.3079,-6.3079,-6.3079,-6.3079,-6.3079,-6.3079,-6.3079,-6.3079,-6.3079,-6.3079,-6.3079,-6.3079,-6.3079,-6.3079,-6.3079,-6.3079,-6.3079,-6.3079,-6.3079,-6.3079,-6.3079,-6.2989,-6.2929,-6.2929,-6.2839,-6.257,-6.2002,-6.1942,-6.1732,-6.1164,-6.1104,-6.1583,-6.272,-6.2241,-6.1942,-6.1942,-6.1403,-6.1104,-6.1104,-6.1014,-6.0954,-6.0954,-6.0864,-6.0805,-6.0805,-6.0805,-6.0505,-5.4251,-5.4281,-5.4341,-5.4251,-5.4281,-5.4491,-5.499,0.0,0.0,0.0,0.0,0.0,0.0,-5.7027,-5.774,-5.8215,-5.9533,-6.0496,-6.0763,-6.0794,-6.0794,-6.0794,-6.0794,-6.0794,-6.0794,-6.1409,-6.184,-6.1963,-6.2579,-6.301,-6.3133,-6.3133,-6.3025,-6.2809,-6.2755,-6.2646,-6.2427,-6.3528,-6.4049,-6.4049,-6.3766,-6.3595,-6.3595,-6.3367,-6.3194,-6.3194,-6.3194,-6.3137,-6.3079,-6.3079,-6.3079,-6.3079,-6.3079,-6.3079,-6.3079,-6.3079,-6.3079,-6.3079,-6.3079,-6.3079,-6.3079,-6.3079,-6.3079,-6.3079,-6.3079,-6.3079,-6.3079,-6.3079,-6.3079,-6.3079,-6.3079,-6.3079,-6.3079,-6.3079,-6.3079,-6.3079,-6.3079,-6.3079,-6.3079,-6.3079,-6.3079,-6.3079,-6.3079,-6.3079,-6.3079,-6.3079,-6.26,-6.2241,-6.2241,-6.1762,-6.1373,-6.1283,-6.1253,-6.1224,-6.1134,-6.1104,-6.1194,-6.1403,-6.1313,-6.1253,-6.1253,-6.1164,-6.1104,-6.1104,-6.0535,-6.0236,-6.0236,-5.9668,-5.9428,-5.9428,-5.9428,-5.9368,-5.4221,-5.3952,-5.3743,-5.4132,-5.4491,-5.478,-5.487,0.0,0.0,0.0,0.0,0.0,0.0,-5.7136,-5.7637,-5.8603,-5.9787,-6.0638,-6.0794,-6.0794,-6.0794,-6.0794,-6.0794,-6.0794,-6.0794,-6.1071,-6.1409,-6.1779,-6.2086,-6.2372,-6.258,-6.261,-6.2449,-6.2177,-6.2014,-6.1819,-6.1709,-6.2208,-6.2509,-6.2647,-6.2702,-6.2712,-6.2712,-6.2957,-6.3079,-6.3079,-6.3079,-6.3079,-6.3079,-6.3079,-6.3079,-6.3079,-6.3079,-6.3079,-6.3079,-6.3079,-6.3079,-6.3079,-6.3079,-6.3079,-6.3079,-6.3079,-6.3079,-6.3079,-6.3079,-6.3079,-6.3079,-6.3079,-6.3079,-6.3079,-6.3079,-6.3079,-6.3079,-6.3079,-6.3079,-6.3079,-6.3079,-6.3079,-6.3079,-6.3079,-6.3079,-6.2959,-6.26,-6.254,-6.2421,-6.2061,-6.1762,-6.1553,-6.1553,-6.1313,-6.0984,-6.0595,-6.0565,-6.0416,-6.0057,-6.0027,-6.0176,-6.0535,-6.0565,-6.0386,-6.0027,-6.0027,-6.0027,-6.0027,-5.9727,-5.9548,-5.9548,-5.9249,-5.9099,-5.9099,-5.9099,-5.9099,-5.4221,-5.3832,-5.3563,-5.4072,0.0,-5.493,-5.4769,-5.517,0.0,0.0,0.0,0.0,-5.7109,-5.7294,-5.7851,-5.9192,-5.9988,-6.0481,-6.0742,-6.0794,-6.0794,-6.0794,-6.0794,-6.0794,-6.0794,-6.0794,-6.1009,-6.1427,-6.1458,-6.1598,-6.1852,-6.1828,-6.172,-6.1419,-6.1146,-6.0982,-6.0927,-6.0736,-6.0886,-6.1408,-6.1725,-6.1882,-6.1882,-6.2391,-6.263,-6.263,-6.263,-6.263,-6.263,-6.263,-6.263,-6.263,-6.278,-6.2929,-6.3079,-6.3079,-6.3079,-6.3079,-6.3079,-6.3079,-6.3079,-6.3079,-6.3079,-6.3079,-6.3079,-6.3079,-6.3079,-6.3079,-6.3079,-6.3079,-6.3079,-6.3079,-6.3079,-6.3079,-6.3079,-6.3079,-6.3079,-6.2959,-6.2839,-6.2839,-6.272,-6.245,-6.1942,-6.1882,-6.1702,-6.1194,-6.0984,-6.0864,-6.0864,-6.0745,-6.0446,-5.9907,-5.9847,-5.9668,-5.9129,-5.9099,-5.9308,-5.9817,-5.9847,-5.9638,-5.9129,-5.9099,-5.9099,-5.9099,-5.9099,-5.9099,-5.9099,-5.9099,-5.9099,-5.9099,-5.9099,-5.9099,-5.4221,-5.4162,-5.4162,-5.4192,-5.4251,0.0,-5.505,-5.5401,0.0,-5.5631,-5.6284,-5.6909,-5.7,-5.8033,-5.9253,-6.0454,-6.0503,-6.0481,-6.0742,-6.0794,-6.0794,-6.0794,-6.0794,-6.0794,-6.0794,-6.0794,-6.0721,-6.049,-6.049,-6.0363,-6.0191,-6.0191,-6.0031,-5.968,-5.968,-5.9519,-5.9303,-5.9249,-5.9877,-6.1104,-6.1164,-6.1194,-6.1194,-6.1224,-6.1253,-6.1253,-6.1253,-6.1253,-6.1253,-6.1253,-6.1253,-6.1313,-6.1942,-6.254,-6.3079,-6.3079,-6.3079,-6.3079,-6.3079,-6.3079,-6.3079,-6.3079,-6.3079,-6.3079,-6.3079,-6.3079,-6.3079,-6.3079,-6.3079,-6.3079,-6.3079,-6.3079,-6.3079,-6.3079,-6.3079,-6.3079,-6.3079,-6.26,-6.2181,-6.2181,-6.1672,-6.1253,-6.1194,-6.1194,-6.1164,-6.1134,-6.0565,-6.0146,-6.0146,-5.9638,-5.9249,-5.9189,-5.9189,-5.9159,-5.9099,-5.9099,-5.9129,-5.9189,-5.9189,-5.9159,-5.9099,-5.9099,-5.9099,-5.9099,-5.9099,-5.9099,-5.9099,-5.9099,-5.9099,-5.9099,-5.9099,-5.9099,-5.47,-5.4521,-5.4401,-5.5239,-5.5418,0.0,0.0,-5.528,-5.5501,-5.6124,-5.6496,-5.699,-5.7992,-5.8797,-5.9599,-6.0451,-6.0481,-6.0429,-6.0534,-6.0534,-6.0481,-6.0302,-6.0302,-6.0355,-6.0534,-6.0407,-6.0355,-6.0377,-6.025,-6.0039,-5.972,-5.972,-5.9529,-5.9261,-5.9261,-5.9207,-5.9099,-5.9099,-5.9368,-5.9877,-6.0266,-6.0475,-6.0475,-6.0924,-6.1104,-6.1104,-6.1104,-6.1104,-6.1104,-6.1104,-6.1104,-6.1134,-6.1373,-6.1642,-6.1852,-6.1852,-6.1852,-6.1852,-6.1852,-6.1852,-6.1852,-6.1852,-6.1852,-6.1852,-6.1852,-6.1852,-6.1852,-6.1852,-6.1852,-6.2061,-6.2869,-6.3079,-6.2959,-6.257,-6.248,-6.2361,-6.1942,-6.1672,-6.1493,-6.1493,-6.1283,-6.0984,-6.0535,-6.0475,-6.0326,-5.9937,-5.9638,-5.9488,-5.9488,-5.9249,-5.9099,-5.9099,-5.9099,-5.9099,-5.9099,-5.9099,-5.9099,-5.9099,-5.9099,-5.9099,-5.9099,-5.9099,-5.9099,-5.9099,-5.9099,-5.9099,-5.9099,-5.9099,-5.9099,-5.9099,-5.9099,-5.9099,-5.5059,-5.5029,-5.5029,-5.5957,0.0,0.0,-5.5598,-5.5508,-5.5679,-5.6333,-5.6856,-5.7592,-5.8866,-5.9334,-5.969,-6.0167,-6.0167,-6.0167,-6.0272,-6.0272,-6.0197,-6.0016,-6.0016,-6.0039,-6.025,-6.0092,-6.0039,-6.0114,-5.9986,-5.972,-5.9369,-5.9369,-5.9315,-5.9099,-5.9099,-5.9099,-5.9099,-5.9099,-5.9099,-5.9099,-5.9548,-5.9787,-5.9787,-6.0266,-6.0475,-6.0475,-6.0475,-6.0475,-6.0475,-6.0475,-6.0595,-6.0775,-6.0775,-6.0924,-6.1104,-6.1104,-6.1104,-6.1104,-6.1104,-6.1104,-6.1104,-6.1104,-6.116,-6.1216,-6.1216,-6.1216,-6.1271,-6.1327,-6.1216,-6.1313,-6.2325,-6.2508,-6.2331,-6.1882,-6.1792,-6.1672,-6.1224,-6.0954,-6.0775,-6.0775,-6.0625,-6.0326,-5.9847,-5.9787,-5.9608,-5.9189,-5.9099,-5.9099,-5.9099,-5.9099,-5.9099,-5.9099,-5.9099,-5.9099,-5.9099,-5.9099,-5.9099,-5.9099,-5.9099,-5.9099,-5.9099,-5.9099,-5.9099,-5.9099,-5.9099,-5.9099,-5.9099,-5.9099,-5.9099,-5.9099,-5.9099,-5.9099,-5.5209,-5.5688,-5.6218,0.0,0.0,0.0,-5.6248,-5.6248,-5.6218,-5.6248,-5.7505,-5.8806,-5.9409,-5.9529,-5.9583,-5.9933,-5.972,-5.9636,-5.9933,-6.0016,-6.0016,-6.0016,-6.0016,-6.0016,-6.0016,-6.0016,-5.9827,-5.9529,-5.9529,-5.9369,-5.9099,-5.9099,-5.9099,-5.9099,-5.9099,-5.9099,-5.9099,-5.9099,-5.9099,-5.9099,-5.9099,-5.9099,-5.9099,-5.9099,-5.9099,-5.9099,-5.9099,-5.9099,-5.9099,-5.9099,-5.9488,-6.0086,-6.0086,-6.0505,-6.1104,-6.1104,-6.1104,-6.1104,-6.1104,-6.1104,-6.1104,-6.1104,-6.1241,-6.1489,-6.1489,-6.1489,-6.1544,-6.1819,-6.1519,-6.113,-6.1433,-6.1297,-6.1104,-6.1104,-6.1104,-6.1104,-6.1104,-6.0565,-6.0086,-6.0086,-5.9548,-5.9099,-5.9099,-5.9099,-5.9099,-5.9099,-5.9099,-5.9099,-5.9099,-5.9099,-5.9099,-5.9099,-5.9099,-5.9099,-5.9099,-5.9099,-5.9099,-5.9099,-5.9099,-5.9099,-5.9099,-5.9099,-5.9099,-5.9099,-5.9099,-5.9099,-5.9099,-5.9099,-5.9099,-5.9099,-5.9099,-5.9099,-5.5748,-5.6017,0.0,-5.7304,0.0,0.0,0.0,-5.6825,0.0,-5.7363,-5.8284,-5.9051,-5.9446,-5.9529,-5.9583,-5.9933,-5.9933,-5.9827,-5.9636,-5.9636,-5.9583,-5.9399,-5.9399,-5.9422,-5.9636,-5.9476,-5.9369,-5.9476,-5.9315,-5.9153,-5.9099,-5.9099,-5.9099,-5.9099,-5.9099,-5.9099,-5.9099,-5.9099,-5.9099,-5.9099,-5.9099,-5.9099,-5.9099,-5.9099,-5.9099,-5.9099,-5.9099,-5.9099,-5.9099,-5.9099,-5.9219,-5.9398,-5.9398,-5.9518,-5.9697,-5.9697,-5.9697,-5.9697,-5.9697,-5.9697,-5.9697,-5.9697,-5.9861,-6.0102,-6.0102,-6.024,-6.0455,-6.0509,-6.0432,-6.0324,-6.0432,-6.0378,-6.0337,-6.0406,-6.0386,-6.0266,-5.9817,-5.9548,-5.9398,-5.9398,-5.9249,-5.9099,-5.9099,-5.9099,-5.9099,-5.9099,-5.9099,-5.9099,-5.9099,-5.9099,-5.9099,-5.9099,-5.9099,-5.9099,-5.9099,-5.9099,-5.9099,-5.9099,-5.9099,-5.9099,-5.9099,-5.9099,-5.9099,-5.9099,-5.9099,-5.9099,-5.9099,-5.9099,-5.9099,-5.9099,-5.9099,-5.9099,-5.6128,-5.6555,0.0,-5.7573,-5.7603,-5.7603,-5.8022,-5.7513,-5.7184,-5.7962,-5.865,-5.9153,-5.9315,-5.9315,-5.9422,-5.9613,-5.9613,-5.956,-5.9369,-5.9315,-5.9261,-5.9099,-5.9099,-5.9153,-5.9315,-5.9207,-5.9153,-5.9315,-5.9207,-5.9099,-5.9099,-5.9099,-5.9099,-5.9099,-5.9099,-5.9099,-5.9099,-5.9099,-5.9099,-5.9099,-5.9099,-5.9099,-5.9099,-5.9099,-5.9099,-5.9099,-5.9099,-5.9099,-5.9099,-5.9099,-5.9099,-5.9099,-5.9099,-5.9099,-5.9099,-5.9099,-5.9099,-5.9099,-5.9207,-5.9261,-5.9261,-5.9399,-5.9636,-5.9849,-5.9849,-6.0008,-6.0197,-6.0302,-6.0144,-5.9986,-6.0144,-6.0092,-6.0001,-5.988,-5.9861,-5.9741,-5.9189,-5.9099,-5.9099,-5.9099,-5.9099,-5.9099,-5.9099,-5.9099,-5.9099,-5.9099,-5.9099,-5.9099,-5.9099,-5.9099,-5.9099,-5.9099,-5.9099,-5.9099,-5.9099,-5.9099,-5.9099,-5.9099,-5.9099,-5.9099,-5.9099,-5.9099,-5.9099,-5.9099,-5.9099,-5.9099,-5.9099,-5.9099,-5.9099,-5.9099,-5.9099,-5.9099,-5.6316,-5.7214,-5.7992,-5.7423,-5.7752,-5.8201,-5.8141,-5.8171,-5.8201,-5.8201,-5.868,-5.9099,-5.9099,-5.9099,-5.9099,-5.9099,-5.9099,-5.9099,-5.9099,-5.9099,-5.9099,-5.9099,-5.9099,-5.9099,-5.9099,-5.9099,-5.9099,-5.9099,-5.9099,-5.9099,-5.9099,-5.9099,-5.9099,-5.9099,-5.9099,-5.9099,-5.9099,-5.9099,-5.9099,-5.9099,-5.9099,-5.9099,-5.9099,-5.9099,-5.9099,-5.9099,-5.9099,-5.9099,-5.9099,-5.9099,-5.9099,-5.9099,-5.9099,-5.9099,-5.9099,-5.9099,-5.9099,-5.9153,-5.9422,-5.9529,-5.9583,-5.988,-6.0197,-6.0377,-6.0377,-6.0429,-6.0481,-6.0742,-6.046,-6.0144,-6.0377,-6.025,-5.9986,-5.9636,-5.9529,-5.9422,-5.9153,-5.9099,-5.9099,-5.9099,-5.9099,-5.9099,-5.9099,-5.9099,-5.9099,-5.9099,-5.9099,-5.9099,-5.9099,-5.9099,-5.9099,-5.9099,-5.9099,-5.9099,-5.9099,-5.9099,-5.9099,-5.9099,-5.9099,-5.9099,-5.9099,-5.9099,-5.9099,-5.9099,-5.9099,-5.9099,-5.9099,-5.9099,-5.9099,-5.9099,-5.9099,-5.9099,-5.7423,-5.7902,0.0,0.0,-5.877,-5.877,-5.8231,-5.853,-5.889,-5.889,-5.9009,-5.9099,-5.9099,-5.9099,-5.9099,-5.9099,-5.9099,-5.9099,-5.9099,-5.9099,-5.9099,-5.9099,-5.9099,-5.9099,-5.9099,-5.9099,-5.9099,-5.9099,-5.9099,-5.9099,-5.9099,-5.9099,-5.9099,-5.9099,-5.9099,-5.9099,-5.9099,-5.9099,-5.9099,-5.9099,-5.9099,-5.9099,-5.9099,-5.9099,-5.9099,-5.9099,-5.9099,-5.9099,-5.9099,-5.9099,-5.9099,-5.9099,-5.9099,-5.9099,-5.9099,-5.9099,-5.9207,-5.9422,-5.9476,-5.9636,-5.988,-6.0016,-6.0197,-6.0377,-6.0377,-6.0534,-6.0742,-6.0794,-6.069,-6.0638,-6.069,-6.0638,-6.0534,-6.0272,-5.9849,-5.9422,-5.9153,-5.9099,-5.9099,-5.9099,-5.9099,-5.9099,-5.9099,-5.9099,-5.9099,-5.9099,-5.9099,-5.9099,-5.9099,-5.9099,-5.9099,-5.9099,-5.9099,-5.9099,-5.9099,-5.9099,-5.9099,-5.9099,-5.9099,-5.9099,-5.9099,-5.9099,-5.9099,-5.9099,-5.9099,-5.9099,-5.9099,-5.9099,-5.9099,-5.9099,-5.9099,-5.9099,-5.7932,0.0,0.0,-5.9009,0.0,-5.862,-5.859,-5.886,-5.9099,-5.9099,-5.9099,-5.9099,-5.9099,-5.9099,-5.9099,-5.9099,-5.9099,-5.9099,-5.9099,-5.9099,-5.9099,-5.9099,-5.9099,-5.9099,-5.9099,-5.9099,-5.9099,-5.9099,-5.9099,-5.9099,-5.9099,-5.9099,-5.9099,-5.9099,-5.9099,-5.9099,-5.9099,-5.9099,-5.9099,-5.9099,-5.9099,-5.9099,-5.9099,-5.9099,-5.9099,-5.9099,-5.9099,-5.9099,-5.9099,-5.9099,-5.9099,-5.9099,-5.9099,-5.9099,-5.9099,-5.9099,-5.9261,-5.9529,-5.969,-5.9933,-6.0197,-6.0355,-6.0512,-6.0586,-6.0586,-6.069,-6.0794,-6.0794,-6.0794,-6.0794,-6.0794,-6.0794,-6.0742,-6.0481,-6.0061,-5.9667,-5.9369,-5.9207,-5.9099,-5.9099,-5.9099,-5.9099,-5.9099,-5.9099,-5.9099,-5.9099,-5.9099,-5.9099,-5.9099,-5.9099,-5.9099,-5.9099,-5.9099,-5.9099,-5.9099,-5.9099,-5.9099,-5.9099,-5.9099,-5.9099,-5.9099,-5.9099,-5.9099,-5.9099,-5.9099,-5.9099,-5.9099,-5.9099,-5.9099,-5.9099,-5.9099,-5.9099,-5.8261,0.0,-5.9099,-5.9099,-5.871,0.0,-5.8979,-5.9099,-5.9099,-5.9099,-5.9099,-5.9099,-5.9099,-5.9099,-5.9099,-5.9099,-5.9099,-5.9099,-5.9099,-5.9099,-5.9099,-5.9099,-5.9099,-5.9099,-5.9099,-5.9099,-5.9099,-5.9099,-5.9099,-5.9099,-5.9099,-5.9099,-5.9099,-5.9099,-5.9099,-5.9099,-5.9099,-5.9099,-5.9099,-5.9099,-5.9099,-5.9099,-5.9099,-5.9099,-5.9099,-5.9099,-5.9099,-5.9099,-5.9099,-5.9099,-5.9099,-5.9099,-5.9099,-5.9099,-5.9099,-5.9153,-5.9369,-5.9636,-5.9933,-6.025,-6.0481,-6.0742,-6.0794,-6.0794,-6.0794,-6.0794,-6.0794,-6.0794,-6.0794,-6.0794,-6.0794,-6.0794,-6.0742,-6.0534,-6.025,-5.988,-5.9583,-5.9315,-5.9099,-5.9099,-5.9099,-5.9099,-5.9099,-5.9099,-5.9099,-5.9099,-5.9099,-5.9099,-5.9099,-5.9099,-5.9099,-5.9099,-5.9099,-5.9099,-5.9099,-5.9099,-5.9099,-5.9099,-5.9009,-5.8949,-5.8949,-5.883,-5.877,-5.877,-5.8979,-5.9099,-5.9099,-5.9099,-5.9099,-5.9099,-5.9099,-5.9099,0.0,0.0,-5.9099,0.0,-5.9039,-5.9009,-5.9069,-5.9099,-5.9099,-5.9099,-5.9099,-5.9099,-5.9099,-5.9099,-5.9099,-5.9099,-5.9099,-5.9099,-5.9099,-5.9099,-5.9099,-5.9099,-5.9099,-5.9099,-5.9099,-5.9099,-5.9099,-5.9099,-5.9099,-5.9099,-5.9099,-5.9099,-5.9099,-5.9099,-5.9099,-5.9099,-5.9099,-5.9099,-5.9099,-5.9099,-5.9099,-5.9099,-5.9099,-5.9099,-5.9099,-5.9099,-5.9099,-5.9099,-5.9099,-5.9099,-5.9099,-5.9099,-5.9099,-5.9099,-5.9153,-5.9369,-5.9636,-5.9986,-6.025,-6.0534,-6.0742,-6.0794,-6.0794,-6.0794,-6.0794,-6.0794,-6.0794,-6.0794,-6.0794,-6.0794,-6.0794,-6.0794,-6.0794,-6.0742,-6.0355,-5.988,-5.9583,-5.9315,-5.9099,-5.9099,-5.9099,-5.9099,-5.9099,-5.9099,-5.9099,-5.9099,-5.9099,-5.9099,-5.9099,-5.9099,-5.9099,-5.9099,-5.9099,-5.9099,-5.9099,-5.9099,-5.9099,-5.9099,-5.856,-5.8261,-5.8261,-5.7693,-5.7363,-5.7363,-5.8501,-5.9099,-5.9099,-5.9099,-5.9099,-5.9099,-5.9099,-5.9099,-5.9039,-5.9099,-5.9099,0.0,-5.9099,-5.9099,-5.9099,-5.9099,-5.9099,-5.9099,-5.9099,-5.9099,-5.9099,-5.9099,-5.9099,-5.9099,-5.9099,-5.9099,-5.9099,-5.9099,-5.9099,-5.9099,-5.9099,-5.9099,-5.9099,-5.9099,-5.9099,-5.9099,-5.9099,-5.9099,-5.9099,-5.9099,-5.9099,-5.9099,-5.9099,-5.9099,-5.9099,-5.9099,-5.9099,-5.9099,-5.9099,-5.9099,-5.9099,-5.9099,-5.9099,-5.9099,-5.9099,-5.9099,-5.9099,-5.9099,-5.9099,-5.9099,-5.9261,-5.9315,-5.9369,-5.9667,-5.9986,-6.025,-6.0377,-6.0586,-6.0794,-6.0794,-6.0794,-6.0794,-6.0794,-6.0794,-6.0794,-6.0794,-6.0794,-6.0794,-6.0794,-6.0794,-6.0794,-6.0794,-6.0407,-5.9963,-5.9827,-5.9422,-5.9099,-5.9099,-5.9099,-5.9099,-5.9099,-5.9099,-5.9099,-5.9099,-5.9099,-5.9099,-5.9099,-5.9099,-5.9099,-5.9099,-5.877,-5.856,-5.856,-5.8201,-5.7992,-5.7992,-5.7693,-5.7543,-5.7543,-5.7244,-5.7094,-5.7094,-5.7663,-5.7992,-5.7992,-5.7992,-5.7992,-5.7992,-5.7992,-5.7992,0.0,0.0,-5.9099,-5.9099,-5.9099,-5.9099,-5.9099,-5.9099,-5.9099,-5.9099,-5.9099,-5.9099,-5.9099,-5.9099,-5.9099,-5.9099,-5.9099,-5.9099,-5.9099,-5.9099,-5.9099,-5.9099,-5.9099,-5.9099,-5.9099,-5.9099,-5.9099,-5.9099,-5.9099,-5.9099,-5.9099,-5.9099,-5.9099,-5.9099,-5.9099,-5.9099,-5.9099,-5.9099,-5.9099,-5.9099,-5.9099,-5.9099,-5.9099,-5.9099,-5.9099,-5.9099,-5.9099,-5.9153,-5.9207,-5.9207,-5.9261,-5.9315,-5.9529,-5.9636,-5.9636,-5.9986,-6.025,-6.0429,-6.0481,-6.0638,-6.0794,-6.0794,-6.0794,-6.0794,-6.0794,-6.0794,-6.0794,-6.0794,-6.0794,-6.0794,-6.0794,-6.0794,-6.0794,-6.069,-6.0355,-5.9963,-5.9773,-5.9452,-5.9099,-5.9099,-5.9099,-5.9099,-5.9099,-5.9099,-5.9099,-5.9099,-5.9099,-5.9039,-5.889,-5.886,-5.88,-5.862,-5.8141,-5.7872,-5.7872,-5.7393,-5.7094,-5.7094,-5.6944,-5.6855,-5.6855,-5.6705,-5.6615,-5.6615,-5.6615,-5.6765,-5.7094,-5.7094,-5.7094,-5.7094,-5.7094,-5.7094,-5.9099,-5.9099,0.0,-5.9099,-5.9099,-5.9099,-5.9099,-5.9099,-5.9099,-5.9099,-5.9099,-5.9099,-5.9099,-5.9099,-5.9099,-5.9099,-5.9099,-5.9099,-5.9099,-5.9099,-5.9099,-5.9099,-5.9099,-5.9099,-5.9099,-5.9099,-5.9099,-5.9099,-5.9099,-5.9099,-5.9099,-5.9099,-5.9099,-5.9099,-5.9099,-5.9099,-5.9099,-5.9099,-5.9099,-5.9099,-5.9099,-5.9099,-5.9099,-5.9099,-5.9099,-5.9099,-5.9099,-5.9261,-5.9476,-5.9476,-5.9667,-5.9933,-5.9963,-5.9963,-6.0016,-6.0302,-6.0377,-6.0429,-6.069,-6.0794,-6.0794,-6.0794,-6.0794,-6.0794,-6.0794,-6.0794,-6.0794,-6.0794,-6.0794,-6.0794,-6.0794,-6.0794,-6.0742,-6.0481,-6.0197,-5.9827,-5.9261,-5.9099,-5.9099,-5.9099,-5.9099,-5.9099,-5.9099,-5.9099,-5.9099,-5.9099,-5.9099,-5.889,-5.8261,-5.8171,-5.7932,-5.7274,-5.7154,-5.7154,-5.7154,-5.7124,-5.7094,-5.7094,-5.6526,-5.6278,-5.6278,-5.5628,-5.5299,-5.5299,-5.5299,-5.5867,-5.7094,-5.7094,-5.7094,-5.7094,-5.7094,-5.7094,-5.9099,0.0,0.0,-5.9099,-5.9099,-5.9099,-5.9099,-5.9099,-5.9099,-5.9099,-5.9099,-5.9099,-5.9099,-5.9099,-5.9099,-5.9099,-5.9099,-5.9099,-5.9099,-5.9099,-5.9099,-5.9099,-5.9099,-5.9099,-5.9099,-5.9099,-5.9099,-5.9099,-5.9099,-5.9099,-5.9099,-5.9099,-5.9099,-5.9099,-5.9099,-5.9099,-5.9099,-5.9099,-5.9099,-5.9099,-5.9099,-5.9099,-5.9099,-5.9099,-5.9099,-5.9099,-5.9261,-5.9422,-5.9529,-5.9529,-5.972,-6.0016,-6.0197,-6.025,-6.0302,-6.0534,-6.0638,-6.069,-6.0742,-6.0794,-6.0794,-6.0794,-6.0794,-6.0794,-6.0794,-6.0794,-6.0794,-6.0794,-6.0794,-6.0794,-6.0794,-6.0794,-6.069,-6.025,-6.0039,-5.9827,-5.9207,-5.9099,-5.9099,-5.9099,-5.9099,-5.9099,-5.9099,-5.874,-5.8471,-5.8471,-5.8112,-5.7723,-5.7483,-5.7453,-5.7363,-5.7124,-5.6735,-5.6496,-5.6496,-5.6107,-5.5867,-5.5867,-5.5658,-5.5538,-5.5538,-5.5329,-5.5179,-5.5179,-5.5179,-5.5418,-5.5867,-5.5867,-5.5867,-5.5867,-5.5867,-5.5867,-5.9099,-5.9099,-5.9099,-5.9099,-5.9099,-5.9099,-5.9099,-5.9099,-5.9099,-5.9099,-5.9099,-5.9099,-5.9099,-5.9099,-5.9099,-5.9099,-5.9099,-5.9099,-5.9099,-5.9099,-5.9099,-5.9099,-5.9099,-5.9099,-5.9099,-5.9099,-5.9099,-5.9099,-5.9099,-5.9099,-5.9099,-5.9099,-5.9099,-5.9099,-5.9099,-5.9099,-5.9099,-5.9099,-5.9099,-5.9099,-5.9099,-5.9099,-5.9099,-5.889,-5.877,-5.877,-5.8797,-5.9161,-5.9636,-5.9743,-5.9955,-6.0302,-6.0429,-6.0534,-6.0534,-6.0742,-6.0794,-6.0794,-6.0794,-6.0794,-6.0794,-6.0794,-6.0794,-6.0794,-6.0794,-6.0794,-6.0794,-6.0794,-6.0794,-6.0794,-6.0794,-6.0588,-6.0197,-5.9757,-5.9417,-5.9055,-5.8548,-5.862,-5.877,-5.877,-5.859,-5.8441,-5.8441,-5.8052,-5.7782,-5.7782,-5.7393,-5.7004,-5.6795,-5.6795,-5.6705,-5.6466,-5.6077,-5.5837,-5.5837,-5.5448,-5.5179,-5.5179,-5.5179,-5.5179,-5.5179,-5.5179,-5.5179,-5.5179,-5.5179,-5.5179,-5.5179,-5.5179,-5.5179,-5.5179,-5.5179,-5.5179,0.0,0.0,0.0,-5.9099,-5.9099,-5.9099,-5.9099,-5.9099,-5.9099,-5.9099,-5.9099,-5.9099,-5.9099,-5.9099,-5.9099,-5.9099,-5.9099,-5.9099,-5.9099,-5.9099,-5.9099,-5.9099,-5.9099,-5.9099,-5.9099,-5.9099,-5.9099,-5.9099,-5.9099,-5.9099,-5.9099,-5.9099,-5.9099,-5.9099,-5.9099,-5.9099,-5.9099,-5.9099,-5.9099,-5.9099,-5.9069,-5.9069,-5.9069,-5.8411,-5.8082,-5.8052,-5.7685,-5.8451,-5.9978,-6.0211,-6.0472,-6.0732,-6.0732,-6.0732,-6.0732,-6.0732,-6.0732,-6.0732,-6.0732,-6.0732,-6.0732,-6.0732,-6.0732,-6.0732,-6.0732,-6.0732,-6.0732,-6.0732,-6.0732,-6.0732,-6.0732,-6.0034,-5.9286,-5.9027,-5.8231,-5.7437,-5.7146,-5.7603,-5.8082,-5.8082,-5.7543,-5.7094,-5.7094,-5.7094,-5.7064,-5.7064,-5.7064,-5.6825,-5.6278,-5.6188,-5.5897,-5.5269,-5.5179,-5.5179,-5.5179,-5.5179,-5.5179,-5.5179,-5.5179,-5.5179,-5.5179,-5.5179,-5.5179,-5.5179,-5.5179,-5.5179,-5.5179,-5.5179,-5.5179,-5.5179,-5.5179,-5.5179,-5.9099,0.0,0.0,0.0,0.0,0.0,-5.9099,-5.9099,-5.9099,-5.9099,-5.9099,-5.9099,-5.9099,-5.9099,-5.9099,-5.9099,-5.9099,-5.9099,-5.9099,-5.9099,-5.9099,-5.9099,-5.9099,-5.9099,-5.9099,-5.9099,-5.9099,-5.9099,-5.9099,-5.9099,-5.9099,-5.9099,-5.9099,-5.9099,-5.9099,-5.9099,-5.9099,-5.9099,-5.9099,-5.9099,-5.862,-5.8411,-5.8381,-5.7693,-5.7498,-5.7655,-5.7786,-5.8216,-5.8838,-5.894,-5.9144,-5.9347,-5.9347,-5.9347,-5.9347,-5.9347,-5.9347,-5.9347,-5.9347,-5.9347,-5.9347,-5.9347,-5.9347,-5.9347,-5.9347,-5.9347,-5.9347,-5.9347,-5.9347,-5.9347,-5.9347,-5.8991,-5.8614,-5.8358,-5.7898,-5.7488,-5.7146,-5.6885,-5.6855,-5.7304,-5.7214,-5.7094,-5.7094,-5.6735,-5.6436,-5.6436,-5.6017,-5.5658,-5.5478,-5.5478,-5.5388,-5.5209,-5.5179,-5.5179,-5.5179,-5.5179,-5.5179,-5.5179,-5.5179,-5.5179,-5.5179,-5.5179,-5.5179,-5.5179,-5.5179,-5.5179,-5.5179,-5.5179,-5.5179,-5.5179,-5.5179,-5.5179,-5.9099,-5.9099,-5.9099,-5.9099,0.0,0.0,-5.9099,-5.9099,-5.9099,-5.9099,-5.9099,-5.9099,-5.9099,-5.9099,-5.9099,-5.9099,-5.9099,-5.9099,-5.9099,-5.9099,-5.9099,-5.9099,-5.9099,-5.9099,-5.9099,-5.9099,-5.9099,-5.9099,-5.9099,-5.9099,-5.9099,-5.9099,-5.9099,-5.9099,-5.9099,-5.9099,-5.9099,-5.883,-5.871,-5.868,-5.8022,-5.7693,-5.7663,-5.7004,-5.6861,-5.7118,-5.7152,-5.7334,-5.7584,-5.7683,-5.817,-5.8793,-5.8793,-5.8793,-5.8793,-5.8793,-5.8793,-5.8793,-5.8793,-5.8793,-5.8793,-5.8793,-5.8793,-5.8793,-5.8793,-5.8793,-5.8793,-5.8793,-5.8793,-5.8762,-5.8662,-5.8327,-5.7911,-5.7506,-5.7091,-5.6675,-5.6338,-5.6017,-5.5957,-5.6585,-5.6496,-5.6286,-5.6286,-5.6017,-5.5777,-5.5777,-5.5448,-5.5179,-5.5179,-5.5179,-5.5179,-5.5179,-5.5179,-5.5179,-5.5179,-5.5179,-5.5179,-5.5179,-5.5179,-5.5179,-5.5179,-5.5179,-5.5179,-5.5179,-5.5179,-5.5179,-5.5179,-5.5179,-5.5179,-5.5179,-5.5179,-5.5179,-5.9099,-5.9099,-5.9099,-5.9099,-5.9099,0.0,-5.9099,-5.9099,-5.9099,-5.9099,-5.9099,-5.9099,-5.9099,-5.9099,-5.9099,-5.9099,-5.9099,-5.9099,-5.9099,-5.9099,-5.9099,-5.9099,-5.9099,-5.9099,-5.9099,-5.9099,-5.9099,-5.9099,-5.9099,-5.9099,-5.9099,-5.9099,-5.9099,-5.9099,-5.9099,-5.9099,-5.9099,-5.8471,-5.8112,-5.8112,-5.7363,-5.7056,-5.7027,-5.6398,-5.6302,-5.6577,-5.6172,-5.6225,-5.647,-5.6713,-5.7518,-5.8547,-5.8547,-5.8547,-5.8547,-5.8547,-5.8547,-5.8547,-5.8547,-5.8547,-5.8547,-5.8547,-5.8547,-5.8547,-5.8547,-5.8547,-5.8547,-5.8547,-5.8547,-5.8497,-5.8246,-5.7717,-5.7109,-5.6607,-5.6003,-5.5481,-5.5229,-5.5179,-5.5359,-5.5957,-5.5598,-5.5179,-5.5179,-5.5179,-5.5179,-5.5179,-5.5179,-5.5179,-5.5179,-5.5179,-5.5179,-5.5179,-5.5179,-5.5179,-5.5179,-5.5179,-5.5179,-5.5179,-5.5179,-5.5179,-5.5179,-5.5179,-5.5179,-5.5179,-5.5179,-5.5179,-5.5179,-5.5179,-5.5179,-5.5179,-5.5179,-5.5179,-5.9099,-5.9099,-5.9099,-5.9099,-5.9099,0.0,-5.9099,-5.9099,-5.9099,-5.9099,-5.9099,-5.9099,-5.9099,-5.9099,-5.9099,-5.9099,-5.9099,-5.9099,-5.9099,-5.9099,-5.9099,-5.9099,-5.9099,-5.9099,-5.9099,-5.9099,-5.9099,-5.9099,-5.9099,-5.9099,-5.9099,-5.9099,-5.9099,-5.9099,-5.9099,-5.9099,-5.9099,-5.8471,-5.8112,-5.8112,-5.6915,-5.65,-5.6675,-5.6043,-5.5962,-5.6408,-5.6384,-5.647,-5.6713,-5.6761,-5.6964,-5.721,-5.721,-5.721,-5.721,-5.721,-5.721,-5.721,-5.721,-5.721,-5.721,-5.721,-5.721,-5.721,-5.721,-5.721,-5.721,-5.721,-5.721,-5.7113,-5.6868,-5.6499,-5.6161,-5.5862,-5.5521,-5.5229,-5.5179,-5.5179,-5.5239,-5.5359,-5.5269,-5.5179,-5.5179,-5.5179,-5.5179,-5.5179,-5.5179,-5.5179,-5.5179,-5.5179,-5.5179,-5.5179,-5.5179,-5.5179,-5.5179,-5.5179,-5.5179,-5.5179,-5.5179,-5.5179,-5.5179,-5.5179,-5.5179,-5.5179,-5.5179,-5.5179,-5.5179,-5.5179,-5.5179,-5.5179,-5.5179,-5.5179,-5.9153,-5.9099,-5.9099,-5.9099,-5.9099,0.0,0.0,-5.9099,-5.9099,-5.9099,-5.9099,-5.9099,-5.9099,-5.9099,-5.9099,-5.9099,-5.9099,-5.9099,-5.9099,-5.9099,-5.9099,-5.9099,-5.9099,-5.9099,-5.9099,-5.9099,-5.9099,-5.9099,-5.9099,-5.9099,-5.9099,-5.9099,-5.9099,-5.9099,-5.9099,-5.8949,-5.862,-5.7962,-5.7453,-5.7124,-5.6166,-5.584,-5.6063,-5.5732,-5.588,-5.6421,-5.6421,-5.6567,-5.681,-5.681,-5.681,-5.681,-5.681,-5.681,-5.681,-5.681,-5.681,-5.681,-5.681,-5.681,-5.681,-5.681,-5.681,-5.681,-5.681,-5.681,-5.6761,-5.6664,-5.6616,-5.6519,-5.6127,-5.588,-5.5731,-5.5481,-5.528,-5.5179,-5.5179,-5.5179,-5.5179,-5.5179,-5.5179,-5.5179,-5.5179,-5.5179,-5.5179,-5.5179,-5.5179,-5.5179,-5.5179,-5.5179,-5.5179,-5.5179,-5.5179,-5.5179,-5.5179,-5.5179,-5.5179,-5.5179,-5.5179,-5.5179,-5.5179,-5.5179,-5.5179,-5.5179,-5.5179,-5.5179,-5.5179,-5.5179,-5.5179,-5.5179,-5.5179,-5.5179,-5.9153,-5.9099,-5.9099,-5.9099,-5.9099,-5.9099,0.0,0.0,0.0,-5.9099,-5.9099,-5.9099,-5.9099,-5.9099,-5.9099,-5.9099,-5.9099,-5.9099,-5.9099,-5.9099,-5.9099,-5.9099,-5.9099,-5.9099,-5.9099,-5.9099,-5.9099,-5.9099,-5.9099,-5.9099,-5.9099,-5.9099,-5.9099,-5.9099,-5.8979,-5.865,-5.8141,-5.7334,-5.6675,-5.6218,-5.5559,-5.5431,-5.5681,-5.5731,-5.6028,-5.647,-5.647,-5.6616,-5.681,-5.681,-5.681,-5.681,-5.681,-5.681,-5.681,-5.681,-5.681,-5.681,-5.681,-5.681,-5.681,-5.681,-5.681,-5.681,-5.681,-5.681,-5.6761,-5.647,-5.6421,-5.6274,-5.5731,-5.5581,-5.5531,-5.5229,-5.5179,-5.5179,-5.5179,-5.5179,-5.5179,-5.5179,-5.5179,-5.5179,-5.5179,-5.5179,-5.5179,-5.5179,-5.5179,-5.5179,-5.5179,-5.5179,-5.5179,-5.5179,-5.5179,-5.5179,-5.5179,-5.5179,-5.5179,-5.5179,-5.5179,-5.5179,-5.5179,-5.5179,-5.5179,-5.5179,-5.5179,-5.5179,-5.5179,-5.5179,-5.5179,-5.5179,-5.5179,-5.5179,-5.9153,-5.9099,-5.9099,-5.9099,-5.9099,-5.9099,-5.9099,0.0,-5.9099,-5.9099,0.0,-5.9099,-5.9099,0.0,0.0,-5.9099,-5.9099,-5.9099,-5.9099,-5.9099,-5.9099,-5.9099,-5.9099,-5.9099,-5.9099,-5.9099,-5.9099,-5.9099,-5.9099,-5.9099,-5.9099,-5.9099,-5.9099,-5.9099,-5.853,-5.8201,-5.8112,-5.6885,-5.6308,-5.6218,-5.5761,-5.5681,-5.5979,-5.6225,-5.647,-5.6761,-5.6761,-5.6761,-5.681,-5.681,-5.681,-5.681,-5.681,-5.681,-5.681,-5.681,-5.681,-5.681,-5.681,-5.681,-5.681,-5.681,-5.681,-5.681,-5.681,-5.681,-5.6761,-5.647,-5.6421,-5.6274,-5.5731,-5.5581,-5.5531,-5.5229,-5.5179,-5.5179,-5.5179,-5.5179,-5.5179,-5.5179,-5.5179,-5.5179,-5.5179,-5.5179,-5.5179,-5.5179,-5.5179,-5.5179,-5.5179,-5.5179,-5.5179,-5.5179,-5.5179,-5.5179,-5.5179,-5.5179,-5.5179,-5.5179,-5.5179,-5.5179,-5.5179,-5.5179,-5.5179,-5.5179,-5.5179,-5.5179,-5.5179,-5.5179,-5.5179,-5.5179,-5.5179,-5.5179,-5.9153,-5.9629,-5.9992,-5.9285,-5.9683,-5.9992,-5.9231,-5.9099,-5.9099,-5.9099,0.0,0.0,0.0,0.0,0.0,0.0,-5.9099,-5.9099,-5.9099,-5.9099,-5.9099,-5.9099,-5.9099,-5.9099,-5.9099,-5.9099,-5.9099,-5.9099,-5.9099,-5.9099,-5.9099,-5.9099,-5.9099,-5.9099,-5.8471,-5.7932,-5.7513,-5.677,-5.6242,-5.5852,-5.5832,-5.5979,-5.6225,-5.6372,-5.6567,-5.681,-5.681,-5.681,-5.681,-5.681,-5.681,-5.681,-5.681,-5.681,-5.681,-5.681,-5.681,-5.681,-5.681,-5.681,-5.681,-5.681,-5.681,-5.681,-5.681,-5.681,-5.6713,-5.6274,-5.6176,-5.6028,-5.5481,-5.5381,-5.533,-5.5229,-5.5179,-5.5179,-5.5179,-5.5179,-5.5179,-5.5179,-5.5179,-5.5179,-5.5179,-5.5179,-5.5179,-5.5179,-5.5179,-5.5179,-5.5179,-5.5179,-5.5179,-5.5179,-5.5179,-5.5179,-5.5179,-5.5179,-5.5179,-5.5179,-5.5179,-5.5179,-5.5179,-5.5179,-5.5179,-5.5179,-5.5179,-5.5179,-5.5179,-5.5179,-5.5179,-5.5179,-5.5179,-5.5179,-5.9789,-6.0276,-6.0712,-5.9446,-5.9811,-6.0255,-5.9285,-5.9099,-5.9099,-5.9099,-5.9099,0.0,0.0,0.0,-5.9099,-5.9099,0.0,-5.9099,-5.9099,-5.9099,-5.9099,-5.9099,-5.9099,-5.9099,-5.9099,-5.9099,-5.9099,-5.9099,-5.9099,-5.9099,-5.9099,-5.9099,-5.9009,-5.883,-5.8201,-5.7513,-5.6855,-5.6504,-5.6063,-5.5581,-5.5929,-5.6225,-5.6421,-5.647,-5.6616,-5.681,-5.681,-5.681,-5.681,-5.681,-5.681,-5.681,-5.681,-5.681,-5.681,-5.681,-5.681,-5.681,-5.681,-5.681,-5.681,-5.681,-5.681,-5.681,-5.681,-5.681,-5.6713,-5.6176,-5.5979,-5.588,-5.533,-5.5179,-5.5179,-5.5179,-5.5179,-5.5179,-5.5179,-5.5179,-5.5179,-5.5179,-5.5179,-5.5179,-5.5179,-5.5179,-5.5179,-5.5179,-5.5179,-5.5179,-5.5179,-5.5179,-5.5179,-5.5179,-5.5179,-5.5179,-5.5179,-5.5179,-5.5179,-5.5179,-5.5179,-5.5179,-5.5179,-5.5179,-5.5179,-5.5179,-5.5179,-5.5179,-5.5179,-5.5179,-5.5179,-5.5179,-5.5179,-5.5179,-6.1344,-6.0938,-6.0712,-5.9446,-5.9153,-5.9153,-5.9099,-5.9099,-5.9099,-5.9099,-5.9099,-5.9099,-5.9099,-5.9099,-5.9099,-5.9099,-5.9099,0.0,0.0,-5.9099,-5.9099,-5.9099,-5.9099,-5.9099,-5.9099,-5.9099,-5.9099,-5.9099,-5.9099,-5.9099,-5.9099,-5.9099,-5.88,-5.8171,-5.7483,-5.6825,-5.6248,-5.5842,-5.5611,-5.5631,-5.6127,-5.6372,-5.6421,-5.6664,-5.681,-5.681,-5.681,-5.681,-5.681,-5.681,-5.681,-5.681,-5.681,-5.681,-5.681,-5.681,-5.681,-5.681,-5.681,-5.681,-5.681,-5.681,-5.681,-5.681,-5.681,-5.681,-5.6713,-5.6176,-5.5979,-5.588,-5.533,-5.5179,-5.5179,-5.5179,-5.5179,-5.5179,-5.5179,-5.5179,-5.5179,-5.5179,-5.5179,-5.5179,-5.5179,-5.5179,-5.5179,-5.5179,-5.5179,-5.5179,-5.5179,-5.5179,-5.5179,-5.5179,-5.5179,-5.5179,-5.5179,-5.5179,-5.5179,-5.5179,-5.5179,-5.5179,-5.5179,-5.5179,-5.5179,-5.5179,-5.5179,-5.5179,-5.5179,-5.5179,-5.5179,-5.5179,-5.5179,-5.5179,-6.2439,-6.2972,-6.3036,-6.0918,-6.102,-6.1255,-5.9499,-5.9099,-5.9099,-5.9099,-5.9099,-5.9099,-5.9099,-5.9099,-5.9099,-5.9099,-5.9099,-5.9099,0.0,-5.9099,-5.9099,-5.9099,-5.9099,-5.9099,-5.9099,-5.9099,-5.9099,-5.9099,-5.9099,-5.9099,-5.9099,-5.9099,-5.88,-5.8141,-5.7453,-5.6899,-5.6474,-5.6063,-5.5929,-5.6127,-5.6519,-5.6664,-5.6664,-5.6761,-5.681,-5.681,-5.681,-5.681,-5.681,-5.681,-5.681,-5.681,-5.681,-5.681,-5.681,-5.681,-5.681,-5.681,-5.681,-5.681,-5.681,-5.681,-5.681,-5.681,-5.681,-5.6664,-5.647,-5.6127,-5.588,-5.5631,-5.528,-5.5179,-5.5179,-5.5179,-5.5179,-5.5179,-5.5179,-5.5179,-5.5179,-5.5179,-5.5179,-5.5179,-5.5179,-5.5179,-5.5179,-5.5179,-5.5179,-5.5179,-5.5179,-5.5179,-5.5179,-5.5179,-5.5179,-5.5179,-5.5179,-5.5179,-5.5179,-5.5179,-5.5179,-5.5179,-5.5179,-5.5179,-5.5179,-5.5179,-5.5179,-5.5179,-5.5179,-5.5179,-5.5179,-5.5179,-5.5179,-5.5179,-6.3811,-6.4276,-6.4381,-6.2242,-6.2341,-6.2439,-6.0255,-5.9758,-5.9758,-5.9758,-5.9446,-5.9261,-5.9683,-5.9392,-5.9099,-5.9099,-5.9099,-5.9099,0.0,-5.9099,-5.9099,-5.9099,-5.9099,-5.9099,-5.9099,-5.9099,-5.9099,-5.9099,-5.9099,-5.9099,-5.9099,-5.889,-5.8441,-5.7782,-5.7228,-5.6723,-5.6214,-5.6191,-5.6225,-5.6421,-5.6664,-5.681,-5.681,-5.681,-5.681,-5.681,-5.681,-5.681,-5.681,-5.681,-5.681,-5.681,-5.681,-5.681,-5.681,-5.681,-5.681,-5.681,-5.681,-5.681,-5.681,-5.681,-5.681,-5.6761,-5.6713,-5.6519,-5.6323,-5.5979,-5.5731,-5.5531,-5.528,-5.5179,-5.5179,-5.5179,-5.5179,-5.5179,-5.5179,-5.5179,-5.5179,-5.5179,-5.5179,-5.5179,-5.5179,-5.5179,-5.5179,-5.5179,-5.5179,-5.5179,-5.5179,-5.5179,-5.5179,-5.5179,-5.5179,-5.5179,-5.5179,-5.5179,-5.5179,-5.5179,-5.5179,-5.5179,-5.5179,-5.5179,-5.5299,-5.5538,-5.5299,-5.5299,-5.5538,-5.5299,-5.5179,-5.5179,-5.5179,-5.5179]},{"header":{"parameterUnit":"m.s-1","parameterCategory":1,"la1":30.6,"la2":29.2853,"lo1":-89.7004,"lo2":-87.6739,"dy":0.0162,"dx":0.0183,"nx":112,"ny":82,"refTime":"2023-06-10T18:00:00:Z","depth":0,"parameterNumber":3,"parameterNumberName":"V-component_of_WINDS"},"data":[0.0,0.0,0.0,0.0,0.0,0.0,0.0,0.0,0.0,0.0,0.0,0.0,0.0,0.0,0.0,0.0,0.0,0.0,0.0,0.0,0.0,0.0,0.0,0.0,0.0,0.0,0.0,0.0,0.0,0.0,0.0,0.0,0.0,0.0,0.0,0.0,0.0,0.0,0.0,0.0,0.0,0.0,0.0,0.0,0.0,0.0,0.0,0.0,0.0,0.0,0.0,0.0,0.0,0.0,0.0,0.0,0.0,0.0,0.0,0.0,0.0,0.0,0.0,0.0,0.0,0.0,0.0,0.0,0.0,0.0,0.0,0.0,0.0,0.0,0.0,0.0,0.0,0.0,0.0,0.0,0.0,0.0,0.0,0.0,0.0,0.0,0.0,0.0,0.0,0.0,-5.3107,-5.2006,-5.2405,-5.2882,-5.2995,-5.5074,-5.6461,-5.6549,0.0,0.0,0.0,0.0,0.0,0.0,0.0,0.0,0.0,0.0,0.0,0.0,0.0,0.0,0.0,0.0,0.0,0.0,0.0,0.0,0.0,0.0,0.0,0.0,0.0,0.0,0.0,0.0,0.0,0.0,0.0,0.0,0.0,0.0,0.0,0.0,0.0,0.0,0.0,0.0,0.0,0.0,0.0,0.0,0.0,0.0,0.0,0.0,0.0,0.0,0.0,0.0,0.0,0.0,0.0,0.0,0.0,0.0,0.0,0.0,0.0,0.0,0.0,0.0,0.0,0.0,0.0,0.0,0.0,0.0,0.0,0.0,0.0,0.0,0.0,0.0,0.0,0.0,0.0,0.0,0.0,0.0,0.0,0.0,0.0,0.0,0.0,0.0,0.0,0.0,0.0,0.0,0.0,0.0,0.0,0.0,0.0,0.0,0.0,0.0,0.0,0.0,0.0,0.0,-5.328,-5.2627,-5.3051,-5.3641,-5.4289,-5.559,-5.6636,-5.7129,0.0,0.0,0.0,0.0,0.0,0.0,0.0,0.0,0.0,0.0,0.0,0.0,0.0,0.0,0.0,0.0,0.0,0.0,0.0,0.0,0.0,0.0,0.0,0.0,0.0,0.0,0.0,0.0,0.0,0.0,0.0,0.0,0.0,0.0,0.0,0.0,0.0,0.0,0.0,0.0,0.0,0.0,0.0,0.0,0.0,0.0,0.0,0.0,0.0,0.0,0.0,0.0,0.0,0.0,0.0,0.0,0.0,0.0,0.0,0.0,0.0,0.0,0.0,0.0,0.0,0.0,0.0,0.0,0.0,0.0,0.0,0.0,0.0,0.0,0.0,0.0,0.0,0.0,0.0,0.0,0.0,0.0,0.0,0.0,0.0,0.0,0.0,0.0,0.0,0.0,0.0,0.0,0.0,0.0,0.0,0.0,0.0,0.0,0.0,0.0,0.0,0.0,0.0,-5.2838,-5.2267,-5.3023,-5.3044,-5.34,-5.4456,-5.5992,-5.7013,-5.7274,-5.7303,0.0,0.0,0.0,0.0,0.0,0.0,0.0,0.0,0.0,0.0,0.0,0.0,0.0,0.0,0.0,0.0,0.0,0.0,0.0,0.0,0.0,0.0,0.0,0.0,0.0,0.0,0.0,0.0,0.0,0.0,0.0,0.0,0.0,0.0,0.0,0.0,0.0,0.0,0.0,0.0,0.0,0.0,0.0,0.0,0.0,0.0,0.0,0.0,0.0,0.0,0.0,0.0,0.0,0.0,0.0,0.0,0.0,0.0,0.0,0.0,0.0,0.0,0.0,0.0,0.0,0.0,0.0,0.0,0.0,0.0,0.0,0.0,0.0,0.0,0.0,0.0,0.0,0.0,0.0,0.0,0.0,0.0,0.0,0.0,0.0,0.0,0.0,0.0,0.0,0.0,0.0,0.0,0.0,0.0,0.0,0.0,0.0,0.0,0.0,0.0,0.0,0.0,-5.2883,-5.2258,-5.398,-5.3624,-5.3782,-5.5054,-5.6478,-5.7303,-5.7303,-5.7303,0.0,0.0,0.0,0.0,0.0,0.0,0.0,0.0,0.0,0.0,0.0,0.0,0.0,0.0,0.0,0.0,0.0,0.0,0.0,0.0,0.0,0.0,0.0,0.0,0.0,0.0,0.0,0.0,0.0,0.0,0.0,0.0,0.0,0.0,0.0,0.0,0.0,0.0,0.0,0.0,0.0,0.0,0.0,0.0,0.0,0.0,0.0,0.0,0.0,0.0,0.0,0.0,0.0,0.0,0.0,0.0,0.0,0.0,0.0,0.0,0.0,0.0,0.0,0.0,0.0,0.0,0.0,0.0,0.0,0.0,0.0,0.0,0.0,0.0,0.0,0.0,0.0,0.0,0.0,0.0,0.0,0.0,0.0,0.0,0.0,0.0,0.0,0.0,0.0,0.0,0.0,0.0,0.0,0.0,0.0,0.0,0.0,0.0,0.0,0.0,0.0,0.0,-5.4685,-5.4743,-5.6039,-5.5566,-5.5704,-5.6991,-5.7218,-5.7303,-5.7303,-5.7303,0.0,0.0,0.0,0.0,0.0,0.0,0.0,0.0,0.0,0.0,0.0,0.0,0.0,0.0,0.0,0.0,0.0,0.0,0.0,0.0,0.0,0.0,0.0,0.0,0.0,0.0,0.0,0.0,0.0,0.0,0.0,0.0,0.0,0.0,0.0,0.0,0.0,0.0,0.0,0.0,0.0,0.0,0.0,0.0,0.0,0.0,0.0,0.0,0.0,0.0,0.0,0.0,0.0,0.0,0.0,0.0,0.0,0.0,0.0,0.0,0.0,0.0,0.0,0.0,0.0,0.0,0.0,0.0,0.0,0.0,0.0,0.0,0.0,0.0,0.0,0.0,0.0,0.0,0.0,0.0,0.0,0.0,0.0,0.0,0.0,0.0,0.0,0.0,0.0,0.0,0.0,0.0,0.0,0.0,0.0,0.0,0.0,0.0,0.0,0.0,0.0,0.0,-5.5111,-5.4825,-5.568,-5.5561,-5.5586,-5.605,-5.6822,-5.7303,-5.7303,0.0,0.0,0.0,0.0,0.0,0.0,0.0,0.0,0.0,0.0,0.0,0.0,0.0,0.0,0.0,0.0,0.0,0.0,0.0,0.0,0.0,0.0,0.0,0.0,0.0,0.0,0.0,0.0,0.0,0.0,0.0,0.0,0.0,0.0,0.0,0.0,0.0,0.0,0.0,0.0,0.0,0.0,0.0,0.0,0.0,0.0,0.0,0.0,0.0,0.0,0.0,0.0,0.0,0.0,0.0,0.0,0.0,0.0,0.0,0.0,0.0,0.0,0.0,0.0,0.0,0.0,0.0,0.0,0.0,0.0,0.0,0.0,0.0,0.0,0.0,0.0,0.0,0.0,0.0,0.0,0.0,0.0,0.0,0.0,0.0,0.0,0.0,0.0,0.0,0.0,0.0,0.0,0.0,0.0,0.0,0.0,0.0,0.0,0.0,0.0,0.0,0.0,-5.6636,-5.5907,-5.5538,-5.5935,-5.5992,-5.5992,-5.5992,-5.6822,-5.7303,-5.7303,0.0,0.0,0.0,0.0,0.0,0.0,0.0,0.0,0.0,0.0,0.0,0.0,0.0,0.0,0.0,0.0,0.0,0.0,0.0,0.0,0.0,0.0,0.0,0.0,0.0,0.0,0.0,0.0,0.0,0.0,0.0,0.0,0.0,0.0,0.0,0.0,0.0,0.0,0.0,0.0,0.0,0.0,0.0,0.0,0.0,0.0,0.0,0.0,0.0,0.0,0.0,0.0,0.0,0.0,0.0,0.0,0.0,0.0,0.0,0.0,0.0,0.0,0.0,0.0,0.0,0.0,0.0,0.0,0.0,0.0,0.0,0.0,0.0,0.0,0.0,0.0,0.0,0.0,0.0,0.0,0.0,0.0,0.0,0.0,0.0,0.0,0.0,0.0,0.0,0.0,0.0,0.0,0.0,0.0,0.0,0.0,0.0,0.0,0.0,0.0,0.0,0.0,-5.7303,-5.7303,-5.7303,-5.7303,-5.7303,-5.7303,-5.7303,-5.7303,-5.7303,0.0,0.0,0.0,0.0,0.0,0.0,0.0,0.0,0.0,0.0,0.0,0.0,0.0,0.0,0.0,0.0,0.0,0.0,0.0,0.0,0.0,0.0,0.0,0.0,0.0,0.0,0.0,0.0,0.0,0.0,0.0,0.0,0.0,0.0,0.0,0.0,0.0,0.0,0.0,0.0,0.0,0.0,0.0,0.0,0.0,0.0,0.0,0.0,0.0,0.0,0.0,0.0,0.0,0.0,0.0,0.0,0.0,0.0,0.0,0.0,0.0,0.0,0.0,0.0,0.0,0.0,0.0,0.0,0.0,0.0,0.0,0.0,0.0,0.0,0.0,0.0,0.0,0.0,0.0,0.0,0.0,0.0,0.0,0.0,0.0,0.0,0.0,0.0,0.0,0.0,0.0,0.0,0.0,0.0,0.0,0.0,0.0,0.0,0.0,0.0,0.0,0.0,0.0,-5.7303,-5.7303,-5.7303,-5.7303,-5.7303,-5.7303,-5.7303,-5.7303,-5.7303,-5.7303,0.0,0.0,0.0,0.0,0.0,0.0,0.0,0.0,0.0,0.0,0.0,0.0,0.0,0.0,0.0,0.0,0.0,0.0,0.0,0.0,0.0,0.0,0.0,0.0,0.0,0.0,0.0,0.0,0.0,0.0,0.0,0.0,0.0,0.0,0.0,0.0,0.0,0.0,0.0,0.0,0.0,0.0,0.0,0.0,0.0,0.0,0.0,0.0,0.0,0.0,0.0,0.0,0.0,0.0,0.0,0.0,0.0,0.0,0.0,0.0,0.0,0.0,0.0,0.0,0.0,0.0,0.0,0.0,0.0,0.0,0.0,0.0,0.0,0.0,0.0,0.0,0.0,0.0,0.0,0.0,0.0,0.0,0.0,0.0,0.0,0.0,0.0,0.0,0.0,0.0,0.0,0.0,0.0,0.0,0.0,0.0,0.0,0.0,0.0,0.0,0.0,0.0,-5.7303,-5.7303,-5.7303,-5.7303,-5.7303,-5.7303,-5.7303,-5.7303,-5.7303,-5.7303,0.0,0.0,0.0,0.0,0.0,0.0,0.0,0.0,0.0,0.0,0.0,0.0,0.0,0.0,0.0,0.0,0.0,0.0,0.0,0.0,0.0,0.0,0.0,0.0,0.0,0.0,0.0,0.0,0.0,0.0,0.0,0.0,0.0,0.0,0.0,0.0,0.0,0.0,0.0,0.0,0.0,0.0,0.0,0.0,0.0,0.0,0.0,0.0,0.0,0.0,0.0,0.0,0.0,0.0,0.0,0.0,0.0,0.0,0.0,0.0,0.0,0.0,0.0,0.0,0.0,0.0,0.0,0.0,0.0,0.0,0.0,0.0,0.0,0.0,0.0,0.0,0.0,0.0,0.0,0.0,0.0,0.0,0.0,0.0,0.0,0.0,0.0,0.0,0.0,0.0,0.0,0.0,0.0,0.0,0.0,0.0,0.0,0.0,0.0,0.0,0.0,0.0,-5.7303,-5.7303,-5.7303,-5.7303,-5.7303,-5.7303,-5.7303,-5.7303,-5.7303,-5.7303,0.0,0.0,0.0,0.0,0.0,0.0,0.0,0.0,0.0,0.0,0.0,0.0,0.0,0.0,0.0,0.0,0.0,0.0,0.0,0.0,0.0,0.0,0.0,0.0,0.0,0.0,0.0,0.0,0.0,0.0,0.0,0.0,0.0,0.0,0.0,0.0,0.0,0.0,0.0,0.0,0.0,0.0,0.0,0.0,0.0,0.0,0.0,0.0,0.0,0.0,0.0,0.0,0.0,0.0,0.0,0.0,0.0,0.0,0.0,0.0,-5.4599,-5.5379,0.0,0.0,0.0,0.0,0.0,0.0,0.0,0.0,0.0,0.0,0.0,0.0,0.0,0.0,0.0,0.0,0.0,0.0,0.0,0.0,0.0,0.0,0.0,0.0,0.0,0.0,0.0,0.0,0.0,0.0,0.0,0.0,0.0,0.0,0.0,0.0,0.0,0.0,0.0,0.0,-5.7303,-5.7303,-5.7303,-5.7303,-5.7303,-5.7303,-5.7303,-5.7303,-5.7303,-5.7303,-5.7303,0.0,0.0,0.0,0.0,0.0,0.0,0.0,0.0,0.0,0.0,0.0,0.0,0.0,0.0,0.0,0.0,0.0,0.0,0.0,0.0,0.0,0.0,0.0,0.0,0.0,0.0,0.0,0.0,0.0,0.0,0.0,0.0,0.0,0.0,0.0,0.0,0.0,0.0,0.0,0.0,0.0,0.0,0.0,0.0,0.0,0.0,0.0,0.0,0.0,0.0,0.0,0.0,0.0,0.0,0.0,0.0,0.0,0.0,0.0,-5.4355,-5.5215,0.0,0.0,0.0,0.0,0.0,0.0,0.0,0.0,0.0,0.0,0.0,0.0,0.0,0.0,0.0,0.0,0.0,0.0,0.0,0.0,0.0,0.0,0.0,0.0,0.0,0.0,0.0,0.0,0.0,0.0,0.0,0.0,0.0,0.0,0.0,0.0,0.0,0.0,0.0,0.0,-5.7303,-5.7303,-5.7303,-5.7303,-5.7303,-5.7303,-5.7303,-5.7303,-5.7303,-5.7303,-5.7303,0.0,0.0,0.0,0.0,0.0,0.0,0.0,0.0,0.0,0.0,0.0,0.0,0.0,0.0,0.0,0.0,0.0,0.0,0.0,0.0,0.0,0.0,0.0,0.0,0.0,0.0,0.0,0.0,0.0,0.0,0.0,0.0,0.0,0.0,0.0,0.0,0.0,0.0,0.0,0.0,0.0,0.0,0.0,0.0,0.0,0.0,0.0,0.0,0.0,0.0,0.0,0.0,0.0,-4.9671,-4.9912,-5.0917,-5.1574,-5.2202,-5.2834,-5.4051,-5.4934,-5.5496,-5.5496,0.0,0.0,0.0,0.0,0.0,0.0,0.0,0.0,0.0,0.0,0.0,0.0,0.0,0.0,0.0,0.0,0.0,0.0,0.0,0.0,0.0,0.0,-5.7303,-5.7303,-5.7303,-5.7303,-5.7303,0.0,0.0,0.0,0.0,0.0,0.0,0.0,0.0,0.0,0.0,0.0,-5.7303,-5.7303,-5.7303,-5.7303,-5.7303,-5.7303,-5.7303,-5.7303,-5.7303,-5.7303,-5.7303,-5.7303,0.0,0.0,0.0,0.0,0.0,0.0,0.0,0.0,0.0,0.0,0.0,0.0,0.0,0.0,0.0,0.0,0.0,0.0,0.0,0.0,0.0,0.0,0.0,0.0,0.0,0.0,0.0,0.0,0.0,0.0,0.0,0.0,-5.2996,-5.2996,0.0,0.0,0.0,0.0,0.0,0.0,0.0,0.0,0.0,0.0,0.0,0.0,0.0,-5.0906,-4.9985,-5.1017,-5.154,-5.1568,-5.1459,-5.1487,-5.1708,-5.2323,-5.2939,-5.3583,-5.4286,0.0,-5.5496,-5.5496,0.0,0.0,0.0,0.0,0.0,0.0,0.0,0.0,0.0,0.0,0.0,0.0,0.0,0.0,0.0,0.0,0.0,0.0,0.0,0.0,0.0,0.0,-5.7303,-5.7303,-5.7303,-5.7303,-5.7303,-5.7303,-5.7303,-5.7303,-5.7303,-5.7303,0.0,0.0,0.0,0.0,0.0,0.0,-5.7303,-5.7303,-5.7303,-5.7303,-5.7303,-5.7303,-5.7303,-5.7303,-5.7303,-5.7303,-5.7303,-5.7303,-5.7303,-5.7303,0.0,0.0,0.0,0.0,0.0,0.0,0.0,0.0,0.0,0.0,0.0,0.0,0.0,0.0,0.0,0.0,0.0,0.0,0.0,0.0,0.0,0.0,0.0,0.0,0.0,0.0,0.0,0.0,0.0,-5.3049,-5.35,-5.35,-5.35,-5.3477,0.0,0.0,0.0,0.0,0.0,0.0,0.0,0.0,0.0,-5.0405,-5.0628,-5.0795,-5.0962,-5.1485,-5.1787,-5.1787,-5.2124,-5.2321,-5.2321,-5.2967,-5.3585,-5.4203,-5.4484,-5.4934,-5.5496,-5.5496,-5.5496,-5.5496,0.0,0.0,0.0,0.0,-5.6509,-5.6766,-5.7134,-5.7303,-5.7303,-5.7303,0.0,0.0,0.0,0.0,0.0,0.0,0.0,-5.7303,-5.7303,-5.7303,-5.7303,-5.7303,-5.7303,-5.7303,-5.7303,-5.7303,-5.7303,-5.7303,-5.7303,-5.7303,-5.7303,-5.7303,0.0,0.0,0.0,-5.7303,-5.7303,-5.7303,-5.7303,-5.7303,-5.7303,-5.7303,-5.7303,-5.7303,-5.7303,-5.7303,-5.7303,-5.7303,-5.7303,-5.7303,-5.7303,0.0,0.0,0.0,0.0,0.0,0.0,0.0,0.0,0.0,0.0,0.0,0.0,0.0,0.0,0.0,0.0,0.0,0.0,0.0,0.0,0.0,0.0,0.0,0.0,0.0,0.0,0.0,0.0,-5.2541,-5.35,-5.35,-5.3424,-5.3319,0.0,0.0,0.0,0.0,0.0,0.0,-5.2059,-5.1017,-5.0795,-5.1787,-5.0906,-5.0851,-5.1787,-5.1787,-5.1871,-5.204,-5.2489,-5.2798,-5.2967,-5.3613,-5.4147,-5.4597,-5.4737,-5.5074,-5.5496,-5.5496,-5.5496,-5.5496,-5.5496,-5.5613,-5.5932,-5.6193,-5.648,-5.6823,-5.7078,-5.7247,-5.7303,-5.7303,-5.7303,-5.7303,-5.7303,0.0,0.0,0.0,0.0,-5.7303,-5.7303,-5.7303,-5.7303,-5.7303,-5.7303,-5.7303,-5.7303,-5.7303,-5.7303,-5.7303,-5.7303,-5.7303,-5.7303,-5.7303,0.0,-5.7303,-5.7303,-5.7303,-5.7303,-5.7303,-5.7303,-5.7303,-5.7303,-5.7303,-5.7303,-5.7303,-5.7303,-5.7303,-5.7303,-5.7303,-5.7303,-5.7303,-5.7303,-5.7303,0.0,0.0,0.0,0.0,0.0,0.0,0.0,0.0,0.0,0.0,0.0,0.0,0.0,0.0,0.0,0.0,0.0,0.0,0.0,0.0,0.0,0.0,0.0,0.0,0.0,0.0,0.0,0.0,0.0,-5.35,-5.3266,0.0,0.0,0.0,0.0,-5.2221,-5.1896,-5.1732,-5.1841,-5.1732,-5.1732,-5.1787,-5.1732,-5.1732,-5.1787,-5.1787,-5.2096,-5.2658,-5.2686,-5.3023,-5.3641,-5.4259,-5.4569,-5.4625,-5.5215,-5.5468,-5.5496,-5.5496,-5.5496,-5.5496,-5.5496,-5.5496,-5.5554,-5.5932,-5.6193,-5.6451,-5.6823,-5.7107,-5.7303,-5.7303,-5.7303,-5.7303,-5.7303,-5.7303,0.0,0.0,-5.7303,-5.7303,-5.7303,-5.7303,-5.7303,-5.7303,-5.7303,-5.7303,-5.7303,-5.7303,-5.7303,-5.7303,-5.7303,-5.7303,-5.7303,0.0,-5.7303,-5.7303,-5.7303,-5.7303,-5.7303,-5.7303,-5.7303,-5.7303,-5.7303,-5.7303,-5.7303,-5.7303,-5.7303,-5.7303,-5.7303,-5.7303,-5.7303,-5.7303,-5.7303,-5.7303,-5.7303,0.0,0.0,0.0,0.0,0.0,0.0,0.0,0.0,0.0,0.0,0.0,0.0,0.0,0.0,0.0,0.0,0.0,0.0,0.0,0.0,0.0,0.0,0.0,0.0,0.0,0.0,0.0,0.0,-5.35,-5.3424,0.0,-5.2894,-5.268,-5.2358,-5.195,-5.1841,-5.1787,-5.1787,-5.1787,-5.1787,-5.1787,-5.1787,-5.1787,-5.1787,-5.1787,-5.2096,-5.2714,-5.3135,-5.3669,-5.4288,-5.4906,-5.5187,-5.5187,-5.5412,-5.5496,-5.5496,-5.5496,-5.5496,-5.5496,-5.5496,-5.5496,-5.5554,-5.6077,-5.6308,-5.6451,-5.6964,-5.7191,-5.7303,-5.7303,-5.7303,-5.7303,-5.7303,-5.7303,-5.7303,-5.7303,-5.7303,-5.7303,-5.7303,-5.7303,-5.7303,-5.7303,-5.7303,-5.7303,-5.7303,-5.7303,-5.7303,-5.7303,-5.7303,-5.7303,-5.7303,-5.7303,-5.7303,-5.7303,-5.7303,-5.7303,-5.7303,-5.7303,-5.7303,-5.7303,-5.7303,-5.7303,-5.7303,-5.7303,-5.7303,-5.7303,-5.7303,-5.7303,-5.7303,-5.7303,-5.7303,-5.7303,-5.7303,-5.7303,0.0,0.0,0.0,0.0,0.0,0.0,0.0,0.0,0.0,0.0,0.0,0.0,0.0,0.0,0.0,0.0,0.0,0.0,0.0,0.0,0.0,0.0,0.0,0.0,0.0,-5.273,-5.35,-5.35,-5.2943,-5.2623,-5.268,-5.2167,-5.1759,-5.1787,-5.1787,-5.1787,-5.1787,-5.1787,-5.1787,-5.1787,-5.1787,-5.1787,-5.1787,-5.1983,-5.2405,-5.3051,-5.3669,-5.4316,-5.4906,-5.5327,-5.5496,-5.5496,-5.5496,-5.5496,-5.5496,-5.5496,-5.5496,-5.5496,-5.5496,-5.5496,-5.5554,-5.5961,-5.6222,-5.6509,-5.7078,-5.7303,-5.7303,-5.7303,-5.7303,-5.7303,-5.7303,-5.7303,-5.7303,-5.7303,-5.7303,-5.7303,-5.7303,-5.7303,-5.7303,-5.7303,-5.7303,-5.7303,-5.7303,-5.7303,-5.7303,-5.7303,-5.7303,-5.7303,-5.7303,-5.7303,-5.7303,-5.7303,-5.7303,-5.7303,-5.7303,-5.7303,-5.7303,-5.7303,-5.7303,-5.7303,-5.7303,-5.7303,-5.7303,-5.7303,-5.7303,-5.7303,-5.7303,-5.7303,-5.7303,-5.7303,-5.7303,-5.7303,-5.7303,0.0,0.0,0.0,0.0,0.0,0.0,0.0,0.0,0.0,0.0,0.0,0.0,0.0,0.0,0.0,0.0,0.0,0.0,0.0,0.0,0.0,0.0,0.0,-5.162,-5.273,-5.3448,-5.3448,-5.192,-5.132,-5.2573,-5.1017,-5.0434,-5.1677,-5.1787,-5.1732,-5.1732,-5.1787,-5.1787,-5.1677,-5.1732,-5.1787,-5.176,-5.2405,-5.3051,-5.3726,-5.4316,-5.4906,-5.5496,-5.5496,-5.5496,-5.5496,-5.5496,-5.5496,-5.5496,-5.5496,-5.5496,-5.5496,-5.5496,-5.5496,-5.5496,-5.5496,-5.5903,-5.6509,-5.7078,-5.7303,-5.7303,-5.7303,-5.7303,-5.7303,-5.7303,-5.7303,-5.7303,-5.7303,-5.7303,-5.7303,-5.7303,-5.7303,-5.7303,-5.7303,-5.7303,-5.7303,-5.7303,-5.7303,-5.7303,-5.7303,-5.7303,-5.7303,-5.7303,-5.7303,-5.7303,-5.7303,-5.7303,0.0,-5.7303,-5.7303,-5.7303,-5.7303,-5.7303,-5.7303,-5.7303,-5.7303,-5.7303,-5.7303,-5.7303,-5.7303,-5.7303,-5.7303,-5.7303,-5.7303,-5.7303,-5.7303,-5.7303,0.0,0.0,0.0,0.0,0.0,0.0,0.0,0.0,0.0,0.0,0.0,0.0,0.0,0.0,0.0,0.0,0.0,0.0,0.0,0.0,0.0,-4.8709,-4.9529,-5.0297,-5.2218,-5.3131,-5.2002,-5.2247,-5.2437,-5.2358,-5.1072,-5.0684,-5.1732,-5.0962,-5.0434,-5.0434,-5.132,-5.0989,-4.919,-5.0851,-5.1599,-5.1175,-5.2156,-5.3248,-5.4344,-5.4512,-5.4906,-5.5496,-5.5496,-5.5496,-5.5496,-5.5496,-5.5496,-5.5496,-5.5496,-5.5496,-5.5496,-5.5496,-5.5496,-5.5496,-5.5729,-5.625,-5.6823,-5.7191,-5.7303,-5.7303,-5.7303,-5.7303,-5.7303,-5.7303,-5.7303,-5.7303,-5.7303,-5.7303,-5.7303,-5.7303,-5.7303,-5.7303,-5.7303,-5.7303,-5.7303,-5.7303,-5.7303,-5.7303,-5.7303,-5.7303,-5.7303,-5.7303,-5.7303,-5.7303,-5.7303,-5.7303,-5.7303,-5.7303,-5.7303,-5.7303,-5.7303,-5.7303,-5.7303,-5.7303,-5.7303,-5.7303,-5.7303,-5.7303,-5.7303,-5.7303,-5.7303,-5.7303,-5.7303,-5.7303,-5.7303,0.0,0.0,0.0,0.0,0.0,0.0,0.0,0.0,0.0,0.0,0.0,0.0,0.0,0.0,0.0,0.0,0.0,0.0,0.0,0.0,0.0,0.0,-4.8056,-4.8134,-5.0023,-5.1499,-5.2095,-5.1347,-5.1785,-5.1731,-5.0768,-4.9928,-4.9646,-5.0237,-4.9589,-4.9164,-4.9164,-4.9872,-4.9589,-4.8152,-4.9475,-5.017,-5.0072,-5.101,-5.1983,-5.2938,-5.3744,-5.4342,-5.4675,-5.5261,-5.5496,-5.5496,-5.5496,-5.5496,-5.5496,-5.5496,-5.5496,-5.5496,0.0,0.0,0.0,0.0,-5.648,-5.6936,-5.7191,-5.7303,-5.7303,-5.7303,-5.7303,-5.7303,-5.7303,-5.7303,-5.7303,-5.7303,-5.7303,-5.7303,-5.7303,-5.7303,-5.7303,-5.7303,-5.7303,-5.7303,-5.7303,-5.7536,-5.771,-5.771,-5.7942,0.0,-5.8145,-5.7681,-5.7303,-5.7303,-5.7303,-5.7303,-5.7303,-5.7303,-5.7303,-5.7303,-5.7303,-5.7303,-5.7303,-5.7303,0.0,0.0,0.0,-5.7303,-5.7303,-5.7303,0.0,0.0,0.0,-5.7303,-5.7303,-5.7303,0.0,0.0,-5.7129,-5.71,0.0,0.0,0.0,0.0,0.0,0.0,0.0,0.0,0.0,0.0,0.0,0.0,0.0,0.0,0.0,0.0,-4.7539,-4.7145,-5.007,-5.0425,-5.0568,-5.0906,-5.0713,-4.9987,-4.8621,-4.8126,-4.7977,-4.8094,-4.7977,-4.7919,-4.7919,-4.8035,0.0,0.0,0.0,-4.8401,-4.8797,-4.955,-5.0185,-5.076,-5.2634,-5.3423,-5.3302,-5.4675,-5.5261,-5.5261,-5.5261,-5.5379,-5.5496,-5.5496,-5.5496,-5.5496,-5.5554,-5.5554,-5.5613,-5.6222,-5.6652,-5.6936,-5.7191,0.0,0.0,-5.7303,-5.7303,-5.7303,-5.7303,-5.7303,-5.7303,-5.7303,-5.7361,-5.7419,-5.7419,-5.7477,-5.7536,-5.7536,-5.7536,-5.7536,-5.7536,-5.8,-5.8406,-5.8406,-5.89,-5.9306,-5.9306,-5.8319,-5.7536,-5.7536,-5.7536,-5.7536,-5.7536,-5.7536,-5.7536,-5.7536,-5.7536,0.0,-5.7536,-5.7448,-5.7419,-5.7419,-5.7332,-5.7303,-5.7303,-5.7303,-5.7303,-5.7303,-5.7303,-5.7303,-5.7303,-5.7303,-5.7303,-5.7303,-5.7303,-5.7303,0.0,0.0,0.0,0.0,0.0,0.0,0.0,0.0,0.0,0.0,0.0,0.0,0.0,0.0,0.0,-4.6648,-4.5485,-4.5283,-4.8192,-4.8016,-4.8042,-4.9284,-4.9137,-4.8736,-4.8242,-4.7213,-4.6976,-4.8035,-4.7154,-4.656,-4.656,-4.7567,-4.7154,-4.5098,-4.747,-4.8523,-4.8114,-4.9661,-5.0724,-5.1335,-5.2822,0.0,-5.1927,-5.3241,-5.3872,-5.3872,-5.3872,-5.4497,-5.5496,-5.5496,-5.5496,-5.5496,-5.5787,-5.5932,-5.599,-5.6595,-5.6823,-5.6936,-5.7191,-5.7303,-5.7303,-5.7303,-5.7303,-5.7303,-5.7303,-5.7303,0.0,-5.7303,-5.7681,-5.8116,-5.8116,-5.8523,-5.89,-5.89,-5.89,-5.89,-5.89,-5.9016,-5.9103,-5.9103,-5.9219,-5.9306,-5.9306,-5.9074,-5.89,-5.89,-5.89,-5.89,-5.89,-5.89,-5.89,-5.89,-5.89,-5.89,-5.89,-5.8435,-5.8116,-5.8116,-5.7594,-5.7303,-5.7303,-5.7303,-5.7303,-5.7303,-5.7303,-5.7303,-5.7303,-5.7303,-5.7303,-5.7303,-5.7303,-5.7303,0.0,0.0,0.0,0.0,0.0,0.0,0.0,0.0,0.0,0.0,0.0,-4.6084,-4.5249,0.0,-4.5415,-4.6569,-4.5542,-4.5541,-4.8162,-4.7048,-4.6422,-4.7873,-4.8332,-4.7867,-4.6345,-4.6225,-4.6225,-4.6225,-4.5646,-4.522,-4.522,-4.6138,-4.6043,-4.4732,-4.6464,-4.7359,-4.7297,-4.8181,-4.8962,-4.9515,-5.0891,-5.1142,-5.0575,-5.1865,-5.2508,-5.2508,-5.2508,-5.2876,-5.3571,-5.4589,-5.552,-5.6511,-5.6778,-5.6645,-5.625,-5.6537,-5.688,-5.7192,-5.7624,-5.7797,-5.7855,-5.8203,-5.829,-5.829,-5.829,-5.829,-5.829,-5.829,-5.8552,-5.8813,-5.8813,-5.9045,-5.9306,-5.9306,-5.9306,-5.9306,-5.9306,-5.9539,-5.9742,-5.9742,-6.0032,-6.0264,-6.0264,-6.0264,-6.0032,-5.9393,-5.9306,-5.9306,-5.9306,-5.9306,-5.9306,-5.9306,-5.9306,-5.9306,-5.9306,-5.8987,-5.8813,-5.8813,-5.8174,-5.7797,-5.7797,-5.7477,-5.7303,-5.7303,-5.7303,-5.7303,-5.7303,-5.7303,-5.7303,-5.7303,-5.7303,-5.7303,0.0,0.0,0.0,0.0,0.0,0.0,0.0,-4.4042,-4.4424,-4.3517,-4.4752,-4.5714,-4.4886,-4.5235,-4.5902,-4.6733,-4.5996,-4.5999,-4.8062,-4.6437,-4.5475,-4.6628,-4.7339,-4.6891,-4.4508,-4.522,-4.5403,-4.4409,-4.4381,-4.4429,-4.4429,-4.4933,-4.5285,-4.5285,-4.579,-4.6271,-4.6704,-4.6824,-4.7088,-4.7497,-4.8893,-4.9386,-4.9127,-5.0614,-5.1298,-5.1298,-5.1654,-5.1831,-5.192,-5.3459,-5.5114,-5.6593,-5.6898,-5.6764,-5.6389,-5.6708,-5.7225,-5.7768,-5.8319,-5.8493,-5.8581,-5.9132,-5.9306,-5.9306,-5.9306,-5.9306,-5.9306,-5.9306,-5.9393,-5.948,-5.948,-5.9568,-5.9684,-5.9684,-5.9684,-5.9684,-5.9684,-6.0061,-6.038,-6.038,-6.0816,-6.1193,-6.1193,-6.1193,-6.0845,-5.9829,-5.9684,-5.9684,-5.9684,-5.9684,-5.9684,-5.9684,-5.9684,-5.9626,-5.948,-5.948,-5.9422,-5.9306,-5.8784,-5.8493,-5.8493,-5.7855,-5.7507,-5.7507,-5.7361,-5.7303,-5.7303,-5.7303,-5.7303,-5.7303,-5.7303,-5.7303,-4.4287,-4.3653,-4.3129,-4.3042,-4.2986,-4.324,0.0,-4.4615,-4.467,-4.4507,-4.4724,-4.4832,-4.4724,-4.3987,-4.3891,-4.5454,-4.5135,-4.4976,-4.5783,-4.554,-4.5318,-4.5489,-4.5306,-4.4939,-4.4347,-4.4409,-4.447,-4.4285,-4.4717,-4.4981,-4.4981,-4.5549,-4.5838,-4.5838,-4.6343,-4.6655,-4.6704,-4.7185,-4.7449,-4.7497,-4.8893,-4.8868,-4.7762,-4.9626,-5.0413,-5.0504,-5.222,-5.2905,-5.2969,-5.315,-5.3357,-5.3602,-5.4039,-5.5005,-5.6437,-5.7961,-5.8783,-5.9103,-5.9161,-5.919,-5.919,-5.9277,-5.9306,-5.9306,-5.9306,-5.9306,-5.9306,-5.9306,-5.9684,-6.009,-6.009,-6.0526,-6.099,-6.099,-6.099,-6.099,-6.099,-6.1048,-6.1077,-6.1077,-6.1135,-6.1193,-6.1193,-6.1193,-6.1164,-6.1019,-6.099,-6.099,-6.099,-6.099,-6.099,-6.099,-6.099,-6.0758,-6.0148,-6.009,-5.9858,-5.9335,-5.9248,-5.919,-5.919,-5.8552,-5.8203,-5.8203,-5.7594,-5.7303,-5.7303,-5.7303,-5.7303,-5.7303,-5.7303,-5.7303,-4.3543,-4.3209,-4.2986,-4.2986,-4.2986,-4.3129,-4.3602,-4.4206,-4.4507,-4.3823,-4.4724,-4.5235,-4.3932,-4.4684,-4.5349,-4.4996,-4.5559,-4.6032,-4.5993,-4.5729,-4.5514,-4.5331,-4.5025,-4.4656,-4.4347,-4.4285,-4.4405,-4.4717,-4.4957,-4.5197,-4.5573,-4.6102,-4.6391,-4.6391,-4.6896,-4.7161,-4.7161,-4.7401,-4.7666,-4.7954,-4.853,-4.8701,-4.8435,-4.9212,-4.9579,-4.967,-5.0404,-5.1389,-5.2465,-5.2465,-5.3108,-5.421,-5.459,-5.5794,-5.7328,-5.7519,-5.828,-5.9364,-5.9713,-5.9829,-5.9887,-6.0293,-6.0409,-6.0409,-6.0409,-6.0409,-6.0409,-6.0409,-6.0584,-6.0787,-6.0787,-6.099,-6.1193,-6.1193,-6.1193,-6.1193,-6.1193,-6.1193,-6.1193,-6.1193,-6.1193,-6.1193,-6.1193,-6.1193,-6.1193,-6.1193,-6.1193,-6.1193,-6.1193,-6.1193,-6.1193,-6.1193,-6.1193,-6.1077,-6.0816,-6.0787,-6.0671,-6.0409,-6.0032,-5.9829,-5.9829,-5.9219,-5.8871,-5.8871,-5.861,-5.8261,-5.7884,-5.7884,-5.7681,-5.7303,-5.7303,-5.7303,-4.3154,-4.2986,-4.2986,-4.2986,-4.2986,-4.2986,-4.2986,-4.3628,-4.3987,-4.3184,-4.4289,-4.4913,-4.3295,-4.4782,-4.5881,-4.4749,-4.577,-4.6565,-4.6345,-4.5939,-4.5574,-4.5331,-4.4902,-4.4642,-4.4563,-4.4501,-4.4669,-4.5053,-4.5342,-4.5742,-4.6126,-4.6631,-4.6944,-4.6944,-4.7305,-4.7569,-4.7714,-4.7714,-4.7978,-4.8507,-4.8507,-4.87,-4.9084,-4.9229,-4.9373,-4.9517,-4.9517,-5.0332,-5.1613,-5.1613,-5.2427,-5.3801,-5.4325,-5.5472,-5.6902,-5.6377,-5.7772,-5.9887,-6.0322,-6.0467,-6.0555,-6.1048,-6.1193,-6.1193,-6.1193,-6.1193,-6.1193,-6.1193,-6.1193,-6.1193,-6.1193,-6.1193,-6.1193,-6.1193,-6.1193,-6.1193,-6.1193,-6.1193,-6.1193,-6.1193,-6.1193,-6.1193,-6.1193,-6.1193,-6.1193,-6.1193,-6.1193,-6.1193,-6.1193,-6.1193,-6.1193,-6.1193,-6.1193,-6.1193,-6.1193,-6.1193,-6.1193,-6.1193,-6.0729,-6.0467,-6.0467,-5.9887,-5.9539,-5.9539,-5.9393,-5.9074,-5.8581,-5.8581,-5.8319,-5.7855,-5.7855,-5.7855,-4.3098,-4.2986,-4.2986,-4.2986,-4.2986,-4.2986,-4.2986,-4.3042,-4.3042,-4.3042,-4.3017,-4.3073,-4.3042,-4.347,-4.4023,-4.4543,-4.5121,-4.5732,-4.6225,-4.5757,-4.5331,-4.5331,-4.4717,-4.4501,-4.5005,-4.5053,-4.5053,-4.5077,-4.6078,-4.668,-4.668,-4.7185,-4.7473,-4.7473,-4.7497,-4.7738,-4.8267,-4.8267,-4.8531,-4.906,-4.906,-4.906,-4.9084,-4.9614,-5.0143,-5.0648,-5.0648,-5.0672,-5.0742,-5.0742,-5.0742,-5.0908,-5.1611,-5.2785,-5.4097,-5.4809,-5.7651,-6.1135,-6.1164,-6.1164,-6.1164,-6.1193,-6.1193,-6.1193,-6.1193,-6.1193,-6.1193,-6.1193,-6.1193,-6.1193,-6.1193,-6.1193,-6.1193,-6.1193,-6.1193,-6.1193,-6.1193,-6.1193,-6.1193,-6.1193,-6.1193,-6.1193,-6.1193,-6.1193,-6.1193,-6.1193,-6.1193,-6.1193,-6.1193,-6.1193,-6.1193,-6.1193,-6.1193,-6.1193,-6.1193,-6.1193,-6.1193,-6.1193,-6.1164,-6.1164,-6.1164,-6.0526,-6.0177,-6.0177,-5.9597,-5.9306,-5.9277,-5.9277,-5.9248,-5.9248,-5.9248,-5.9248,-4.3042,-4.2986,-4.2986,-4.2986,-4.2986,-4.2986,-4.2986,-4.2986,-4.2986,-4.2986,-4.3263,-4.3514,-4.3514,-4.4292,-4.497,-4.5171,-4.5673,-4.604,-4.5974,-4.5574,-4.5208,-4.5025,-4.4908,-4.4885,-4.5053,-4.5077,-4.5429,-4.6126,-4.6511,-4.6872,-4.7209,-4.7401,-4.7497,-4.7497,-4.7834,-4.8098,-4.8291,-4.8628,-4.9084,-4.9614,-4.9974,-5.0143,-5.0167,-5.0335,-5.0527,-5.0696,-5.0696,-5.0696,-5.0696,-5.0696,-5.0837,-5.1095,-5.1611,-5.2785,-5.4273,-5.4794,-5.6482,-5.8404,-5.8404,-5.8404,-5.8404,-5.8404,-5.9058,-5.983,-5.983,-6.047,-6.1193,-6.1193,-6.1193,-6.1193,-6.1193,-6.1193,-6.1193,-6.1193,-6.1193,-6.1193,-6.1193,-6.1193,-6.1193,-6.1193,-6.1193,-6.1193,-6.1193,-6.1193,-6.1193,-6.1193,-6.1193,-6.1193,-6.1193,-6.1193,-6.1193,-6.1193,-6.1193,-6.1193,-6.1193,-6.1193,-6.1193,-6.1193,-6.1193,-6.1193,-6.1193,-6.099,-6.0874,-6.0874,-6.0671,-6.0351,-5.9887,-5.9887,-5.9684,-5.9306,-5.9306,-5.9306,-4.2986,-4.2986,-4.2986,-4.2986,-4.2986,-4.2986,-4.2986,-4.2986,-4.2986,-4.2986,-4.3413,-4.379,-4.379,-4.4719,-4.5497,-4.5497,-4.583,-4.6059,-4.5817,-4.5392,-4.5098,-4.5108,-4.5112,-4.5221,-4.5606,-4.5694,-4.5982,-4.6655,-4.6896,-4.7136,-4.7473,-4.7497,-4.7593,-4.7786,-4.8122,-4.8459,-4.8844,-4.9181,-4.9638,-5.0167,-5.0527,-5.0696,-5.0696,-5.0696,-5.0696,-5.0696,-5.0696,-5.0696,-5.0696,-5.0696,-5.0884,-5.1211,-5.1656,-5.2604,-5.3716,-5.4081,-5.4794,-5.5762,-5.7231,-5.7742,-5.7806,-5.834,-5.9121,-5.983,-5.983,-6.047,-6.1193,-6.1193,-6.1193,-6.1193,-6.1193,-6.1193,-6.1193,-6.1193,-6.1193,-6.1193,-6.1193,-6.1193,-6.1193,-6.1193,-6.1193,-6.1193,-6.1193,-6.1193,-6.1193,-6.1193,-6.1193,-6.1193,-6.1193,-6.1193,-6.1193,-6.1193,-6.1193,-6.1193,-6.1193,-6.1193,-6.1193,-6.1193,-6.1193,-6.1193,-6.1193,-6.1193,-6.1193,-6.1193,-6.1193,-6.099,-6.0555,-6.0555,-6.0351,-5.9974,-5.9974,-5.9974,-4.2986,-4.2986,-4.2986,-4.2986,-4.2986,-4.2986,-4.2986,-4.2986,-4.2986,-4.2986,-4.3438,-4.384,-4.384,-4.4769,-4.5522,-4.5522,-4.5675,-4.5817,-4.5757,-4.5233,-4.4997,-4.5507,-4.5315,-4.5597,-4.6607,-4.6728,-4.6752,-4.6752,-4.7209,-4.7497,-4.7497,-4.7521,-4.7762,-4.8267,-4.8339,-4.8844,-4.9854,-4.9902,-5.0191,-5.0696,-5.0696,-5.0696,-5.0696,-5.0696,-5.0696,-5.0696,-5.0696,-5.0696,-5.0696,-5.0696,-5.0884,-5.1282,-5.1656,-5.203,-5.2446,-5.2792,-5.2929,-5.3427,-5.7515,-5.8843,-5.8996,-6.0348,-6.0802,-6.0863,-6.0863,-6.0923,-6.1013,-6.1013,-6.1013,-6.1013,-6.1073,-6.1073,-6.1133,-6.1193,-6.1193,-6.1193,-6.1193,-6.1193,-6.1193,-6.1193,-6.1193,-6.1193,-6.1193,-6.1193,-6.1193,-6.1193,-6.1193,-6.1193,-6.1193,-6.1193,-6.1193,-6.1193,-6.1193,-6.1193,-6.1193,-6.1193,-6.1193,-6.1193,-6.1193,-6.1193,-6.1193,-6.1193,-6.1193,-6.1193,-6.1193,-6.1193,-6.1193,-6.1193,-6.1193,-6.1193,-6.1193,-6.1193,-4.2986,-4.2986,-4.2986,-4.2986,-4.2986,-4.2986,-4.2986,-4.2986,-4.2986,-4.2986,-4.374,-4.4418,-4.4418,-4.5347,-4.61,-4.61,-4.5899,-4.5696,-4.5453,-4.5428,-4.5348,-4.5242,-4.5838,-4.6415,-4.668,-4.7064,-4.7305,-4.7305,-4.7425,-4.7497,-4.7497,-4.7882,-4.8147,-4.8291,-4.906,-4.9589,-4.9878,-5.0287,-5.0551,-5.0696,-5.0696,-5.0696,-5.0696,-5.0696,-5.0696,-5.0696,-5.0696,-5.0696,-5.0696,-5.0696,-5.1049,-5.1681,-5.1751,-5.2238,-5.2792,-5.2861,-5.2929,-5.3179,-5.5326,-5.5393,-5.4552,-5.4927,-5.5723,-5.6547,-5.6547,-5.7258,-5.8088,-5.8088,-5.8088,-5.834,-5.9369,-5.9645,-5.9891,-6.0952,-6.1193,-6.1193,-6.1193,-6.1193,-6.1193,-6.1193,-6.1193,-6.1193,-6.1193,-6.1193,-6.1193,-6.1193,-6.1193,-6.1193,-6.1193,-6.1193,-6.1193,-6.1193,-6.1193,-6.1193,-6.1193,-6.1193,-6.1193,-6.1193,-6.1193,-6.1193,-6.1193,-6.1193,-6.1193,-6.1193,-6.1193,-6.1193,-6.1193,-6.1193,-6.1193,-6.1193,-6.1193,-6.1193,-4.2986,-4.2986,-4.2986,-4.2986,-4.2986,-4.2986,-4.2986,-4.2986,-4.3037,-4.3288,-4.4016,-4.4694,-4.4945,-4.5723,-4.624,-4.612,-4.5817,-4.5453,-4.5147,-4.524,-4.5402,-4.5453,-4.6199,-4.68,-4.704,-4.7329,-4.7497,-4.7497,-4.7497,-4.7593,-4.7834,-4.8122,-4.8507,-4.8964,-4.9565,-4.9974,-5.0239,-5.0551,-5.0696,-5.0696,-5.0696,-5.0696,-5.0696,-5.0696,-5.0696,-5.0696,-5.0696,-5.0696,-5.0696,-5.0696,-5.1119,-5.182,-5.182,-5.2238,-5.2929,-5.2929,-5.2929,-5.2998,-5.3768,-5.3589,-5.3136,-5.4283,-5.526,-5.5894,-5.5894,-5.639,-5.6973,-5.6973,-5.6973,-5.7167,-5.7933,-5.8214,-5.8404,-5.9183,-5.9369,-5.9369,-5.9369,-5.9369,-5.9369,-5.9369,-5.983,-6.0075,-5.9431,-6.0348,-6.1013,-6.0348,-6.0802,-6.1193,-6.1193,-6.1193,-6.1193,-6.1193,-6.1193,-6.1193,-6.1193,-6.1193,-6.1193,-6.1193,-6.1193,-6.1193,-6.1193,-6.1193,-6.1193,-6.1193,-6.1193,-6.1193,-6.1193,-6.1193,-6.1193,-6.1193,-6.1193,-6.1193,-4.2986,-4.2986,-4.2986,-4.2986,-4.2986,-4.2986,-4.2986,-4.2986,-4.3137,-4.3689,-4.4242,-4.4794,-4.5372,-4.5889,-4.612,-4.5878,-4.5514,-4.5147,-4.4902,-4.5039,-4.5342,-4.5862,-4.6463,-4.6992,-4.7449,-4.7497,-4.7497,-4.7497,-4.7569,-4.781,-4.8267,-4.8363,-4.8892,-4.995,-4.9974,-5.0215,-5.0696,-5.0696,-5.0696,-5.0696,-5.0696,-5.0696,-5.0696,-5.0696,-5.0696,-5.0696,-5.0696,-5.0696,-5.0696,-5.0696,-5.1119,-5.182,-5.182,-5.2238,-5.2929,-5.2929,-5.2929,-5.2929,-5.2929,-5.2929,-5.3316,-5.5696,-5.6455,-5.6455,-5.6455,-5.6455,-5.6455,-5.6455,-5.6455,-5.652,-5.6715,-5.6715,-5.678,-5.6973,-5.6973,-5.6973,-5.6973,-5.6973,-5.6973,-5.6973,-5.8024,-5.8467,-5.7231,-5.9058,-6.0226,-5.8996,-5.983,-6.0621,-6.0621,-6.1013,-6.1193,-6.1193,-6.1193,-6.1193,-6.1193,-6.1193,-6.1193,-6.1193,-6.1193,-6.1193,-6.1193,-6.1193,-6.1193,-6.1193,-6.1193,-6.1193,-6.1193,-6.1193,-6.1193,-6.1193,-6.1193,-6.1193,-4.2986,-4.2986,-4.2986,-4.2986,-4.2986,-4.2986,-4.2986,-4.2986,-4.3137,-4.3689,-4.4242,-4.4794,-4.5372,-4.5685,-4.5939,-4.618,-4.5453,-4.4963,-4.5208,-4.5566,-4.5814,-4.591,-4.6776,-4.7401,-4.7497,-4.7497,-4.7497,-4.7497,-4.7906,-4.8195,-4.8291,-4.87,-4.9445,-5.0527,-5.0551,-5.06,-5.0696,-5.0696,-5.0696,-5.0696,-5.0696,-5.0696,-5.0696,-5.0696,-5.0696,-5.0696,-5.0696,-5.0696,-5.0696,-5.0696,-5.1119,-5.182,-5.182,-5.2238,-5.2929,-5.2929,-5.2929,-5.2929,-5.2929,-5.2929,-5.2998,-5.3452,-5.3632,-5.3632,-5.3632,-5.3632,-5.3632,-5.3632,-5.3632,-5.3903,-5.5061,-5.5326,-5.5631,-5.6715,-5.6973,-5.6973,-5.6973,-5.6973,-5.6973,-5.6973,-5.7231,-5.7295,-5.7038,-5.7423,-5.7615,-5.7423,-5.7551,-5.7742,-5.7742,-5.9768,-6.1193,-6.1193,-6.1193,-6.1193,-6.1193,-6.1193,-6.1193,-6.1193,-6.1193,-6.1193,-6.1193,-6.1193,-6.1193,-6.1193,-6.1193,-6.1193,-6.1193,-6.1193,-6.1193,-6.1193,-6.1193,-6.1193,-4.2986,-4.2986,-4.2986,-4.2986,-4.2986,-4.2986,-4.2986,-4.3212,-4.3564,-4.4116,-4.4669,-4.5187,-4.556,-4.5704,-4.5757,-4.5574,-4.5086,-4.4876,-4.5143,-4.5619,-4.603,-4.6295,-4.7016,-4.7497,-4.7497,-4.7497,-4.7617,-4.7882,-4.8147,-4.8411,-4.8676,-4.9469,-5.0167,-5.0696,-5.0696,-5.0696,-5.0696,-5.0696,-5.0696,-5.0696,-5.0696,-5.0696,-5.0696,-5.0696,-5.0696,-5.0696,-5.0696,-5.0696,-5.0696,-5.0884,-5.1306,-5.182,-5.203,-5.2446,-5.2929,-5.2929,-5.2929,-5.2929,-5.2929,-5.2929,-5.2929,-5.2929,-5.2929,-5.2879,-5.2578,-5.2703,-5.2879,-5.2578,-5.2703,-5.3067,-5.37,-5.3903,-5.4106,-5.4727,-5.4861,-5.4861,-5.4861,-5.4861,-5.4861,-5.4861,-5.5432,-5.5696,-5.4994,-5.6064,-5.678,-5.609,-5.652,-5.6973,-5.6973,-5.8214,-5.8996,-5.8996,-5.8996,-5.8996,-5.8996,-5.9707,-6.0104,-6.0104,-6.0802,-6.1193,-6.1193,-6.1193,-6.1193,-6.1193,-6.1193,-6.1193,-6.1193,-6.1193,-6.1193,-6.1193,-6.1193,-6.1193,-4.2986,-4.2986,-4.3011,-4.3112,-4.3162,-4.3187,-4.3313,-4.3664,-4.4141,-4.4694,-4.5171,-4.5529,-4.5778,-4.5757,-4.5514,-4.4963,-4.4779,-4.4825,-4.5194,-4.5597,-4.6126,-4.6655,-4.7185,-4.7497,-4.7497,-4.7497,-4.7714,-4.8243,-4.8507,-4.882,-4.9229,-5.0167,-5.0696,-5.0696,-5.0696,-5.0696,-5.0696,-5.0696,-5.0696,-5.0696,-5.0696,-5.0696,-5.0696,-5.0696,-5.0696,-5.0696,-5.0696,-5.0767,-5.0837,-5.1095,-5.1516,-5.196,-5.2308,-5.2585,-5.2929,-5.2929,-5.2929,-5.2929,-5.2929,-5.2929,-5.2929,-5.2929,-5.2929,-5.2854,-5.2402,-5.2578,-5.2829,-5.2402,-5.2578,-5.2929,-5.2929,-5.2929,-5.2929,-5.2929,-5.2929,-5.2929,-5.2929,-5.2929,-5.2929,-5.2929,-5.3768,-5.4216,-5.3136,-5.466,-5.5762,-5.4686,-5.5432,-5.6129,-5.6129,-5.6129,-5.6129,-5.6129,-5.665,-5.6973,-5.6973,-5.8277,-5.9121,-5.9121,-6.0409,-6.1193,-6.1193,-6.1193,-6.1193,-6.1193,-6.1193,-6.1193,-6.1193,-6.1193,-6.1193,-6.1193,-6.1193,-6.1193,-4.2986,-4.2986,-4.3112,-4.3589,-4.374,-4.3865,-4.4367,-4.4518,-4.4719,-4.5296,-4.5447,-4.5529,-4.5778,-4.5574,-4.5331,-4.527,-4.4717,-4.4663,-4.5445,-4.5788,-4.6126,-4.6655,-4.7185,-4.7497,-4.7497,-4.7497,-4.7714,-4.8243,-4.9181,-4.9734,-4.9782,-5.0383,-5.0696,-5.0696,-5.0696,-5.0696,-5.0696,-5.0696,-5.0696,-5.0696,-5.0696,-5.0696,-5.0696,-5.0696,-5.0696,-5.0696,-5.0696,-5.0908,-5.1141,-5.1211,-5.1656,-5.2377,-5.2377,-5.2585,-5.2929,-5.2929,-5.2929,-5.2929,-5.2929,-5.2929,-5.2929,-5.2929,-5.2929,-5.2929,-5.2879,-5.2879,-5.2929,-5.2879,-5.2879,-5.2929,-5.2929,-5.2929,-5.2929,-5.2929,-5.2929,-5.2929,-5.2929,-5.2929,-5.2929,-5.2929,-5.2998,-5.3067,-5.2929,-5.311,-5.3247,-5.311,-5.3179,-5.3247,-5.3247,-5.3247,-5.3247,-5.3247,-5.5499,-5.6973,-5.6973,-5.8277,-5.9121,-5.9121,-6.0409,-6.1193,-6.1193,-6.1193,-6.1193,-6.1193,-6.1193,-6.1193,-6.1193,-6.1193,-6.1193,-6.1193,-6.1193,-6.1193,-4.3388,-4.3463,-4.3614,-4.4166,-4.4292,-4.4342,-4.4568,-4.4895,-4.5221,-4.5447,-4.5748,-4.587,-4.5525,-4.5392,-4.5147,-4.4779,-4.447,-4.4635,-4.5628,-4.5854,-4.6247,-4.7088,-4.7377,-4.7497,-4.7497,-4.7497,-4.7858,-4.87,-4.9758,-5.0359,-5.0359,-5.0576,-5.0696,-5.0696,-5.0696,-5.0696,-5.0696,-5.0696,-5.0696,-5.0696,-5.0696,-5.0696,-5.0696,-5.0696,-5.0837,-5.1025,-5.1025,-5.1236,-5.1586,-5.1796,-5.2074,-5.2446,-5.2654,-5.2792,-5.2929,-5.2929,-5.2929,-5.2929,-5.2929,-5.2929,-5.2929,-5.2929,-5.2929,-5.2854,-5.2528,-5.2653,-5.2854,-5.2528,-5.2678,-5.2929,-5.2929,-5.2929,-5.2929,-5.2929,-5.2929,-5.2929,-5.2929,-5.2929,-5.2929,-5.2929,-5.2929,-5.2929,-5.2929,-5.2929,-5.2929,-5.2929,-5.2929,-5.2929,-5.2929,-5.2929,-5.2929,-5.2929,-5.3903,-5.4526,-5.4526,-5.5828,-5.6612,-5.6612,-5.7897,-5.8655,-5.8655,-5.8655,-5.8655,-5.8655,-5.8655,-5.8655,-5.8655,-5.9493,-5.9953,-5.9953,-6.0802,-6.1193,-4.394,-4.4041,-4.4192,-4.4744,-4.4895,-4.492,-4.5095,-4.5447,-4.5723,-4.5723,-4.599,-4.5999,-4.5392,-4.5208,-4.4963,0.0,-4.4285,-4.4645,-4.5766,-4.5934,-4.6319,-4.7377,-4.7497,-4.7497,-4.7497,-4.7786,-4.8267,-4.9012,-5.0095,-5.0696,-5.0696,-5.0696,-5.0696,-5.0696,-5.0696,-5.0696,-5.0696,-5.0696,-5.0696,-5.0696,-5.0696,-5.0696,-5.0696,-5.0696,-5.0837,-5.1095,-5.1141,-5.1446,-5.182,-5.2238,-5.2446,-5.2585,-5.2792,-5.2929,-5.2929,-5.2929,-5.2929,-5.2929,-5.2929,-5.2929,-5.2929,-5.2929,-5.2929,-5.2854,-5.2477,-5.2628,-5.2854,-5.2452,-5.2628,-5.2929,-5.2929,-5.2929,-5.2929,-5.2929,-5.2929,-5.2929,-5.2929,-5.2929,-5.2929,-5.2929,-5.2929,-5.2929,-5.2929,-5.2929,-5.2929,-5.2929,-5.2929,-5.2929,-5.2929,-5.2929,-5.2929,-5.2929,-5.2929,-5.2929,-5.2929,-5.4174,-5.502,-5.502,-5.6287,-5.6973,-5.6973,-5.6973,-5.6973,-5.6973,-5.6973,-5.6973,-5.6973,-5.8404,-5.9121,-5.9121,-6.0531,-6.1193,-4.4618,-4.4618,-4.4744,-4.5321,-4.5472,-4.5623,-4.6175,-4.6301,-4.6301,-4.6301,-4.5999,-4.5696,-4.5392,-4.5025,-4.4717,-4.4347,-4.4285,-4.4645,-4.5766,-4.5934,-4.6319,-4.7377,-4.7497,-4.7497,-4.7497,-4.8459,-4.906,-4.9084,-5.0095,-5.0696,-5.0696,-5.0696,-5.0696,-5.0696,-5.0696,-5.0696,-5.0696,-5.0696,-5.0696,-5.0696,-5.0696,-5.0696,-5.0696,-5.0696,-5.0696,-5.0696,-5.1095,-5.1446,-5.182,-5.2238,-5.2585,-5.2929,-5.2929,-5.2929,-5.2929,-5.2929,-5.2929,-5.2929,-5.2929,-5.2929,-5.2929,-5.2929,-5.2929,-5.2929,-5.2929,-5.2929,-5.2929,-5.2929,-5.2929,-5.2929,-5.2929,-5.2929,-5.2929,-5.2929,-5.2929,-5.2929,-5.2929,-5.2929,-5.2929,-5.2929,-5.2929,-5.2929,-5.2929,-5.2929,-5.2929,-5.2929,-5.2929,-5.2929,-5.2929,-5.2929,-5.2929,-5.2929,-5.2929,-5.2929,-5.2929,-5.4174,-5.502,-5.502,-5.6287,-5.6973,-5.6973,-5.6973,-5.6973,-5.6973,-5.6973,-5.6973,-5.6973,-5.8404,-5.9121,-5.9121,-6.0531,-6.1193,-4.5095,-4.5221,-4.5347,-4.5924,-4.605,-4.61,-4.6276,-4.6301,-4.624,-4.5999,-4.5878,-4.5635,-4.5086,-4.4902,-4.4717,-4.4347,-4.4597,-4.5053,-4.5838,-4.6247,-4.6728,-4.7425,-4.7497,-4.7497,-4.7497,-4.8459,-4.9084,-4.9084,-5.0095,-5.0696,-5.0696,-5.0696,-5.0696,-5.0696,-5.0696,-5.0696,-5.0696,-5.0696,-5.0696,-5.0696,-5.0696,-5.0696,-5.0696,-5.0696,-5.0837,-5.1095,-5.1446,-5.1796,-5.2238,-5.2585,-5.2792,-5.2929,-5.2929,-5.2929,-5.2929,-5.2929,-5.2929,-5.2929,-5.2929,-5.2929,-5.2929,-5.2929,-5.2929,-5.2929,-5.2929,-5.2929,-5.2929,-5.2929,-5.2929,-5.2929,-5.2929,-5.2929,-5.2929,-5.2929,-5.2929,-5.2929,-5.2929,-5.2929,-5.2929,-5.2929,-5.2929,-5.2929,-5.2929,-5.2929,-5.2929,-5.2929,-5.2929,-5.2929,-5.2929,-5.2929,-5.2929,-5.2929,-5.2929,-5.2929,-5.2929,-5.3316,-5.3589,-5.3589,-5.3945,-5.4216,-5.4216,-5.4216,-5.4216,-5.4216,-5.4216,-5.4216,-5.4216,-5.5565,-5.6807,-5.7679,-5.8151,-5.834,0.0,-4.5799,-4.5874,-4.6225,-4.6301,-4.6301,-4.6301,-4.6301,0.0,0.0,0.0,-4.5514,-4.5086,-4.4779,-4.4532,-4.4347,-4.4717,-4.5309,-4.5862,-4.6391,-4.692,-4.7449,-4.7497,-4.7497,-4.7497,-4.8459,-4.9084,-4.9084,-5.0095,-5.0696,-5.0696,-5.0696,-5.0696,-5.0696,-5.0696,-5.0696,-5.0696,-5.0696,-5.0696,-5.0696,-5.0696,-5.0696,-5.0696,-5.0696,-5.0908,-5.1211,-5.1586,-5.203,0.0,-5.2792,-5.2929,-5.2929,-5.2929,-5.2929,-5.2929,-5.2929,-5.2929,-5.2929,-5.2929,-5.2929,-5.2929,-5.2929,-5.2929,-5.2929,-5.2929,-5.2929,-5.2929,-5.2929,-5.2929,-5.2929,-5.2929,-5.2929,-5.2929,-5.2929,-5.2929,-5.2929,-5.2929,-5.2929,-5.2929,-5.2929,-5.2929,-5.2929,-5.2929,-5.2929,-5.2929,-5.2929,-5.2929,-5.2929,-5.2929,-5.2929,-5.2929,-5.2929,-5.2929,-5.2929,-5.2929,-5.2929,-5.2929,-5.2929,-5.2929,-5.2929,-5.2929,-5.2929,-5.2929,-5.2929,-5.2929,-5.2929,-5.2929,-5.4283,-5.5696,-5.6973,-5.6973,-5.6902,0.0,-4.6301,-4.6301,-4.6301,-4.6301,-4.6301,-4.6301,0.0,0.0,0.0,0.0,0.0,-4.527,-4.4717,-4.4309,-4.4333,-4.4789,-4.5317,-4.591,-4.6439,-4.6944,-4.7449,-4.7497,-4.7497,-4.7497,-4.8459,-4.9084,-4.9084,-5.0095,-5.0696,-5.0696,-5.0696,-5.0696,-5.0696,-5.0696,-5.0696,-5.0696,-5.0696,-5.0696,-5.0696,-5.0696,-5.0767,-5.0767,-5.0767,-5.0978,-5.1282,-5.1656,-5.203,-5.2446,-5.2792,-5.2929,-5.2929,-5.2929,-5.2929,-5.2929,-5.2929,-5.2929,-5.2929,-5.2929,-5.2929,-5.2929,-5.2929,-5.2929,-5.2929,-5.2929,-5.2929,-5.2929,-5.2929,-5.2929,-5.2929,-5.2929,-5.2929,-5.2929,-5.2929,-5.2929,-5.2929,-5.2929,-5.2929,-5.2929,-5.2929,-5.2929,-5.2929,-5.2929,-5.2929,-5.2929,-5.2929,-5.2929,-5.2929,-5.2929,-5.2929,-5.2929,-5.2929,-5.2929,-5.2929,-5.2929,-5.2929,-5.2929,-5.2929,-5.2929,-5.2929,-5.2929,-5.2929,-5.2929,-5.2929,-5.2879,-5.2879,-5.2879,-5.4138,-5.5393,-5.658,-5.658,-5.631,-4.6301,0.0,-4.6301,-4.6301,-4.6301,-4.6301,0.0,0.0,0.0,0.0,0.0,0.0,0.0,-4.4409,-4.4429,-4.4813,-4.5342,-4.5934,-4.6463,-4.6968,-4.7353,-4.7497,-4.7497,-4.7497,-4.7497,-4.8459,-4.9084,-4.9084,-5.0095,-5.0696,-5.0696,-5.0696,-5.0696,-5.0696,-5.0696,-5.0696,-5.0696,-5.0696,-5.0696,-5.0696,-5.0954,-5.1095,-5.1095,-5.1401,-5.1611,-5.1656,-5.2099,-5.2308,-5.2446,-5.2792,-5.2929,-5.2929,-5.2929,-5.2929,-5.2929,-5.2929,-5.2929,-5.2929,-5.2929,-5.2929,-5.2929,-5.2929,-5.2929,-5.2929,-5.2929,-5.2929,-5.2929,-5.2929,-5.2929,-5.2929,-5.2929,-5.2929,-5.2929,-5.2929,-5.2929,-5.2929,-5.2929,-5.2929,-5.2929,-5.2929,-5.2929,-5.2929,-5.2929,-5.2929,-5.2929,-5.2929,-5.2929,-5.2929,-5.2929,-5.2929,-5.2929,-5.2929,-5.2929,-5.2929,-5.2929,-5.2929,-5.2929,-5.2929,-5.2929,-5.2929,-5.2929,-5.2929,-5.2929,-5.2929,-5.2528,-5.2302,-5.2302,-5.2186,-5.2292,-5.2623,-5.2623,-5.2547,-4.5999,-4.6125,-4.625,-4.5999,-4.6125,-4.619,-4.582,0.0,0.0,0.0,0.0,0.0,0.0,-4.4532,-4.4639,-4.5044,-4.57,-4.6327,-4.6968,-4.7329,-4.7497,-4.7497,-4.7497,-4.7497,-4.7497,-4.8243,-4.882,-4.906,-4.9854,-5.0431,-5.0696,-5.0696,-5.0696,-5.0696,-5.0837,-5.0837,-5.0696,-5.0837,-5.0954,-5.0954,-5.1306,-5.1446,-5.1516,-5.1681,-5.189,-5.2099,-5.2308,-5.2515,-5.2654,-5.2861,-5.2929,-5.2929,-5.2929,-5.2929,-5.2929,-5.2929,-5.2929,-5.2929,-5.2929,-5.2929,-5.2929,-5.2929,-5.2929,-5.2929,-5.2929,-5.2929,-5.2929,-5.2929,-5.2929,-5.2929,-5.2929,-5.2929,-5.2929,-5.2929,-5.2929,-5.2929,-5.2929,-5.2929,-5.2929,-5.2929,-5.2929,-5.2929,-5.2929,-5.2929,-5.2929,-5.2929,-5.2929,-5.2929,-5.2929,-5.2929,-5.2829,-5.2578,-5.2553,-5.2452,-5.2201,-5.2176,-5.2377,-5.2904,-5.2678,-5.2553,-5.2553,-5.2302,-5.2176,-5.2176,-5.1875,-5.1724,-5.1724,-5.1423,-5.1272,-5.1272,-5.1272,-5.1147,-4.5623,-4.5824,-4.6075,-4.5598,-4.5849,-4.6015,-4.5341,0.0,0.0,0.0,0.0,0.0,0.0,-4.4852,-4.4946,-4.5227,-4.6021,-4.6811,-4.7443,-4.7497,-4.7497,-4.7497,-4.7497,-4.7497,-4.7497,-4.7978,-4.8483,-4.8916,-4.9445,-4.995,-5.0431,-5.0455,-5.0455,-5.0526,-5.0783,-5.0853,-5.0596,-5.1093,-5.1282,-5.1306,-5.1656,-5.189,-5.189,-5.196,-5.2169,-5.2515,-5.2515,-5.2654,-5.2929,-5.2929,-5.2929,-5.2929,-5.2929,-5.2929,-5.2929,-5.2929,-5.2929,-5.2929,-5.2929,-5.2929,-5.2929,-5.2929,-5.2929,-5.2929,-5.2929,-5.2929,-5.2929,-5.2929,-5.2929,-5.2929,-5.2929,-5.2929,-5.2929,-5.2929,-5.2929,-5.2929,-5.2929,-5.2929,-5.2929,-5.2929,-5.2929,-5.2929,-5.2929,-5.2929,-5.2929,-5.2929,-5.2854,-5.2804,-5.2804,-5.2729,-5.2503,-5.2026,-5.1975,-5.18,-5.1322,-5.1272,-5.1674,-5.2628,-5.2226,-5.1975,-5.1975,-5.1523,-5.1272,-5.1272,-5.1197,-5.1147,-5.1147,-5.1071,-5.1021,-5.1021,-5.1021,-5.077,-4.5522,-4.5547,-4.5598,-4.5522,-4.5547,-4.5723,-4.604,0.0,0.0,0.0,0.0,0.0,0.0,-4.4957,-4.5315,-4.61,-4.6827,-4.7371,-4.7473,-4.7497,-4.7497,-4.7497,-4.7497,-4.7497,-4.7497,-4.7978,-4.8315,-4.8411,-4.8892,-4.9229,-4.9325,-4.9325,-4.9463,-4.9737,-4.9806,-4.9942,-5.0215,-5.1215,-5.1751,-5.1751,-5.2099,-5.2308,-5.2308,-5.2585,-5.2792,-5.2792,-5.2792,-5.2861,-5.2929,-5.2929,-5.2929,-5.2929,-5.2929,-5.2929,-5.2929,-5.2929,-5.2929,-5.2929,-5.2929,-5.2929,-5.2929,-5.2929,-5.2929,-5.2929,-5.2929,-5.2929,-5.2929,-5.2929,-5.2929,-5.2929,-5.2929,-5.2929,-5.2929,-5.2929,-5.2929,-5.2929,-5.2929,-5.2929,-5.2929,-5.2929,-5.2929,-5.2929,-5.2929,-5.2929,-5.2929,-5.2929,-5.2528,-5.2226,-5.2226,-5.1825,-5.1498,-5.1423,-5.1398,-5.1373,-5.1297,-5.1272,-5.1348,-5.1523,-5.1448,-5.1398,-5.1398,-5.1322,-5.1272,-5.1272,-5.0795,-5.0544,-5.0544,-5.0067,-4.9866,-4.9866,-4.9866,-4.9816,-4.5497,-4.5271,-4.5095,-4.5422,-4.5723,-4.5864,-4.5635,0.0,0.0,0.0,0.0,0.0,0.0,-4.5448,-4.5949,-4.6929,-4.745,-4.7696,-4.7497,-4.7497,-4.7497,-4.7497,-4.7497,-4.7497,-4.7497,-4.7714,-4.7978,-4.8267,-4.8507,-4.884,-4.9334,-4.9358,-4.9563,-4.9903,-5.0106,-5.0284,-5.0419,-5.1166,-5.1414,-5.1185,-5.1918,-5.2273,-5.2273,-5.271,-5.2929,-5.2929,-5.2929,-5.2929,-5.2929,-5.2929,-5.2929,-5.2929,-5.2929,-5.2929,-5.2929,-5.2929,-5.2929,-5.2929,-5.2929,-5.2929,-5.2929,-5.2929,-5.2929,-5.2929,-5.2929,-5.2929,-5.2929,-5.2929,-5.2929,-5.2929,-5.2929,-5.2929,-5.2929,-5.2929,-5.2929,-5.2929,-5.2929,-5.2929,-5.2929,-5.2929,-5.2929,-5.2829,-5.2528,-5.2477,-5.2377,-5.2076,-5.1825,-5.1649,-5.1649,-5.1448,-5.1172,-5.0845,-5.082,-5.0695,-5.0393,-5.0368,-5.0494,-5.0795,-5.082,-5.067,-5.0368,-5.0368,-5.0368,-5.0368,-5.0117,-4.9967,-4.9967,-4.9715,-4.959,-4.959,-4.959,-4.959,-4.5497,-4.5171,-4.4945,-4.5372,0.0,-4.599,-4.545,-4.5579,0.0,0.0,0.0,0.0,-4.5733,-4.6189,-4.6743,-4.7507,-4.7824,-4.7894,-4.7563,-4.7497,-4.7497,-4.7497,-4.7497,-4.7497,-4.7497,-4.7497,-4.7666,-4.8209,-4.8233,-4.856,-4.9309,-4.9401,-4.9536,-4.9847,-5.0181,-5.0381,-5.0448,-5.0738,-5.0863,-5.0846,-5.1565,-5.1925,-5.1925,-5.2352,-5.2553,-5.2553,-5.2553,-5.2553,-5.2553,-5.2553,-5.2553,-5.2553,-5.2678,-5.2804,-5.2929,-5.2929,-5.2929,-5.2929,-5.2929,-5.2929,-5.2929,-5.2929,-5.2929,-5.2929,-5.2929,-5.2929,-5.2929,-5.2929,-5.2929,-5.2929,-5.2929,-5.2929,-5.2929,-5.2929,-5.2929,-5.2929,-5.2929,-5.2829,-5.2729,-5.2729,-5.2628,-5.2402,-5.1975,-5.1925,-5.1774,-5.1348,-5.1172,-5.1071,-5.1071,-5.0971,-5.072,-5.0268,-5.0218,-5.0067,-4.9615,-4.959,-4.9766,-5.0193,-5.0218,-5.0042,-4.9615,-4.959,-4.959,-4.959,-4.959,-4.959,-4.959,-4.959,-4.959,-4.959,-4.959,-4.959,-4.5497,-4.5447,-4.5447,-4.5472,-4.5522,0.0,-4.609,-4.5974,0.0,-4.5757,-4.5884,-4.5981,-4.6055,-4.689,-4.7555,-4.7551,-4.7804,-4.7894,-4.7563,-4.7497,-4.7497,-4.7497,-4.7497,-4.7497,-4.7497,-4.7497,-4.7654,-4.8009,-4.8009,-4.8231,-4.8633,-4.8633,-4.883,-4.9197,-4.9197,-4.9392,-4.9651,-4.9715,-5.0243,-5.1272,-5.1322,-5.1348,-5.1348,-5.1373,-5.1398,-5.1398,-5.1398,-5.1398,-5.1398,-5.1398,-5.1398,-5.1448,-5.1975,-5.2477,-5.2929,-5.2929,-5.2929,-5.2929,-5.2929,-5.2929,-5.2929,-5.2929,-5.2929,-5.2929,-5.2929,-5.2929,-5.2929,-5.2929,-5.2929,-5.2929,-5.2929,-5.2929,-5.2929,-5.2929,-5.2929,-5.2929,-5.2929,-5.2528,-5.2176,-5.2176,-5.1749,-5.1398,-5.1348,-5.1348,-5.1322,-5.1297,-5.082,-5.0469,-5.0469,-5.0042,-4.9715,-4.9665,-4.9665,-4.964,-4.959,-4.959,-4.9615,-4.9665,-4.9665,-4.964,-4.959,-4.959,-4.959,-4.959,-4.959,-4.959,-4.959,-4.959,-4.959,-4.959,-4.959,-4.959,-4.5899,-4.5748,-4.5648,-4.6351,-4.6502,0.0,0.0,-4.618,-4.6159,-4.6265,-4.6365,-4.6563,-4.7066,-4.7932,-4.837,-4.787,-4.7894,-4.796,-4.7828,-4.7828,-4.7894,-4.8182,-4.8182,-4.8116,-4.7828,-4.805,-4.8116,-4.8026,-4.8248,-4.851,-4.8902,-4.8902,-4.9072,-4.9396,-4.9396,-4.9461,-4.959,-4.959,-4.9816,-5.0243,-5.0569,-5.0745,-5.0745,-5.1122,-5.1272,-5.1272,-5.1272,-5.1272,-5.1272,-5.1272,-5.1272,-5.1297,-5.1498,-5.1724,-5.19,-5.19,-5.19,-5.19,-5.19,-5.19,-5.19,-5.19,-5.19,-5.19,-5.19,-5.19,-5.19,-5.19,-5.19,-5.2076,-5.2754,-5.2929,-5.2829,-5.2503,-5.2427,-5.2327,-5.1975,-5.1749,-5.1599,-5.1599,-5.1423,-5.1172,-5.0795,-5.0745,-5.0619,-5.0293,-5.0042,-4.9916,-4.9916,-4.9715,-4.959,-4.959,-4.959,-4.959,-4.959,-4.959,-4.959,-4.959,-4.959,-4.959,-4.959,-4.959,-4.959,-4.959,-4.959,-4.959,-4.959,-4.959,-4.959,-4.959,-4.959,-4.959,-4.62,-4.6175,-4.6175,-4.6954,0.0,0.0,-4.6652,-4.6577,-4.6617,-4.6747,-4.6973,-4.737,-4.8095,-4.8695,-4.8877,-4.8289,-4.8289,-4.8289,-4.8158,-4.8158,-4.8313,-4.86,-4.86,-4.851,-4.8248,-4.8445,-4.851,-4.8355,-4.8576,-4.8902,-4.9267,-4.9267,-4.9332,-4.959,-4.959,-4.959,-4.959,-4.959,-4.959,-4.959,-4.9967,-5.0167,-5.0167,-5.0569,-5.0745,-5.0745,-5.0745,-5.0745,-5.0745,-5.0745,-5.0845,-5.0996,-5.0996,-5.1122,-5.1272,-5.1272,-5.1272,-5.1272,-5.1272,-5.1272,-5.1272,-5.1272,-5.1206,-5.1139,-5.1139,-5.1139,-5.1072,-5.1005,-5.1139,-5.1448,-5.2065,-5.2334,-5.2302,-5.1925,-5.185,-5.1749,-5.1373,-5.1147,-5.0996,-5.0996,-5.087,-5.0619,-5.0218,-5.0167,-5.0017,-4.9665,-4.959,-4.959,-4.959,-4.959,-4.959,-4.959,-4.959,-4.959,-4.959,-4.959,-4.959,-4.959,-4.959,-4.959,-4.959,-4.959,-4.959,-4.959,-4.959,-4.959,-4.959,-4.959,-4.959,-4.959,-4.959,-4.959,-4.6326,-4.6728,-4.7068,0.0,0.0,0.0,-4.7093,-4.7093,-4.7068,-4.7093,-4.772,-4.8476,-4.8973,-4.9072,-4.9007,-4.8641,-4.8902,-4.8942,-4.8641,-4.86,-4.86,-4.86,-4.86,-4.86,-4.86,-4.86,-4.8772,-4.9072,-4.9072,-4.9267,-4.959,-4.959,-4.959,-4.959,-4.959,-4.959,-4.959,-4.959,-4.959,-4.959,-4.959,-4.959,-4.959,-4.959,-4.959,-4.959,-4.959,-4.959,-4.959,-4.959,-4.9916,-5.0419,-5.0419,-5.077,-5.1272,-5.1272,-5.1272,-5.1272,-5.1272,-5.1272,-5.1272,-5.1272,-5.1047,-5.0687,-5.0687,-5.0687,-5.062,-5.0284,-5.0712,-5.118,-5.0754,-5.098,-5.1272,-5.1272,-5.1272,-5.1272,-5.1272,-5.082,-5.0419,-5.0419,-4.9967,-4.959,-4.959,-4.959,-4.959,-4.959,-4.959,-4.959,-4.959,-4.959,-4.959,-4.959,-4.959,-4.959,-4.959,-4.959,-4.959,-4.959,-4.959,-4.959,-4.959,-4.959,-4.959,-4.959,-4.959,-4.959,-4.959,-4.959,-4.959,-4.959,-4.959,-4.959,-4.6778,-4.7004,0.0,-4.8083,0.0,0.0,0.0,-4.7682,0.0,-4.8134,-4.8798,-4.9221,-4.9112,-4.9072,-4.9007,-4.8641,-4.8641,-4.8772,-4.8942,-4.8942,-4.9007,-4.9292,-4.9292,-4.9202,-4.8942,-4.9137,-4.9267,-4.9137,-4.9332,-4.9525,-4.959,-4.959,-4.959,-4.959,-4.959,-4.959,-4.959,-4.959,-4.959,-4.959,-4.959,-4.959,-4.959,-4.959,-4.959,-4.959,-4.959,-4.959,-4.959,-4.959,-4.969,-4.9841,-4.9841,-4.9941,-5.0092,-5.0092,-5.0092,-5.0092,-5.0092,-5.0092,-5.0092,-5.0092,-4.9896,-4.9544,-4.9544,-4.9438,-4.9175,-4.9109,-4.9265,-4.9397,-4.9265,-4.9331,-4.9628,-5.0463,-5.067,-5.0569,-5.0193,-4.9967,-4.9841,-4.9841,-4.9715,-4.959,-4.959,-4.959,-4.959,-4.959,-4.959,-4.959,-4.959,-4.959,-4.959,-4.959,-4.959,-4.959,-4.959,-4.959,-4.959,-4.959,-4.959,-4.959,-4.959,-4.959,-4.959,-4.959,-4.959,-4.959,-4.959,-4.959,-4.959,-4.959,-4.959,-4.959,-4.6993,-4.7456,0.0,-4.8309,-4.8335,-4.8335,-4.8686,-4.8259,-4.7983,-4.8636,-4.9213,-4.9525,-4.9332,-4.9332,-4.9202,-4.9032,-4.9032,-4.9097,-4.9267,-4.9332,-4.9396,-4.959,-4.959,-4.9525,-4.9332,-4.9461,-4.9525,-4.9332,-4.9461,-4.959,-4.959,-4.959,-4.959,-4.959,-4.959,-4.959,-4.959,-4.959,-4.959,-4.959,-4.959,-4.959,-4.959,-4.959,-4.959,-4.959,-4.959,-4.959,-4.959,-4.959,-4.959,-4.959,-4.959,-4.959,-4.959,-4.959,-4.959,-4.959,-4.9461,-4.9396,-4.9396,-4.9292,-4.8942,-4.8682,-4.8682,-4.8486,-4.8313,-4.8182,-4.8379,-4.8576,-4.8379,-4.8445,-4.8805,-4.9691,-4.9896,-4.9796,-4.9665,-4.959,-4.959,-4.959,-4.959,-4.959,-4.959,-4.959,-4.959,-4.959,-4.959,-4.959,-4.959,-4.959,-4.959,-4.959,-4.959,-4.959,-4.959,-4.959,-4.959,-4.959,-4.959,-4.959,-4.959,-4.959,-4.959,-4.959,-4.959,-4.959,-4.959,-4.959,-4.959,-4.959,-4.959,-4.959,-4.7255,-4.8008,-4.8661,-4.8184,-4.846,-4.8837,-4.8786,-4.8812,-4.8837,-4.8837,-4.9238,-4.959,-4.959,-4.959,-4.959,-4.959,-4.959,-4.959,-4.959,-4.959,-4.959,-4.959,-4.959,-4.959,-4.959,-4.959,-4.959,-4.959,-4.959,-4.959,-4.959,-4.959,-4.959,-4.959,-4.959,-4.959,-4.959,-4.959,-4.959,-4.959,-4.959,-4.959,-4.959,-4.959,-4.959,-4.959,-4.959,-4.959,-4.959,-4.959,-4.959,-4.959,-4.959,-4.959,-4.959,-4.959,-4.959,-4.9525,-4.9202,-4.9072,-4.9007,-4.8706,-4.8313,-4.8026,-4.8026,-4.796,-4.7894,-4.7563,-4.7984,-4.8379,-4.8026,-4.8248,-4.8576,-4.8942,-4.9072,-4.9202,-4.9525,-4.959,-4.959,-4.959,-4.959,-4.959,-4.959,-4.959,-4.959,-4.959,-4.959,-4.959,-4.959,-4.959,-4.959,-4.959,-4.959,-4.959,-4.959,-4.959,-4.959,-4.959,-4.959,-4.959,-4.959,-4.959,-4.959,-4.959,-4.959,-4.959,-4.959,-4.959,-4.959,-4.959,-4.959,-4.959,-4.8184,-4.8586,0.0,0.0,-4.9314,-4.9314,-4.8862,-4.9113,-4.9414,-4.9414,-4.9515,-4.959,-4.959,-4.959,-4.959,-4.959,-4.959,-4.959,-4.959,-4.959,-4.959,-4.959,-4.959,-4.959,-4.959,-4.959,-4.959,-4.959,-4.959,-4.959,-4.959,-4.959,-4.959,-4.959,-4.959,-4.959,-4.959,-4.959,-4.959,-4.959,-4.959,-4.959,-4.959,-4.959,-4.959,-4.959,-4.959,-4.959,-4.959,-4.959,-4.959,-4.959,-4.959,-4.959,-4.959,-4.959,-4.9461,-4.9202,-4.9137,-4.8942,-4.8706,-4.86,-4.8313,-4.8026,-4.8026,-4.7828,-4.7563,-4.7497,-4.763,-4.7696,-4.763,-4.7696,-4.7828,-4.8158,-4.8682,-4.9202,-4.9525,-4.959,-4.959,-4.959,-4.959,-4.959,-4.959,-4.959,-4.959,-4.959,-4.959,-4.959,-4.959,-4.959,-4.959,-4.959,-4.959,-4.959,-4.959,-4.959,-4.959,-4.959,-4.959,-4.959,-4.959,-4.959,-4.959,-4.959,-4.959,-4.959,-4.959,-4.959,-4.959,-4.959,-4.959,-4.959,-4.8611,0.0,0.0,-4.9515,0.0,-4.9188,-4.9163,-4.9389,-4.959,-4.959,-4.959,-4.959,-4.959,-4.959,-4.959,-4.959,-4.959,-4.959,-4.959,-4.959,-4.959,-4.959,-4.959,-4.959,-4.959,-4.959,-4.959,-4.959,-4.959,-4.959,-4.959,-4.959,-4.959,-4.959,-4.959,-4.959,-4.959,-4.959,-4.959,-4.959,-4.959,-4.959,-4.959,-4.959,-4.959,-4.959,-4.959,-4.959,-4.959,-4.959,-4.959,-4.959,-4.959,-4.959,-4.959,-4.959,-4.9396,-4.9072,-4.8877,-4.8641,-4.8313,-4.8116,-4.7918,-4.7762,-4.7762,-4.763,-4.7497,-4.7497,-4.7497,-4.7497,-4.7497,-4.7497,-4.7563,-4.7894,-4.842,-4.8967,-4.9267,-4.9461,-4.959,-4.959,-4.959,-4.959,-4.959,-4.959,-4.959,-4.959,-4.959,-4.959,-4.959,-4.959,-4.959,-4.959,-4.959,-4.959,-4.959,-4.959,-4.959,-4.959,-4.959,-4.959,-4.959,-4.959,-4.959,-4.959,-4.959,-4.959,-4.959,-4.959,-4.959,-4.959,-4.959,-4.959,-4.8887,0.0,-4.959,-4.959,-4.9264,0.0,-4.949,-4.959,-4.959,-4.959,-4.959,-4.959,-4.959,-4.959,-4.959,-4.959,-4.959,-4.959,-4.959,-4.959,-4.959,-4.959,-4.959,-4.959,-4.959,-4.959,-4.959,-4.959,-4.959,-4.959,-4.959,-4.959,-4.959,-4.959,-4.959,-4.959,-4.959,-4.959,-4.959,-4.959,-4.959,-4.959,-4.959,-4.959,-4.959,-4.959,-4.959,-4.959,-4.959,-4.959,-4.959,-4.959,-4.959,-4.959,-4.959,-4.9525,-4.9267,-4.8942,-4.8641,-4.8248,-4.7894,-4.7563,-4.7497,-4.7497,-4.7497,-4.7497,-4.7497,-4.7497,-4.7497,-4.7497,-4.7497,-4.7497,-4.7563,-4.7828,-4.8248,-4.8706,-4.9007,-4.9332,-4.959,-4.959,-4.959,-4.959,-4.959,-4.959,-4.959,-4.959,-4.959,-4.959,-4.959,-4.959,-4.959,-4.959,-4.959,-4.959,-4.959,-4.959,-4.959,-4.959,-4.9515,-4.9464,-4.9464,-4.9364,-4.9314,-4.9314,-4.949,-4.959,-4.959,-4.959,-4.959,-4.959,-4.959,-4.959,0.0,0.0,-4.959,0.0,-4.954,-4.9515,-4.9565,-4.959,-4.959,-4.959,-4.959,-4.959,-4.959,-4.959,-4.959,-4.959,-4.959,-4.959,-4.959,-4.959,-4.959,-4.959,-4.959,-4.959,-4.959,-4.959,-4.959,-4.959,-4.959,-4.959,-4.959,-4.959,-4.959,-4.959,-4.959,-4.959,-4.959,-4.959,-4.959,-4.959,-4.959,-4.959,-4.959,-4.959,-4.959,-4.959,-4.959,-4.959,-4.959,-4.959,-4.959,-4.959,-4.959,-4.959,-4.9525,-4.9267,-4.8942,-4.8576,-4.8248,-4.7828,-4.7563,-4.7497,-4.7497,-4.7497,-4.7497,-4.7497,-4.7497,-4.7497,-4.7497,-4.7497,-4.7497,-4.7497,-4.7497,-4.7563,-4.8116,-4.8706,-4.9007,-4.9332,-4.959,-4.959,-4.959,-4.959,-4.959,-4.959,-4.959,-4.959,-4.959,-4.959,-4.959,-4.959,-4.959,-4.959,-4.959,-4.959,-4.959,-4.959,-4.959,-4.959,-4.9138,-4.8887,-4.8887,-4.841,-4.8134,-4.8134,-4.9088,-4.959,-4.959,-4.959,-4.959,-4.959,-4.959,-4.959,-4.954,-4.959,-4.959,0.0,-4.959,-4.959,-4.959,-4.959,-4.959,-4.959,-4.959,-4.959,-4.959,-4.959,-4.959,-4.959,-4.959,-4.959,-4.959,-4.959,-4.959,-4.959,-4.959,-4.959,-4.959,-4.959,-4.959,-4.959,-4.959,-4.959,-4.959,-4.959,-4.959,-4.959,-4.959,-4.959,-4.959,-4.959,-4.959,-4.959,-4.959,-4.959,-4.959,-4.959,-4.959,-4.959,-4.959,-4.959,-4.959,-4.959,-4.959,-4.959,-4.9396,-4.9332,-4.9267,-4.8967,-4.8576,-4.8248,-4.8026,-4.7762,-4.7497,-4.7497,-4.7497,-4.7497,-4.7497,-4.7497,-4.7497,-4.7497,-4.7497,-4.7497,-4.7497,-4.7497,-4.7497,-4.7497,-4.805,-4.8666,-4.8772,-4.9202,-4.959,-4.959,-4.959,-4.959,-4.959,-4.959,-4.959,-4.959,-4.959,-4.959,-4.959,-4.959,-4.959,-4.959,-4.9314,-4.9138,-4.9138,-4.8837,-4.8661,-4.8661,-4.841,-4.8284,-4.8284,-4.8033,-4.7908,-4.7908,-4.8385,-4.8661,-4.8661,-4.8661,-4.8661,-4.8661,-4.8661,-4.8661,0.0,0.0,-4.959,-4.959,-4.959,-4.959,-4.959,-4.959,-4.959,-4.959,-4.959,-4.959,-4.959,-4.959,-4.959,-4.959,-4.959,-4.959,-4.959,-4.959,-4.959,-4.959,-4.959,-4.959,-4.959,-4.959,-4.959,-4.959,-4.959,-4.959,-4.959,-4.959,-4.959,-4.959,-4.959,-4.959,-4.959,-4.959,-4.959,-4.959,-4.959,-4.959,-4.959,-4.959,-4.959,-4.959,-4.959,-4.9525,-4.9461,-4.9461,-4.9396,-4.9332,-4.9072,-4.8942,-4.8942,-4.8576,-4.8248,-4.796,-4.7894,-4.7696,-4.7497,-4.7497,-4.7497,-4.7497,-4.7497,-4.7497,-4.7497,-4.7497,-4.7497,-4.7497,-4.7497,-4.7497,-4.7497,-4.763,-4.8116,-4.8666,-4.8837,-4.9227,-4.959,-4.959,-4.959,-4.959,-4.959,-4.959,-4.959,-4.959,-4.959,-4.954,-4.9414,-4.9389,-4.9339,-4.9188,-4.8786,-4.856,-4.856,-4.8159,-4.7908,-4.7908,-4.7782,-4.7707,-4.7707,-4.7581,-4.7506,-4.7506,-4.7506,-4.7631,-4.7908,-4.7908,-4.7908,-4.7908,-4.7908,-4.7908,-4.959,-4.959,0.0,-4.959,-4.959,-4.959,-4.959,-4.959,-4.959,-4.959,-4.959,-4.959,-4.959,-4.959,-4.959,-4.959,-4.959,-4.959,-4.959,-4.959,-4.959,-4.959,-4.959,-4.959,-4.959,-4.959,-4.959,-4.959,-4.959,-4.959,-4.959,-4.959,-4.959,-4.959,-4.959,-4.959,-4.959,-4.959,-4.959,-4.959,-4.959,-4.959,-4.959,-4.959,-4.959,-4.959,-4.959,-4.9396,-4.9137,-4.9137,-4.8967,-4.8641,-4.8666,-4.8666,-4.86,-4.8182,-4.8026,-4.796,-4.763,-4.7497,-4.7497,-4.7497,-4.7497,-4.7497,-4.7497,-4.7497,-4.7497,-4.7497,-4.7497,-4.7497,-4.7497,-4.7497,-4.7563,-4.7894,-4.8313,-4.8772,-4.9396,-4.959,-4.959,-4.959,-4.959,-4.959,-4.959,-4.959,-4.959,-4.959,-4.959,-4.9414,-4.8887,-4.8812,-4.8611,-4.8058,-4.7958,-4.7958,-4.7958,-4.7933,-4.7908,-4.7908,-4.7431,-4.7118,-4.7118,-4.6677,-4.6401,-4.6401,-4.6401,-4.6878,-4.7908,-4.7908,-4.7908,-4.7908,-4.7908,-4.7908,-4.959,0.0,0.0,-4.959,-4.959,-4.959,-4.959,-4.959,-4.959,-4.959,-4.959,-4.959,-4.959,-4.959,-4.959,-4.959,-4.959,-4.959,-4.959,-4.959,-4.959,-4.959,-4.959,-4.959,-4.959,-4.959,-4.959,-4.959,-4.959,-4.959,-4.959,-4.959,-4.959,-4.959,-4.959,-4.959,-4.959,-4.959,-4.959,-4.959,-4.959,-4.959,-4.959,-4.959,-4.959,-4.959,-4.9396,-4.9202,-4.9072,-4.9072,-4.8902,-4.86,-4.8313,-4.8248,-4.8182,-4.7828,-4.7696,-4.763,-4.7563,-4.7497,-4.7497,-4.7497,-4.7497,-4.7497,-4.7497,-4.7497,-4.7497,-4.7497,-4.7497,-4.7497,-4.7497,-4.7497,-4.763,-4.8248,-4.851,-4.8772,-4.9461,-4.959,-4.959,-4.959,-4.959,-4.959,-4.959,-4.9289,-4.9063,-4.9063,-4.8761,-4.8435,-4.8234,-4.8209,-4.8134,-4.7933,-4.7606,-4.7405,-4.7405,-4.7079,-4.6878,-4.6878,-4.6702,-4.6602,-4.6602,-4.6426,-4.6301,-4.6301,-4.6301,-4.6502,-4.6878,-4.6878,-4.6878,-4.6878,-4.6878,-4.6878,-4.959,-4.959,-4.959,-4.959,-4.959,-4.959,-4.959,-4.959,-4.959,-4.959,-4.959,-4.959,-4.959,-4.959,-4.959,-4.959,-4.959,-4.959,-4.959,-4.959,-4.959,-4.959,-4.959,-4.959,-4.959,-4.959,-4.959,-4.959,-4.959,-4.959,-4.959,-4.959,-4.959,-4.959,-4.959,-4.959,-4.959,-4.959,-4.959,-4.959,-4.959,-4.959,-4.959,-4.9414,-4.9314,-4.9314,-4.8793,-4.866,-4.8942,-4.8812,-4.8551,-4.8182,-4.796,-4.7828,-4.7828,-4.7563,-4.7497,-4.7497,-4.7497,-4.7497,-4.7497,-4.7497,-4.7497,-4.7497,-4.7497,-4.7497,-4.7497,-4.7497,-4.7497,-4.7497,-4.7497,-4.7443,-4.7562,-4.8175,-4.8222,-4.8358,-4.891,-4.9188,-4.9314,-4.9314,-4.9163,-4.9038,-4.9038,-4.8711,-4.8485,-4.8485,-4.8159,-4.7832,-4.7657,-4.7657,-4.7581,-4.738,-4.7054,-4.6853,-4.6853,-4.6527,-4.6301,-4.6301,-4.6301,-4.6301,-4.6301,-4.6301,-4.6301,-4.6301,-4.6301,-4.6301,-4.6301,-4.6301,-4.6301,-4.6301,-4.6301,-4.6301,0.0,0.0,0.0,-4.959,-4.959,-4.959,-4.959,-4.959,-4.959,-4.959,-4.959,-4.959,-4.959,-4.959,-4.959,-4.959,-4.959,-4.959,-4.959,-4.959,-4.959,-4.959,-4.959,-4.959,-4.959,-4.959,-4.959,-4.959,-4.959,-4.959,-4.959,-4.959,-4.959,-4.959,-4.959,-4.959,-4.959,-4.959,-4.959,-4.959,-4.9565,-4.9565,-4.9565,-4.9012,-4.8736,-4.8711,-4.787,-4.7863,-4.8461,-4.8109,-4.778,-4.7449,-4.7449,-4.7449,-4.7449,-4.7449,-4.7449,-4.7449,-4.7449,-4.7449,-4.7449,-4.7449,-4.7449,-4.7449,-4.7449,-4.7449,-4.7449,-4.7449,-4.7449,-4.7449,-4.7449,-4.7327,-4.7264,-4.7586,-4.7576,-4.7558,-4.7845,-4.8335,-4.8736,-4.8736,-4.8284,-4.7908,-4.7908,-4.7908,-4.7883,-4.7883,-4.7883,-4.7682,-4.7118,-4.7043,-4.6903,-4.6376,-4.6301,-4.6301,-4.6301,-4.6301,-4.6301,-4.6301,-4.6301,-4.6301,-4.6301,-4.6301,-4.6301,-4.6301,-4.6301,-4.6301,-4.6301,-4.6301,-4.6301,-4.6301,-4.6301,-4.6301,-4.959,0.0,0.0,0.0,0.0,0.0,-4.959,-4.959,-4.959,-4.959,-4.959,-4.959,-4.959,-4.959,-4.959,-4.959,-4.959,-4.959,-4.959,-4.959,-4.959,-4.959,-4.959,-4.959,-4.959,-4.959,-4.959,-4.959,-4.959,-4.959,-4.959,-4.959,-4.959,-4.959,-4.959,-4.959,-4.959,-4.959,-4.959,-4.959,-4.9188,-4.9012,-4.8987,-4.841,-4.8033,-4.7845,-4.7318,-4.7037,-4.7012,-4.6883,-4.6625,-4.6367,-4.6367,-4.6367,-4.6367,-4.6367,-4.6367,-4.6367,-4.6367,-4.6367,-4.6367,-4.6367,-4.6367,-4.6367,-4.6367,-4.6367,-4.6367,-4.6367,-4.6367,-4.6367,-4.6367,-4.6504,-4.6728,-4.7047,-4.7304,-4.7495,-4.7845,-4.7732,-4.7707,-4.8083,-4.8008,-4.7908,-4.7908,-4.7606,-4.7355,-4.7355,-4.7004,-4.6702,-4.6552,-4.6552,-4.6476,-4.6326,-4.6301,-4.6301,-4.6301,-4.6301,-4.6301,-4.6301,-4.6301,-4.6301,-4.6301,-4.6301,-4.6301,-4.6301,-4.6301,-4.6301,-4.6301,-4.6301,-4.6301,-4.6301,-4.6301,-4.6301,-4.959,-4.959,-4.959,-4.959,0.0,0.0,-4.959,-4.959,-4.959,-4.959,-4.959,-4.959,-4.959,-4.959,-4.959,-4.959,-4.959,-4.959,-4.959,-4.959,-4.959,-4.959,-4.959,-4.959,-4.959,-4.959,-4.959,-4.959,-4.959,-4.959,-4.959,-4.959,-4.959,-4.959,-4.959,-4.959,-4.959,-4.9364,-4.9264,-4.9238,-4.8686,-4.841,-4.8385,-4.7832,-4.7395,-4.7085,-4.6488,-4.6015,-4.5702,-4.5576,-4.5652,-4.5934,-4.5934,-4.5934,-4.5934,-4.5934,-4.5934,-4.5934,-4.5934,-4.5934,-4.5934,-4.5934,-4.5934,-4.5934,-4.5934,-4.5934,-4.5934,-4.5934,-4.5934,-4.591,-4.6038,-4.6084,-4.6168,-4.6672,-4.6749,-4.6823,-4.7168,-4.7004,-4.6954,-4.7481,-4.7405,-4.723,-4.723,-4.7004,-4.6803,-4.6803,-4.6527,-4.6301,-4.6301,-4.6301,-4.6301,-4.6301,-4.6301,-4.6301,-4.6301,-4.6301,-4.6301,-4.6301,-4.6301,-4.6301,-4.6301,-4.6301,-4.6301,-4.6301,-4.6301,-4.6301,-4.6301,-4.6301,-4.6301,-4.6301,-4.6301,-4.6301,-4.959,-4.959,-4.959,-4.959,-4.959,0.0,-4.959,-4.959,-4.959,-4.959,-4.959,-4.959,-4.959,-4.959,-4.959,-4.959,-4.959,-4.959,-4.959,-4.959,-4.959,-4.959,-4.959,-4.959,-4.959,-4.959,-4.959,-4.959,-4.959,-4.959,-4.959,-4.959,-4.959,-4.959,-4.959,-4.959,-4.959,-4.9063,-4.8761,-4.8761,-4.8134,-4.777,-4.7745,-4.7218,-4.6722,-4.6328,-4.5589,-4.5025,-4.4717,-4.4409,-4.4837,-4.5742,-4.5742,-4.5742,-4.5742,-4.5742,-4.5742,-4.5742,-4.5742,-4.5742,-4.5742,-4.5742,-4.5742,-4.5742,-4.5742,-4.5742,-4.5742,-4.5742,-4.5742,-4.5805,-4.6124,-4.591,-4.5733,-4.6353,-4.6165,-4.5939,-4.624,-4.6301,-4.6451,-4.6954,-4.6652,-4.6301,-4.6301,-4.6301,-4.6301,-4.6301,-4.6301,-4.6301,-4.6301,-4.6301,-4.6301,-4.6301,-4.6301,-4.6301,-4.6301,-4.6301,-4.6301,-4.6301,-4.6301,-4.6301,-4.6301,-4.6301,-4.6301,-4.6301,-4.6301,-4.6301,-4.6301,-4.6301,-4.6301,-4.6301,-4.6301,-4.6301,-4.959,-4.959,-4.959,-4.959,-4.959,0.0,-4.959,-4.959,-4.959,-4.959,-4.959,-4.959,-4.959,-4.959,-4.959,-4.959,-4.959,-4.959,-4.959,-4.959,-4.959,-4.959,-4.959,-4.959,-4.959,-4.959,-4.959,-4.959,-4.959,-4.959,-4.959,-4.959,-4.959,-4.959,-4.959,-4.959,-4.959,-4.9063,-4.8761,-4.8761,-4.7757,-4.7095,-4.6823,-4.6301,-4.5723,-4.5171,-4.4951,-4.4717,-4.4409,-4.4347,-4.4405,-4.4597,-4.4597,-4.4597,-4.4597,-4.4597,-4.4597,-4.4597,-4.4597,-4.4597,-4.4597,-4.4597,-4.4597,-4.4597,-4.4597,-4.4597,-4.4597,-4.4597,-4.4597,-4.4722,-4.5033,-4.5244,-4.5478,-4.5845,-4.6074,-4.624,-4.6301,-4.6301,-4.6351,-4.6451,-4.6376,-4.6301,-4.6301,-4.6301,-4.6301,-4.6301,-4.6301,-4.6301,-4.6301,-4.6301,-4.6301,-4.6301,-4.6301,-4.6301,-4.6301,-4.6301,-4.6301,-4.6301,-4.6301,-4.6301,-4.6301,-4.6301,-4.6301,-4.6301,-4.6301,-4.6301,-4.6301,-4.6301,-4.6301,-4.6301,-4.6301,-4.6301,-4.9525,-4.959,-4.959,-4.959,-4.959,0.0,0.0,-4.959,-4.959,-4.959,-4.959,-4.959,-4.959,-4.959,-4.959,-4.959,-4.959,-4.959,-4.959,-4.959,-4.959,-4.959,-4.959,-4.959,-4.959,-4.959,-4.959,-4.959,-4.959,-4.959,-4.959,-4.959,-4.959,-4.959,-4.959,-4.9464,-4.9188,-4.8636,-4.8209,-4.7933,-4.7129,-4.6545,-4.6215,-4.5942,-4.5453,-4.4779,-4.4779,-4.4594,-4.4285,-4.4285,-4.4285,-4.4285,-4.4285,-4.4285,-4.4285,-4.4285,-4.4285,-4.4285,-4.4285,-4.4285,-4.4285,-4.4285,-4.4285,-4.4285,-4.4285,-4.4285,-4.4347,-4.447,-4.4532,-4.4656,-4.5147,-4.5453,-4.5635,-4.5939,-4.618,-4.6301,-4.6301,-4.6301,-4.6301,-4.6301,-4.6301,-4.6301,-4.6301,-4.6301,-4.6301,-4.6301,-4.6301,-4.6301,-4.6301,-4.6301,-4.6301,-4.6301,-4.6301,-4.6301,-4.6301,-4.6301,-4.6301,-4.6301,-4.6301,-4.6301,-4.6301,-4.6301,-4.6301,-4.6301,-4.6301,-4.6301,-4.6301,-4.6301,-4.6301,-4.6301,-4.6301,-4.6301,-4.9525,-4.959,-4.959,-4.959,-4.959,-4.959,0.0,0.0,0.0,-4.959,-4.959,-4.959,-4.959,-4.959,-4.959,-4.959,-4.959,-4.959,-4.959,-4.959,-4.959,-4.959,-4.959,-4.959,-4.959,-4.959,-4.959,-4.959,-4.959,-4.959,-4.959,-4.959,-4.959,-4.959,-4.949,-4.9213,-4.8786,-4.8109,-4.7556,-4.7068,-4.6516,-4.5999,-4.5696,-4.5635,-4.527,-4.4717,-4.4717,-4.4532,-4.4285,-4.4285,-4.4285,-4.4285,-4.4285,-4.4285,-4.4285,-4.4285,-4.4285,-4.4285,-4.4285,-4.4285,-4.4285,-4.4285,-4.4285,-4.4285,-4.4285,-4.4285,-4.4347,-4.4717,-4.4779,-4.4963,-4.5635,-4.5817,-4.5878,-4.624,-4.6301,-4.6301,-4.6301,-4.6301,-4.6301,-4.6301,-4.6301,-4.6301,-4.6301,-4.6301,-4.6301,-4.6301,-4.6301,-4.6301,-4.6301,-4.6301,-4.6301,-4.6301,-4.6301,-4.6301,-4.6301,-4.6301,-4.6301,-4.6301,-4.6301,-4.6301,-4.6301,-4.6301,-4.6301,-4.6301,-4.6301,-4.6301,-4.6301,-4.6301,-4.6301,-4.6301,-4.6301,-4.6301,-4.9525,-4.959,-4.959,-4.959,-4.959,-4.959,-4.959,0.0,-4.959,-4.959,0.0,-4.959,-4.959,0.0,0.0,-4.959,-4.959,-4.959,-4.959,-4.959,-4.959,-4.959,-4.959,-4.959,-4.959,-4.959,-4.959,-4.959,-4.959,-4.959,-4.959,-4.959,-4.959,-4.959,-4.9113,-4.8837,-4.8761,-4.7732,-4.7143,-4.7068,-4.6273,-4.5696,-4.5331,-4.5025,-4.4717,-4.4347,-4.4347,-4.4347,-4.4285,-4.4285,-4.4285,-4.4285,-4.4285,-4.4285,-4.4285,-4.4285,-4.4285,-4.4285,-4.4285,-4.4285,-4.4285,-4.4285,-4.4285,-4.4285,-4.4285,-4.4285,-4.4347,-4.4717,-4.4779,-4.4963,-4.5635,-4.5817,-4.5878,-4.624,-4.6301,-4.6301,-4.6301,-4.6301,-4.6301,-4.6301,-4.6301,-4.6301,-4.6301,-4.6301,-4.6301,-4.6301,-4.6301,-4.6301,-4.6301,-4.6301,-4.6301,-4.6301,-4.6301,-4.6301,-4.6301,-4.6301,-4.6301,-4.6301,-4.6301,-4.6301,-4.6301,-4.6301,-4.6301,-4.6301,-4.6301,-4.6301,-4.6301,-4.6301,-4.6301,-4.6301,-4.6301,-4.6301,-4.9525,-4.8828,-4.8257,-4.9307,-4.8763,-4.8257,-4.9371,-4.959,-4.959,-4.959,0.0,0.0,0.0,0.0,0.0,0.0,-4.959,-4.959,-4.959,-4.959,-4.959,-4.959,-4.959,-4.959,-4.959,-4.959,-4.959,-4.959,-4.959,-4.959,-4.959,-4.959,-4.959,-4.959,-4.9063,-4.8611,-4.8259,-4.732,-4.6673,-4.6348,-4.582,-4.5331,-4.5025,-4.484,-4.4594,-4.4285,-4.4285,-4.4285,-4.4285,-4.4285,-4.4285,-4.4285,-4.4285,-4.4285,-4.4285,-4.4285,-4.4285,-4.4285,-4.4285,-4.4285,-4.4285,-4.4285,-4.4285,-4.4285,-4.4285,-4.4285,-4.4409,-4.4963,-4.5086,-4.527,-4.5939,-4.6059,-4.612,-4.624,-4.6301,-4.6301,-4.6301,-4.6301,-4.6301,-4.6301,-4.6301,-4.6301,-4.6301,-4.6301,-4.6301,-4.6301,-4.6301,-4.6301,-4.6301,-4.6301,-4.6301,-4.6301,-4.6301,-4.6301,-4.6301,-4.6301,-4.6301,-4.6301,-4.6301,-4.6301,-4.6301,-4.6301,-4.6301,-4.6301,-4.6301,-4.6301,-4.6301,-4.6301,-4.6301,-4.6301,-4.6301,-4.6301,-4.8632,-4.7839,-4.7221,-4.9112,-4.8542,-4.7929,-4.9307,-4.959,-4.959,-4.959,-4.959,0.0,0.0,0.0,-4.959,-4.959,0.0,-4.959,-4.959,-4.959,-4.959,-4.959,-4.959,-4.959,-4.959,-4.959,-4.959,-4.959,-4.959,-4.959,-4.959,-4.959,-4.9515,-4.9364,-4.8837,-4.8259,-4.7707,-4.6786,-4.6215,-4.5817,-4.5392,-4.5025,-4.4779,-4.4717,-4.4532,-4.4285,-4.4285,-4.4285,-4.4285,-4.4285,-4.4285,-4.4285,-4.4285,-4.4285,-4.4285,-4.4285,-4.4285,-4.4285,-4.4285,-4.4285,-4.4285,-4.4285,-4.4285,-4.4285,-4.4285,-4.4285,-4.4409,-4.5086,-4.5331,-4.5453,-4.612,-4.6301,-4.6301,-4.6301,-4.6301,-4.6301,-4.6301,-4.6301,-4.6301,-4.6301,-4.6301,-4.6301,-4.6301,-4.6301,-4.6301,-4.6301,-4.6301,-4.6301,-4.6301,-4.6301,-4.6301,-4.6301,-4.6301,-4.6301,-4.6301,-4.6301,-4.6301,-4.6301,-4.6301,-4.6301,-4.6301,-4.6301,-4.6301,-4.6301,-4.6301,-4.6301,-4.6301,-4.6301,-4.6301,-4.6301,-4.6301,-4.6301,-4.6331,-4.6865,-4.7221,-4.9112,-4.9525,-4.9525,-4.959,-4.959,-4.959,-4.959,-4.959,-4.959,-4.959,-4.959,-4.959,-4.959,-4.959,0.0,0.0,-4.959,-4.959,-4.959,-4.959,-4.959,-4.959,-4.959,-4.959,-4.959,-4.959,-4.959,-4.959,-4.959,-4.9339,-4.8812,-4.8234,-4.7682,-4.7093,-4.6238,-4.5842,-4.5757,-4.5147,-4.484,-4.4779,-4.447,-4.4285,-4.4285,-4.4285,-4.4285,-4.4285,-4.4285,-4.4285,-4.4285,-4.4285,-4.4285,-4.4285,-4.4285,-4.4285,-4.4285,-4.4285,-4.4285,-4.4285,-4.4285,-4.4285,-4.4285,-4.4285,-4.4285,-4.4409,-4.5086,-4.5331,-4.5453,-4.612,-4.6301,-4.6301,-4.6301,-4.6301,-4.6301,-4.6301,-4.6301,-4.6301,-4.6301,-4.6301,-4.6301,-4.6301,-4.6301,-4.6301,-4.6301,-4.6301,-4.6301,-4.6301,-4.6301,-4.6301,-4.6301,-4.6301,-4.6301,-4.6301,-4.6301,-4.6301,-4.6301,-4.6301,-4.6301,-4.6301,-4.6301,-4.6301,-4.6301,-4.6301,-4.6301,-4.6301,-4.6301,-4.6301,-4.6301,-4.6301,-4.6301,-4.4846,-4.4094,-4.3934,-4.6955,-4.6822,-4.6579,-4.9047,-4.959,-4.959,-4.959,-4.959,-4.959,-4.959,-4.959,-4.959,-4.959,-4.959,-4.959,0.0,-4.959,-4.959,-4.959,-4.959,-4.959,-4.959,-4.959,-4.959,-4.959,-4.959,-4.959,-4.959,-4.959,-4.9339,-4.8786,-4.8209,-4.7533,-4.6761,-4.5907,-4.5392,-4.5147,-4.4656,-4.447,-4.447,-4.4347,-4.4285,-4.4285,-4.4285,-4.4285,-4.4285,-4.4285,-4.4285,-4.4285,-4.4285,-4.4285,-4.4285,-4.4285,-4.4285,-4.4285,-4.4285,-4.4285,-4.4285,-4.4285,-4.4285,-4.4285,-4.4285,-4.447,-4.4717,-4.5147,-4.5453,-4.5757,-4.618,-4.6301,-4.6301,-4.6301,-4.6301,-4.6301,-4.6301,-4.6301,-4.6301,-4.6301,-4.6301,-4.6301,-4.6301,-4.6301,-4.6301,-4.6301,-4.6301,-4.6301,-4.6301,-4.6301,-4.6301,-4.6301,-4.6301,-4.6301,-4.6301,-4.6301,-4.6301,-4.6301,-4.6301,-4.6301,-4.6301,-4.6301,-4.6301,-4.6301,-4.6301,-4.6301,-4.6301,-4.6301,-4.6301,-4.6301,-4.6301,-4.6301,-4.294,-4.2241,-4.201,-4.5118,-4.4982,-4.4846,-4.7929,-4.8608,-4.8608,-4.8608,-4.9112,-4.9396,-4.8763,-4.9177,-4.959,-4.959,-4.959,-4.959,0.0,-4.959,-4.959,-4.959,-4.959,-4.959,-4.959,-4.959,-4.959,-4.959,-4.959,-4.959,-4.959,-4.9414,-4.9038,-4.8485,-4.7808,-4.7072,-4.6339,-4.5503,-4.5025,-4.4779,-4.447,-4.4285,-4.4285,-4.4285,-4.4285,-4.4285,-4.4285,-4.4285,-4.4285,-4.4285,-4.4285,-4.4285,-4.4285,-4.4285,-4.4285,-4.4285,-4.4285,-4.4285,-4.4285,-4.4285,-4.4285,-4.4285,-4.4285,-4.4347,-4.4409,-4.4656,-4.4902,-4.5331,-4.5635,-4.5878,-4.618,-4.6301,-4.6301,-4.6301,-4.6301,-4.6301,-4.6301,-4.6301,-4.6301,-4.6301,-4.6301,-4.6301,-4.6301,-4.6301,-4.6301,-4.6301,-4.6301,-4.6301,-4.6301,-4.6301,-4.6301,-4.6301,-4.6301,-4.6301,-4.6301,-4.6301,-4.6301,-4.6301,-4.6301,-4.6301,-4.6301,-4.6301,-4.6401,-4.6602,-4.6401,-4.6401,-4.6602,-4.6401,-4.6301,-4.6301,-4.6301,-4.6301]}]]